GFSCGP_con_3kmhel_000.txt.gz
Helicity
163 196 145 73 46 124 206 160 60 43 84 42 35 33 65 50 95 104 182 197 207 181 160 127 89 84 75 145 164 111 211 251 317 379 360 338 329 287 277 294 279 286 289 282
208 150 78 69 111 116 133 116 85 106 52 31 76 67 58 59 65 132 195 169 165 123 108 93 73 71 83 70 64 128 145 146 231 335 341 322 291 241 250 256 260 275 282 280
151 90 115 137 136 89 93 110 137 143 72 63 61 43 66 44 91 144 111 106 104 108 105 100 86 79 83 95 75 60 95 188 128 205 278 210 201 217 203 202 205 182 181 187
106 177 116 101 91 86 110 60 58 113 135 141 47 83 70 76 116 104 120 102 91 97 79 75 77 81 84 70 38 37 45 73 171 165 156 135 158 166 157 153 166 161 175 206
185 108 118 108 91 107 82 58 66 86 93 111 64 96 63 132 119 128 97 92 93 77 89 89 72 52 29 33 31 38 32 58 53 65 87 90 90 129 124 127 129 131 158 192
139 113 102 110 84 79 52 56 47 43 66 111 99 101 110 144 201 188 121 109 94 102 111 106 63 37 29 37 45 53 62 71 73 76 75 78 70 67 76 82 95 104 111 142
145 132 84 84 67 42 51 105 160 138 106 101 61 76 -15 111 270 195 162 122 120 122 117 71 40 31 48 78 92 84 96 112 112 104 101 95 89 80 75 74 80 83 96 101
118 136 59 47 58 52 37 90 172 217 171 85 35 51 97 158 284 400 220 164 154 162 104 62 26 -2 2 32 80 104 106 105 115 117 124 121 120 108 102 97 94 79 72 74
97 87 65 78 46 77 64 62 40 67 41 47 43 41 91 217 237 200 129 136 157 125 116 73 24 9 -15 -2 7 36 71 89 106 114 118 130 135 140 130 124 109 103 87 85
88 75 44 36 45 32 56 61 54 47 40 37 33 44 56 202 188 133 150 161 146 135 133 87 45 7 -42 -31 25 69 89 93 86 88 83 75 77 85 89 84 83 79 82 88
98 62 52 45 36 50 44 40 37 53 60 55 59 44 144 190 145 125 188 234 203 160 110 58 24 5 -33 40 102 93 84 75 77 63 59 64 60 65 63 65 68 71 71 69
72 74 66 59 44 49 61 49 36 68 76 78 120 55 113 112 155 245 172 167 179 168 131 82 13 10 108 95 114 136 119 99 73 63 52 42 40 37 39 36 43 50 51 50
84 79 81 77 62 54 46 34 57 68 57 87 130 63 80 84 70 42 11 127 186 168 124 125 137 176 182 192 178 134 112 97 89 75 61 59 50 42 38 35 29 26 23 32
88 99 128 136 87 100 65 49 62 75 84 141 146 98 58 82 34 48 94 156 200 223 168 147 240 262 207 202 185 136 118 112 95 86 80 78 72 63 62 55 43 28 20 20
86 87 95 91 65 49 26 11 44 103 131 176 118 107 33 57 50 43 117 135 178 171 274 327 293 222 200 212 180 155 133 118 109 90 78 91 89 84 72 59 49 46 45 44
73 46 49 21 14 37 35 26 52 74 60 103 79 15 67 74 142 146 147 144 180 243 316 283 255 252 247 214 172 138 130 110 94 86 84 93 103 92 66 52 38 34 40 41
48 65 63 29 89 58 -5 16 51 69 67 114 111 85 62 83 121 140 115 137 165 362 411 336 322 255 206 177 162 138 120 107 98 88 92 116 93 81 67 55 39 31 28 27
79 85 79 48 62 55 14 19 74 60 72 98 98 90 101 130 125 170 218 254 308 503 558 442 270 223 200 172 157 132 105 97 97 87 96 83 71 55 36 21 16 15 14 17
61 91 72 55 57 47 33 -4 71 98 95 94 136 42 86 204 198 194 287 480 470 503 445 351 262 191 160 158 123 100 91 75 66 77 67 43 23 13 3 3 11 25 26 40
42 22 63 127 78 19 25 126 185 132 78 149 207 197 223 271 290 295 444 517 470 447 399 316 215 160 147 134 128 103 59 51 58 58 40 18 8 4 13 19 33 39 50 67
76 58 96 68 92 29 5 127 117 112 125 167 167 165 175 237 236 367 519 503 457 389 350 264 163 119 102 118 107 87 68 49 52 42 22 16 13 25 22 31 34 42 52 63
66 52 99 78 87 -16 106 150 138 120 135 150 124 123 189 285 364 446 460 393 353 318 220 170 146 147 131 115 115 95 81 63 50 38 35 31 21 15 11 -2 22 34 50 59
41 74 88 131 92 137 143 82 106 139 160 190 255 226 278 322 435 439 429 348 305 258 214 194 187 168 147 129 109 94 79 62 51 55 45 31 18 16 20 40 52 57 50 60
48 24 119 131 170 156 121 65 109 128 203 246 268 273 295 317 355 306 257 275 224 195 203 185 161 144 120 101 93 76 67 69 73 70 52 36 34 41 79 92 86 100 79 66
95 65 160 140 44 61 107 205 182 120 106 130 147 188 220 268 311 271 224 182 195 193 181 148 142 126 110 98 88 73 77 84 87 80 69 68 84 93 103 114 111 88 82 88
189 123 139 122 81 102 119 134 158 174 146 105 153 227 265 286 264 238 235 201 223 218 154 131 118 105 104 101 96 90 99 103 102 98 101 114 123 132 137 123 114 77 60 43

GFSCGP_con_3kmhel_003.txt.gz
Helicity
196 174 211 112 73 60 91 156 116 83 61 121 46 28 44 74 93 120 205 280 241 167 99 97 107 94 92 144 188 235 214 184 380 447 369 302 284 287 270 269 247 247 248 275
330 226 66 75 56 100 101 168 134 88 38 59 38 39 61 69 99 132 163 174 131 125 146 121 105 99 106 108 119 123 168 215 194 278 385 380 338 238 244 235 242 246 251 275
258 182 80 66 113 134 103 105 95 91 108 48 66 73 86 143 123 142 127 111 114 103 85 79 94 102 119 156 147 113 82 115 163 161 212 278 291 216 159 173 185 175 193 216
168 108 96 143 117 129 111 70 67 58 71 85 97 89 114 121 135 110 97 106 87 77 70 76 95 113 112 103 74 67 60 79 107 123 154 146 120 113 94 100 115 110 144 176
296 178 142 143 109 114 105 110 70 67 91 73 75 108 80 172 157 103 78 88 90 100 104 109 107 103 77 69 56 46 67 102 99 91 73 69 81 70 59 78 83 82 83 96
227 134 134 118 147 120 83 90 79 81 102 114 64 112 70 140 229 127 91 97 118 132 139 132 109 88 80 69 52 52 82 123 149 156 166 160 154 136 126 123 113 107 96 93
243 200 145 144 155 141 118 138 180 181 158 96 68 127 49 89 194 238 200 171 157 144 154 144 117 92 79 84 62 43 81 121 157 186 209 215 215 210 199 190 179 189 181 166
266 196 117 103 80 101 93 82 151 165 142 134 107 74 40 91 236 296 238 234 196 157 137 112 84 72 69 54 53 46 60 98 155 163 166 157 152 142 135 136 124 134 140 152
168 174 117 93 99 80 90 67 55 85 95 89 62 59 89 216 303 333 247 216 168 140 127 106 78 50 20 14 35 52 72 111 147 140 129 125 112 109 110 105 87 87 86 97
113 154 92 83 75 64 69 66 82 78 64 65 57 51 35 172 237 220 192 167 154 129 97 97 71 31 10 16 54 139 154 148 122 105 92 88 82 70 64 59 74 73 82 89
88 83 110 75 56 54 70 64 59 70 71 52 51 69 74 96 125 119 147 141 103 112 124 79 51 35 43 107 163 158 153 122 120 110 96 98 88 65 61 61 70 78 74 69
76 52 114 67 65 53 50 29 42 68 88 77 48 60 46 54 118 161 118 99 157 138 109 96 118 196 255 237 209 177 142 130 109 97 99 95 82 58 62 70 70 61 40 26
67 64 130 121 65 54 41 56 68 77 65 60 69 46 44 59 65 14 78 87 103 156 171 236 291 283 273 248 233 175 142 132 122 120 107 107 104 89 84 81 77 55 42 34
89 79 48 57 39 56 52 46 61 82 79 93 124 121 144 127 27 6 39 77 131 203 228 277 299 320 304 261 203 161 140 117 127 116 98 108 108 87 83 68 54 54 62 68
109 99 70 71 61 61 37 28 47 61 122 112 123 69 68 51 42 24 71 140 194 222 290 281 330 329 282 235 201 161 142 121 106 103 103 103 99 89 69 70 72 70 70 69
121 77 78 74 56 34 15 -6 15 35 67 83 71 -11 134 129 109 115 62 75 139 238 290 339 368 316 249 209 168 141 111 98 95 106 114 112 100 81 76 73 71 65 60 55
81 69 61 50 82 31 5 19 69 72 91 86 89 101 65 94 90 73 91 113 227 310 321 351 353 288 245 218 178 155 124 90 123 135 126 103 79 69 63 56 51 46 42 43
56 68 69 56 74 38 34 63 52 45 32 39 78 63 55 58 88 132 104 230 356 371 317 369 342 303 269 217 161 111 120 172 166 127 104 81 72 62 50 39 35 34 30 31
102 86 68 75 70 6 34 75 66 60 34 22 53 71 63 112 175 191 208 292 302 287 360 375 264 187 165 153 118 196 213 181 156 126 106 81 63 60 49 41 29 25 23 18
66 75 82 80 67 49 23 49 31 9 39 111 154 132 118 144 131 179 284 333 426 414 386 341 218 179 188 226 236 209 171 144 120 109 86 66 59 49 47 41 39 41 42 26
97 86 71 81 71 38 48 23 59 87 95 136 109 98 96 165 183 321 449 459 420 349 273 224 216 222 257 200 178 156 121 118 99 85 74 70 72 73 66 72 68 58 32 28
69 83 65 92 79 39 105 169 101 103 110 145 199 209 192 303 373 388 411 386 320 274 270 225 241 228 188 177 158 132 125 103 88 80 77 78 90 100 90 72 71 50 46 47
78 97 83 76 57 112 169 72 78 103 133 146 163 185 197 262 274 304 294 298 273 254 237 258 241 207 182 161 119 118 107 88 81 83 81 96 108 103 75 79 69 67 72 83
74 39 102 118 108 116 85 53 16 14 28 45 77 106 144 159 211 264 300 317 281 262 277 258 215 175 174 132 102 89 82 79 79 82 93 108 109 81 93 85 72 88 88 97
65 95 123 64 22 44 104 90 67 38 20 53 98 87 80 111 186 243 264 257 260 287 254 223 171 149 133 112 90 78 70 76 86 99 113 121 119 110 112 99 94 93 104 96
122 132 157 92 114 114 55 88 107 125 116 87 113 88 89 95 125 164 203 238 200 176 184 154 134 123 119 103 87 83 95 105 120 127 131 129 123 120 111 96 103 81 64 50

GFSCGP_con_3kmhel_006.txt.gz
Helicity
76 195 193 143 125 72 77 89 94 127 47 82 64 79 59 53 118 157 178 177 177 153 82 86 92 96 89 108 120 114 130 115 234 277 242 220 227 240 231 227 203 212 224 219
156 63 149 112 105 78 69 62 80 91 38 39 57 54 51 91 83 101 107 112 102 97 134 145 138 137 141 116 110 101 109 119 64 159 215 222 185 185 197 184 153 145 163 188
188 176 115 114 87 88 89 60 64 46 62 44 46 62 88 134 136 125 123 94 92 109 124 139 143 137 138 163 135 109 76 80 74 44 95 137 157 139 114 94 82 82 96 123
110 133 125 98 86 111 58 35 62 60 48 56 47 58 101 124 96 101 74 89 105 111 106 98 114 136 133 127 106 79 57 62 82 106 115 133 123 110 103 83 79 70 64 74
274 176 117 110 28 82 55 68 83 74 47 63 72 79 52 148 83 99 51 84 99 113 104 101 98 95 100 96 86 80 90 126 127 144 154 160 176 150 126 136 156 166 167 159
235 166 155 109 95 91 82 131 152 115 78 85 65 101 40 150 120 125 69 81 106 114 102 94 99 105 94 84 87 80 81 118 174 210 237 242 239 221 211 199 188 173 165 159
336 224 198 171 193 193 163 175 155 135 139 84 100 139 42 63 85 176 149 110 135 130 102 110 98 78 71 77 65 60 95 145 178 190 198 171 154 147 148 142 127 126 121 122
302 291 177 153 120 124 121 125 161 125 129 118 140 109 67 34 73 221 202 162 150 139 121 88 76 64 70 70 91 115 130 159 161 154 136 124 122 101 97 93 79 85 91 97
192 290 211 163 190 140 128 117 68 139 142 148 112 81 46 75 203 221 242 188 135 110 74 78 76 98 100 144 128 107 102 117 135 136 133 140 117 109 91 84 71 74 85 99
166 168 185 163 167 140 107 88 138 144 128 114 119 84 55 62 152 227 213 140 103 75 105 100 81 100 170 179 165 170 134 103 110 123 116 104 95 94 91 80 84 85 87 84
135 133 215 163 139 110 133 129 129 106 96 87 95 58 50 40 126 183 110 89 93 114 97 88 136 239 258 228 206 172 130 125 139 125 109 103 87 69 54 55 57 64 61 57
150 105 198 142 113 87 67 56 90 89 69 75 51 43 58 53 72 116 84 98 105 116 120 181 247 273 277 247 216 183 158 149 132 113 106 95 86 90 94 104 110 111 103 88
105 120 205 135 106 92 65 80 79 101 83 47 52 43 63 106 71 95 147 110 103 176 265 291 316 302 263 248 215 181 164 141 125 113 111 108 108 112 114 110 111 108 106 97
82 82 74 73 44 84 79 84 93 95 80 66 79 80 82 98 138 129 87 51 165 228 239 282 299 267 270 221 216 197 163 139 125 129 124 102 103 125 127 120 114 103 89 78
64 59 64 89 60 73 62 87 86 98 101 54 55 49 69 88 82 52 42 122 206 208 220 269 284 263 200 193 236 178 156 154 136 114 101 98 117 128 118 115 100 88 80 75
102 74 83 85 86 58 45 49 41 48 64 51 53 -2 46 64 76 110 117 122 122 140 233 281 267 220 175 193 210 180 156 126 98 87 97 118 136 133 115 101 100 96 90 82
103 92 105 74 81 44 14 29 60 79 90 46 6 58 82 73 86 114 63 70 125 220 244 259 262 229 220 198 167 153 137 108 159 147 158 158 144 127 109 93 86 78 65 55
61 73 67 13 58 39 56 67 58 93 127 89 88 81 70 73 47 77 82 83 170 250 302 296 266 265 224 187 152 89 170 238 196 153 148 142 128 119 86 74 67 64 61 66
109 95 77 46 61 60 76 112 108 97 121 112 116 107 81 62 95 81 42 61 137 228 259 285 269 222 186 119 82 189 270 224 197 182 152 143 121 96 85 83 80 87 86 88
163 146 109 100 71 51 79 112 83 74 100 134 102 104 77 73 44 -49 -3 125 279 327 307 279 229 217 139 84 216 272 226 205 180 155 132 118 94 87 85 79 85 94 104 102
115 121 83 83 47 62 59 76 48 105 91 135 107 84 53 33 61 94 186 228 263 266 279 281 190 193 217 207 226 236 197 174 145 123 109 98 88 81 66 81 97 102 103 89
85 104 86 120 85 53 98 102 112 118 124 102 87 70 63 67 92 147 180 158 173 298 333 298 253 234 229 259 233 188 164 138 129 116 101 87 80 80 80 92 112 108 105 102
92 91 80 78 73 103 158 134 122 104 90 68 60 44 46 58 79 103 145 228 268 310 334 303 260 229 246 228 186 160 146 130 116 102 87 83 91 102 91 110 116 116 97 98
101 65 91 113 130 160 83 103 74 35 17 -12 -11 47 81 80 92 153 191 230 268 287 261 210 229 217 196 168 141 131 124 117 109 105 101 104 104 90 118 117 108 111 102 95
70 91 95 84 81 112 135 97 18 5 32 59 87 82 80 98 111 148 179 193 211 195 187 204 177 160 149 138 130 125 123 117 114 114 109 112 127 128 124 113 116 102 103 93
94 86 94 57 65 112 116 113 98 115 113 75 84 123 155 141 123 161 178 206 203 204 202 180 155 140 124 120 111 122 122 117 121 125 139 152 149 132 126 124 124 79 75 86

GFSCGP_con_3kmhel_009.txt.gz
Helicity
235 229 183 127 56 132 73 69 84 69 76 -1 30 34 33 3 -6 113 116 133 136 151 141 143 129 130 120 124 106 93 102 77 61 130 157 155 164 148 129 133 135 136 133 130
229 92 71 79 128 89 85 70 61 75 60 4 13 13 27 16 55 87 118 127 112 118 143 151 143 144 146 127 126 120 105 98 45 11 8 32 26 50 49 42 43 70 84 90
162 137 142 107 71 70 63 46 45 50 83 14 16 -6 67 86 105 102 104 110 115 113 120 132 134 138 124 136 122 107 96 81 66 28 21 45 63 84 102 96 102 104 96 96
162 163 145 125 106 112 78 44 46 52 46 26 36 8 28 84 113 90 107 97 100 97 96 103 116 123 120 96 67 60 76 93 101 101 110 129 117 113 99 84 92 145 157 156
217 169 74 112 123 123 18 25 43 44 48 31 52 47 -1 91 77 72 75 66 78 77 74 93 95 87 70 61 61 68 91 110 95 122 124 131 146 135 125 140 156 158 154 137
200 152 101 109 56 67 64 123 131 88 50 15 67 109 25 88 106 122 90 58 71 72 86 87 83 69 72 81 98 84 80 103 125 138 150 141 142 138 140 139 130 117 108 106
221 153 123 176 143 122 123 153 126 89 98 36 55 95 49 20 71 144 140 80 69 87 79 65 66 75 101 105 84 77 97 126 118 119 112 107 107 106 95 80 61 66 62 63
239 232 83 165 149 132 155 118 109 53 52 25 117 68 44 49 32 84 171 134 111 83 66 76 79 100 108 98 106 114 105 111 109 91 94 101 105 80 75 77 67 81 83 80
310 213 264 203 211 174 190 152 87 88 84 72 87 70 52 56 79 113 198 177 102 66 85 94 99 137 120 139 141 125 112 105 106 102 92 96 91 94 85 87 81 77 70 77
265 317 295 268 217 240 142 139 158 162 91 63 102 69 56 65 58 80 169 141 68 88 118 114 146 151 170 175 168 158 123 106 94 96 100 97 105 94 78 64 75 81 83 82
176 198 290 204 172 180 239 180 206 124 111 82 83 63 35 45 43 76 116 69 60 107 107 140 186 225 220 206 187 162 139 120 118 120 107 103 94 90 76 66 64 86 91 94
197 104 242 241 170 149 152 118 151 142 104 109 68 28 39 37 29 90 55 67 110 99 123 183 238 251 244 224 205 171 146 136 132 118 106 93 75 80 96 101 101 109 98 93
162 138 187 210 183 171 131 128 127 136 106 41 60 39 54 62 65 55 94 122 101 124 208 298 302 273 238 219 202 162 143 136 125 112 92 88 103 101 105 107 113 109 104 91
111 106 104 157 114 131 141 124 121 126 81 66 78 73 62 94 104 105 125 118 143 202 242 290 298 246 235 230 196 178 179 173 158 123 117 134 128 139 131 110 114 111 95 79
82 68 83 143 103 122 102 156 162 153 151 108 54 69 87 93 104 118 122 147 140 190 258 246 235 229 243 201 193 216 225 198 123 115 113 106 137 118 99 104 105 95 87 84
102 78 110 131 143 88 89 89 102 121 102 79 76 56 41 130 161 162 129 119 126 183 194 204 221 240 204 237 241 228 186 146 130 117 99 168 136 113 123 131 129 115 98 84
93 75 91 87 99 97 79 48 83 103 100 94 86 76 170 157 128 153 133 88 76 108 175 222 235 219 244 254 236 202 182 126 113 84 153 152 137 138 138 127 112 98 79 60
93 109 107 64 100 70 61 98 89 114 152 167 198 175 145 99 113 87 62 21 1 68 141 202 208 255 286 248 255 191 118 111 90 135 162 142 147 142 129 113 96 86 78 82
169 138 93 71 108 83 79 82 120 114 174 203 162 167 135 89 96 75 42 -6 -33 70 162 197 258 287 287 283 208 91 69 122 164 163 141 138 145 138 127 119 105 93 95 89
97 91 66 47 43 20 32 171 202 158 126 173 162 128 92 53 81 -7 -24 9 88 185 224 250 266 275 247 162 102 67 111 185 175 140 130 131 136 133 124 113 103 94 95 95
160 153 122 126 70 83 80 108 139 127 82 119 104 68 32 15 -22 1 45 96 147 186 225 258 255 252 208 152 124 156 191 187 140 132 126 126 119 125 113 113 102 104 108 105
70 96 85 132 89 38 117 151 112 96 102 85 64 41 50 44 47 54 71 122 156 209 251 259 246 229 213 163 157 196 194 143 132 125 123 121 120 113 98 104 123 124 125 122
89 106 99 90 89 95 108 91 107 81 68 53 54 25 12 15 19 37 63 115 154 196 232 239 237 206 159 180 200 188 151 139 121 120 119 122 115 109 108 147 144 139 118 121
108 111 117 119 100 112 110 149 125 90 58 28 15 11 44 55 72 76 121 149 188 210 211 206 191 195 212 188 176 141 120 119 122 122 119 114 124 115 152 162 143 144 143 132
95 106 125 121 117 131 121 123 90 57 52 48 69 83 96 125 134 129 132 158 192 214 214 213 217 201 174 146 127 133 136 131 125 124 128 134 151 161 163 157 155 145 144 126
125 114 129 76 86 132 108 94 73 52 59 87 99 128 157 143 129 143 157 178 204 204 214 208 192 172 148 133 128 139 129 125 136 145 150 158 160 164 161 166 167 111 86 65

GFSCGP_con_3kmhel_012.txt.gz
Helicity
146 235 187 146 121 121 78 85 50 90 71 6 28 15 86 57 9 22 50 82 123 151 132 137 154 146 121 112 95 114 124 111 49 48 48 36 16 20 19 18 20 33 52 66
174 153 71 146 158 125 106 89 68 58 82 -27 16 8 54 26 3 30 76 105 110 113 152 174 152 149 131 109 119 130 120 98 44 5 7 19 33 60 73 95 124 125 112 112
219 103 144 141 158 99 91 57 70 67 36 -23 -26 -56 31 52 79 92 126 133 106 99 109 108 129 127 125 144 118 91 74 77 72 50 26 50 81 123 145 152 147 143 114 115
197 154 158 120 109 120 50 7 63 90 43 -3 6 -38 19 39 78 111 126 111 91 83 70 86 96 121 107 74 52 56 67 61 60 50 62 84 69 66 47 43 47 73 82 84
224 85 101 90 69 83 2 -5 12 62 26 -6 2 19 -14 48 77 66 91 89 58 61 61 69 93 87 68 52 50 46 60 77 67 86 67 49 59 29 37 60 77 81 80 73
152 97 121 119 97 114 54 65 96 81 52 8 5 71 24 39 102 121 99 80 50 64 65 87 92 74 72 63 69 53 64 77 93 98 92 80 82 75 77 79 64 51 39 35
166 119 128 102 145 138 128 94 90 91 90 30 35 44 67 13 29 88 134 87 56 54 61 77 78 84 80 78 62 63 71 85 72 79 92 87 74 75 74 67 62 60 45 29
231 103 134 132 113 103 104 104 120 89 62 30 42 28 15 34 32 30 104 139 91 55 58 66 84 86 80 82 87 92 94 98 90 80 75 74 84 61 63 67 53 41 39 35
170 170 157 137 163 116 111 72 48 83 74 20 26 41 35 45 53 74 139 182 95 68 68 87 103 95 95 126 128 114 102 97 86 70 63 75 75 77 65 55 40 51 63 75
227 165 170 194 164 151 96 139 146 152 63 35 40 37 33 45 61 55 84 146 111 101 92 111 118 124 152 162 154 155 132 111 94 91 89 81 78 76 72 71 84 81 82 96
182 225 244 156 173 201 244 222 210 141 129 75 54 43 12 35 47 43 47 90 97 88 85 119 147 170 191 197 196 172 152 134 126 104 94 106 111 87 62 68 78 110 115 95
202 140 223 232 213 190 164 160 190 161 147 124 64 27 -2 7 10 47 112 106 78 72 98 154 179 217 227 233 214 192 168 151 129 128 149 115 79 74 82 85 85 81 65 71
160 136 247 213 189 246 215 209 207 173 144 86 77 64 35 43 58 52 89 88 90 124 182 206 237 260 257 223 233 206 187 170 164 153 126 107 92 80 67 85 119 105 92 89
153 113 123 161 128 212 166 178 205 212 127 107 103 74 54 69 69 58 75 98 132 174 215 219 276 275 248 244 249 224 207 198 178 158 137 102 71 50 77 102 97 81 81 71
127 69 107 130 110 184 176 169 204 185 158 128 59 80 96 113 108 123 147 164 174 157 195 239 261 263 254 264 255 248 255 238 177 143 111 73 86 105 104 86 80 80 81 90
148 103 146 143 139 116 117 124 160 210 217 183 148 123 122 124 132 190 228 203 136 128 151 205 258 250 259 265 267 265 235 183 112 70 54 91 127 109 83 78 91 97 98 86
84 102 98 100 91 103 99 57 139 164 188 169 160 112 135 178 186 203 202 158 138 107 135 195 221 236 256 263 252 243 180 88 33 47 26 92 111 92 88 95 100 96 86 77
56 94 100 55 106 94 52 74 92 162 125 137 155 176 195 217 216 190 134 144 110 87 120 186 233 268 258 247 232 163 106 78 76 -1 62 94 109 109 102 97 90 91 91 107
122 117 96 79 84 70 72 68 99 138 130 198 245 253 243 196 171 166 119 84 44 42 117 192 222 237 250 219 182 166 139 112 80 94 106 119 113 105 98 102 108 114 120 124
160 136 104 78 64 24 61 116 141 154 110 163 199 192 157 152 138 71 74 42 69 122 172 213 244 241 227 206 171 152 144 124 109 120 118 111 103 105 121 118 111 130 132 126
135 162 119 113 78 94 69 122 147 131 80 204 191 158 122 85 50 41 43 58 87 108 158 198 219 216 193 178 161 158 119 120 123 111 106 111 121 122 111 127 134 129 131 131
80 111 98 145 105 50 177 213 141 118 151 140 119 88 67 33 18 19 21 56 93 132 165 196 217 205 194 183 170 138 142 125 111 112 115 118 122 116 118 125 127 137 146 149
81 102 85 98 90 134 104 126 149 113 96 77 68 50 45 31 39 69 77 81 97 130 181 202 217 210 175 165 169 158 135 124 118 120 126 128 117 122 113 123 129 150 148 170
89 108 114 123 117 144 166 173 137 110 97 81 72 45 36 55 78 85 98 108 130 152 171 198 195 185 184 181 154 140 132 129 134 127 126 127 127 99 128 134 149 174 179 187
95 115 126 150 141 155 130 139 121 123 109 99 87 73 78 85 101 113 112 120 133 145 182 209 204 187 164 154 162 153 142 141 139 135 128 117 116 119 128 143 163 167 175 144
98 122 160 99 95 142 99 130 139 135 104 95 80 86 105 110 111 124 131 132 149 168 187 185 179 176 167 156 144 150 149 142 131 122 109 106 116 134 137 155 166 112 75 61

GFSCGP_con_3kmhel_015.txt.gz
Helicity
77 158 176 127 150 117 113 74 58 83 92 51 41 -20 90 62 30 62 56 76 100 127 110 111 127 154 155 175 155 148 125 84 33 41 58 93 117 110 132 130 142 134 121 113
164 124 138 105 143 141 103 79 84 95 62 42 29 -19 46 25 9 34 50 70 90 136 142 166 173 175 176 131 118 133 120 79 49 29 15 31 59 106 111 130 153 148 143 134
131 119 80 107 139 122 112 112 92 105 98 20 -31 -62 15 25 68 71 83 94 117 137 136 125 161 175 133 138 129 101 88 79 59 14 14 39 67 102 127 136 116 119 107 101
181 156 105 103 107 115 73 53 52 83 87 34 18 -30 26 50 31 51 108 124 151 141 118 104 121 119 104 83 67 73 82 76 81 79 109 141 116 111 84 80 77 80 87 80
145 65 139 93 90 96 69 34 51 82 74 21 38 31 45 82 73 57 83 81 96 103 98 97 92 80 69 59 67 59 71 80 84 108 91 74 75 47 49 61 81 84 75 70
125 83 116 118 101 132 66 122 87 47 60 12 22 47 84 26 11 68 85 54 64 91 96 85 74 69 78 80 82 63 75 78 93 104 94 86 75 71 76 85 78 65 42 19
178 130 129 212 172 230 154 147 170 134 95 41 51 50 54 37 -3 7 83 55 62 78 93 83 74 72 84 98 75 73 96 110 105 109 102 89 84 91 88 74 66 70 46 24
151 300 96 94 130 136 178 175 129 109 91 63 46 48 44 25 46 18 52 114 100 82 85 79 76 86 100 96 96 109 117 121 125 116 110 105 106 74 69 73 56 43 41 36
117 269 161 91 123 72 130 153 130 98 72 73 52 47 30 18 36 55 64 135 104 88 94 88 92 103 118 118 129 145 168 161 139 123 112 112 97 93 69 60 54 50 49 56
156 173 156 116 174 203 102 147 141 143 76 81 54 50 48 49 41 43 68 85 91 116 114 111 119 137 148 153 168 216 213 185 148 137 116 102 104 92 66 59 76 85 100 111
145 161 246 186 161 145 159 152 137 125 98 69 62 44 42 112 112 19 30 64 89 96 99 123 148 163 187 203 225 243 230 195 173 156 144 140 121 96 73 83 99 99 111 109
171 129 156 198 149 115 146 127 112 136 120 107 77 64 -16 -19 -7 -10 31 67 72 90 121 146 174 199 223 251 256 244 230 210 178 158 140 129 116 106 109 94 113 128 101 83
139 156 218 159 156 184 143 194 173 144 136 100 91 59 50 40 29 10 2 35 99 148 163 191 234 243 232 277 248 235 235 215 170 146 146 137 114 115 121 107 104 101 101 89
117 96 97 149 113 195 174 203 209 194 152 125 127 88 98 65 24 40 48 87 128 136 190 239 255 250 272 244 234 234 225 194 159 154 144 110 102 94 80 86 115 105 83 67
107 104 94 125 133 151 233 259 235 226 169 140 96 120 75 64 67 102 134 132 149 180 210 220 251 250 249 261 250 232 222 191 158 152 115 96 32 25 105 126 101 81 73 62
47 21 67 103 103 105 133 162 193 166 192 183 160 102 88 137 172 164 138 137 158 176 170 174 206 232 250 250 243 239 223 198 160 133 127 15 -6 102 113 101 86 73 61 59
66 62 100 78 99 92 88 84 145 148 180 144 184 104 164 187 184 189 198 205 192 173 125 150 183 220 259 250 245 239 207 164 143 126 97 83 47 108 104 89 80 82 69 59
107 112 105 99 124 87 48 79 106 170 122 204 179 135 165 215 261 263 258 225 219 138 127 156 212 255 263 260 244 210 178 161 123 104 98 65 109 131 108 93 83 75 67 62
84 123 74 83 103 47 38 40 81 126 94 109 160 208 260 287 285 281 233 164 119 105 91 143 207 250 259 241 215 194 173 114 108 105 100 126 128 106 99 92 79 65 67 80
147 147 59 85 87 81 25 50 69 79 81 118 197 233 264 243 194 144 142 109 95 95 135 193 229 251 249 226 198 176 142 128 118 123 124 111 99 96 87 77 68 68 80 89
63 114 83 99 74 56 56 78 97 109 33 203 217 204 194 190 150 138 95 87 101 130 170 193 213 217 211 191 173 168 138 142 130 120 105 98 92 89 76 76 70 83 93 99
107 97 90 129 89 21 125 168 134 100 185 199 196 170 150 127 110 88 73 78 102 130 159 180 208 212 203 185 174 151 153 144 119 98 94 98 99 94 92 79 86 94 96 100
69 91 73 94 88 109 119 129 150 106 142 135 141 108 97 83 59 40 44 63 84 102 132 159 190 207 195 192 179 166 142 109 99 107 109 104 95 93 75 84 92 106 101 112
77 93 94 103 105 121 150 217 194 164 149 132 118 102 91 77 68 71 74 75 85 116 151 171 181 189 188 186 164 132 107 104 112 104 100 99 87 73 90 108 106 113 114 113
72 94 100 124 140 190 188 198 194 200 175 161 137 104 79 76 74 82 84 91 115 135 159 182 194 190 177 144 130 122 120 117 109 105 101 88 87 89 99 103 101 103 94 93
76 72 88 48 80 175 151 203 189 175 143 114 90 84 89 85 84 102 109 113 138 169 186 188 174 150 130 128 135 125 109 109 114 104 89 85 90 107 108 112 116 74 51 38

GFSCGP_con_3kmhel_018.txt.gz
Helicity
89 168 118 127 103 128 66 46 43 37 56 84 52 44 41 77 49 29 31 57 62 82 108 122 135 130 144 186 205 157 120 84 55 64 93 108 117 131 146 152 166 164 152 146
127 106 156 43 94 84 76 50 42 70 60 64 73 31 44 77 45 38 39 59 73 103 131 155 167 174 200 206 178 151 121 99 75 63 85 102 125 156 156 153 162 154 145 133
109 34 141 82 54 88 93 58 45 75 57 35 47 44 32 36 53 73 78 85 103 114 137 150 171 197 184 176 136 113 93 76 61 49 46 60 84 105 118 119 107 112 108 102
129 167 46 125 66 64 65 98 72 79 112 68 84 34 39 57 53 42 71 105 150 162 162 162 177 189 165 139 107 94 83 75 70 61 71 97 99 107 100 93 83 74 84 85
145 143 130 68 42 36 98 59 64 90 106 58 34 38 67 105 64 43 76 105 144 160 147 159 163 152 129 101 89 77 81 90 88 107 115 109 109 84 73 69 80 81 76 78
58 127 106 35 57 43 64 87 91 95 91 55 46 50 99 114 89 54 70 95 114 115 122 140 138 109 111 94 92 83 86 89 105 125 134 119 98 88 78 82 74 65 55 44
9 55 200 91 96 102 75 94 163 101 101 86 59 56 54 40 32 24 35 42 60 82 95 102 102 107 110 110 107 99 95 104 115 136 126 105 93 92 93 78 79 75 58 50
160 105 186 66 102 198 126 118 205 125 104 50 84 76 92 82 64 30 14 56 88 83 70 80 95 111 114 123 120 110 118 125 142 147 132 115 110 94 87 97 81 57 55 76
172 204 247 260 179 145 229 158 149 147 124 91 89 94 42 35 40 37 39 104 102 89 71 90 110 118 127 139 149 144 146 158 179 164 137 133 122 116 105 98 74 64 90 92
33 295 115 213 257 325 187 142 164 163 105 121 113 106 100 68 98 50 45 60 88 98 95 104 117 131 146 168 175 158 164 206 210 178 157 136 131 123 111 100 103 106 110 112
158 234 174 103 218 192 159 183 156 146 102 116 133 86 70 114 95 65 22 47 96 105 105 110 123 144 169 180 176 173 185 217 210 189 164 148 138 124 112 116 124 123 131 126
104 167 167 130 107 33 79 59 72 93 76 127 140 75 40 82 39 17 10 49 84 102 113 120 148 172 180 186 184 189 207 224 214 200 183 169 128 99 100 110 133 139 133 115
140 120 125 111 92 129 98 64 40 61 104 51 75 61 100 92 114 78 51 21 71 132 166 169 171 175 194 200 200 211 240 238 224 207 181 149 120 98 94 100 134 132 116 93
181 127 80 92 96 89 98 50 55 48 52 63 69 65 53 51 39 30 22 49 111 151 155 163 178 189 206 205 221 256 268 254 230 194 167 136 115 87 51 82 115 98 87 82
197 146 72 91 73 -29 23 108 89 103 69 89 29 34 8 44 45 30 49 102 139 157 148 153 184 198 199 232 262 280 280 250 201 167 139 125 99 87 63 105 100 94 91 79
95 110 98 74 82 68 65 44 57 66 66 56 52 17 82 107 114 86 84 126 121 118 143 177 190 183 215 237 264 277 268 221 168 157 143 115 94 80 108 104 100 84 75 71
31 62 103 97 80 76 46 45 64 61 58 66 53 -10 69 112 119 115 138 144 133 146 164 165 165 180 213 245 275 272 231 190 170 156 116 95 94 118 104 92 85 94 90 76
22 33 54 54 62 43 62 74 26 63 53 74 47 75 59 76 167 237 256 235 227 218 170 159 159 198 241 277 269 254 220 196 157 101 95 104 111 109 101 101 99 100 95 84
111 101 51 76 28 54 45 43 63 94 12 23 9 91 128 218 285 304 300 271 235 190 152 124 150 209 245 244 244 233 215 189 107 121 127 114 109 112 102 104 105 92 103 90
80 86 128 99 88 48 54 36 36 41 43 45 128 170 212 224 162 215 232 216 178 130 113 131 186 206 220 234 222 214 203 150 134 124 121 115 106 94 105 100 94 97 91 85
97 77 48 73 24 57 38 46 57 62 50 70 111 168 228 211 218 199 141 118 110 101 113 153 159 183 213 218 216 222 174 149 131 122 118 103 100 102 87 90 93 87 86 95
104 94 72 55 31 17 64 113 86 93 106 98 137 191 229 209 171 135 112 98 84 104 120 127 170 207 220 211 200 182 151 141 121 120 112 107 98 100 99 99 95 92 90 96
92 64 68 42 53 70 81 96 112 89 133 139 178 161 141 129 103 91 83 82 91 100 124 154 188 225 218 200 171 156 153 128 129 124 115 100 94 99 93 93 85 95 103 111
74 106 80 78 81 82 79 114 138 142 187 183 153 126 96 91 82 86 84 80 91 114 144 169 199 202 188 175 167 142 145 135 125 107 94 99 98 96 89 100 106 106 98 98
100 109 107 104 90 95 81 129 202 233 213 194 159 131 110 87 75 70 74 82 98 126 160 169 156 147 173 166 151 147 143 125 98 90 96 93 95 89 92 100 110 107 90 98
61 77 71 50 53 86 114 212 232 239 202 160 149 134 121 92 82 83 89 100 120 137 150 153 166 167 173 166 164 140 114 95 94 96 104 105 96 100 109 105 106 93 77 71

GFSCGP_con_3kmhel_021.txt.gz
Helicity
123 224 147 70 127 90 77 100 68 49 13 51 45 18 51 32 34 44 35 40 72 93 87 94 115 129 143 158 167 159 126 81 64 74 108 127 132 136 154 168 184 176 175 184
125 179 101 39 131 97 150 74 50 63 70 43 57 42 49 46 43 38 38 53 88 138 96 120 134 158 184 194 198 187 156 108 96 93 111 119 131 152 159 163 167 157 153 149
89 74 60 61 88 81 130 56 112 99 40 58 78 49 42 33 28 57 62 66 118 118 122 141 170 197 214 240 223 176 138 118 101 85 85 101 112 114 134 135 124 129 131 132
6 -16 123 44 19 90 96 108 140 91 137 74 16 40 39 41 84 75 77 128 194 169 156 179 197 209 219 222 176 138 120 108 95 89 106 115 106 117 111 103 99 87 90 86
-113 -208 102 7 -41 72 176 119 119 103 90 153 72 56 68 42 48 61 77 101 176 171 193 189 192 208 220 193 155 125 119 114 101 90 82 89 106 96 79 62 60 61 61 71
-48 -6 107 -86 -4 44 120 135 130 140 135 81 69 33 120 42 56 87 84 124 180 180 198 201 187 200 210 160 127 114 115 117 103 101 114 124 120 95 76 79 76 62 61 56
-60 82 8 -6 5 21 108 127 289 213 145 105 79 51 56 62 80 79 45 93 125 151 153 153 160 180 163 135 126 120 125 128 110 117 135 145 127 110 106 90 75 76 76 66
58 -92 -12 23 76 169 94 234 247 194 145 85 60 60 85 99 76 54 44 52 90 95 90 98 129 143 134 129 132 133 131 128 125 132 158 164 140 121 107 100 92 98 93 77
-17 14 104 122 114 159 153 115 148 268 226 117 29 66 29 73 86 62 51 78 99 86 82 102 128 122 129 135 147 148 146 147 150 163 186 179 162 151 125 117 109 101 98 96
-18 55 209 237 182 224 189 135 161 227 115 136 51 60 84 51 77 49 38 79 97 97 105 121 118 126 140 149 161 160 158 164 179 196 211 191 176 162 137 127 111 98 101 126
68 69 335 541 233 184 199 152 223 208 225 157 66 98 147 117 77 33 25 67 90 118 126 120 119 137 144 148 156 173 180 188 205 222 223 202 188 158 136 130 103 88 86 122
65 103 231 332 285 144 155 127 128 130 150 243 265 106 80 91 75 36 37 38 87 111 111 112 135 147 142 148 168 177 194 212 237 244 216 203 175 155 138 102 78 64 104 130
49 168 195 336 253 228 78 93 72 133 128 89 109 61 64 54 72 36 31 54 85 99 121 140 174 153 146 161 177 195 221 247 254 233 216 199 183 151 124 98 76 94 128 129
118 224 146 101 52 82 140 35 42 48 72 81 55 74 62 69 70 28 3 13 49 82 153 173 164 147 159 175 196 230 250 258 249 242 231 215 185 149 107 75 81 114 123 115
125 168 142 169 115 7 21 13 17 34 33 45 24 60 64 41 26 50 29 30 71 117 146 158 152 163 181 207 227 243 265 254 255 252 231 199 144 102 78 85 102 112 108 100
88 131 103 54 69 59 36 14 2 28 25 19 19 44 103 155 133 95 49 61 83 103 149 133 136 179 204 216 226 258 253 267 257 244 207 145 99 76 82 98 115 115 104 83
75 140 95 55 40 61 52 32 35 19 -18 10 31 2 47 122 90 61 73 73 89 109 118 126 158 189 209 210 218 227 267 274 260 219 165 108 76 85 109 123 116 93 81 83
42 50 108 120 81 44 82 73 8 23 33 27 -1 27 106 83 70 142 151 110 141 155 147 160 196 200 213 224 229 286 280 262 228 184 122 69 83 113 128 108 93 93 101 101
107 95 87 91 58 109 54 26 58 61 29 -0 7 32 101 222 231 195 277 291 244 220 204 193 183 193 207 218 259 260 251 230 195 167 87 88 117 124 112 99 101 95 109 112
199 97 59 41 47 51 58 26 31 35 62 38 24 47 181 179 117 142 225 222 233 224 188 171 169 178 193 234 224 232 237 210 203 116 93 112 119 111 100 98 94 104 110 125
174 113 62 32 56 45 13 26 35 55 64 39 55 117 155 93 201 249 210 224 191 165 145 142 149 174 215 200 217 232 216 202 126 99 119 124 100 103 97 94 101 117 121 118
176 156 93 61 74 4 33 54 75 57 47 27 64 94 189 226 227 228 195 159 128 124 128 136 175 182 182 197 208 223 190 138 113 132 129 114 97 96 99 109 116 114 110 115
97 85 92 47 37 60 50 101 84 52 50 61 118 138 165 178 173 152 134 112 99 103 126 123 145 172 185 184 178 175 178 139 134 127 111 99 96 100 110 115 112 117 113 121
84 133 103 71 29 51 48 68 60 88 94 104 125 136 130 143 119 112 96 96 105 100 104 120 146 169 186 166 163 182 158 127 123 111 108 109 109 105 95 119 121 126 140 153
100 80 75 81 44 48 48 65 97 147 175 196 178 143 126 123 125 120 112 92 84 95 117 132 165 174 181 177 177 147 128 120 113 117 117 108 107 101 96 111 127 135 125 155
62 62 90 44 46 58 53 123 161 214 226 205 203 200 163 128 122 108 91 89 100 119 134 163 188 198 189 156 143 125 115 115 127 124 116 108 108 104 119 132 141 109 100 102

GFSCGP_con_3kmhel_024.txt.gz
Helicity
116 206 195 132 133 78 132 172 106 102 115 87 56 13 43 41 46 56 38 81 110 235 193 91 89 111 146 155 117 106 116 115 129 137 227 242 222 208 218 202 205 204 210 186
155 165 118 116 92 101 118 139 111 83 78 29 -1 37 34 55 49 33 77 76 124 321 185 97 92 126 157 188 224 256 258 225 223 213 195 167 152 162 165 175 173 160 168 159
178 165 112 113 123 146 103 102 96 94 13 96 84 66 56 30 33 60 110 68 195 334 231 150 189 200 219 246 243 241 232 216 207 198 175 131 111 117 121 118 117 105 92 93
120 62 92 99 115 165 107 39 17 -29 46 177 107 35 3 103 20 13 82 111 250 348 299 215 208 230 249 258 254 231 183 134 98 74 61 93 102 111 92 82 58 55 59 66
189 140 98 114 120 104 90 34 -3 -1 44 128 99 62 37 73 44 57 138 137 264 370 342 289 241 247 261 269 260 234 220 206 174 159 137 120 114 110 101 90 89 70 52 42
43 65 66 36 27 59 49 -77 31 151 136 139 128 56 24 103 105 141 130 171 335 378 376 347 305 280 274 259 236 202 200 197 189 182 167 152 147 141 130 106 78 65 54 50
-68 -38 2 41 2 -95 -61 -188 -25 223 294 129 75 89 38 113 235 133 165 260 332 393 407 350 276 251 238 232 202 171 171 177 165 165 165 161 157 158 141 115 94 82 60 48
-91 -37 1 -21 -53 -73 -116 -224 222 295 218 255 172 98 79 117 152 147 172 260 341 356 333 228 209 218 218 197 173 167 168 168 161 160 164 171 174 160 140 126 100 82 69 57
-33 64 -38 -117 44 -21 -76 -65 120 200 116 259 175 127 142 126 151 117 150 227 239 246 222 158 171 194 200 190 171 170 174 175 170 167 172 187 193 189 158 142 115 90 78 73
-34 84 -36 -2 34 -62 6 35 271 284 143 144 98 79 67 93 89 105 148 192 200 201 165 148 179 197 192 188 181 175 173 180 186 196 199 208 202 187 161 138 116 96 80 78
-6 110 42 -20 27 49 94 36 284 259 289 176 186 185 84 78 74 51 113 177 185 185 167 200 200 195 217 209 192 209 201 201 212 220 228 228 212 183 155 139 115 96 76 77
112 -1 58 58 98 49 151 104 227 282 222 206 174 173 126 97 81 53 43 165 168 184 188 218 224 250 231 197 205 189 190 221 229 233 236 232 209 186 166 143 111 90 86 87
48 17 55 125 190 72 175 176 186 271 185 215 230 120 90 91 68 43 53 149 179 208 220 211 246 238 198 193 197 205 230 237 244 252 239 233 212 189 161 129 106 97 96 94
-31 25 52 229 206 115 39 55 111 210 171 212 196 98 56 74 55 42 20 70 173 208 222 223 266 227 198 206 221 240 266 256 266 267 260 238 205 173 138 120 101 95 88 91
5 70 -10 310 -88 89 73 16 60 67 81 115 146 51 33 42 25 18 2 71 151 171 198 245 271 210 226 237 248 282 281 258 256 262 251 225 193 155 121 92 91 84 88 87
65 164 102 66 120 60 56 46 52 34 55 68 87 75 95 89 94 42 36 61 134 153 231 263 236 198 241 251 278 318 290 270 266 255 242 209 162 120 85 82 75 77 78 89
29 75 123 80 38 64 42 -2 5 30 26 34 32 -6 70 133 176 119 101 90 173 190 210 227 211 220 246 278 330 310 274 254 265 258 215 169 134 75 74 72 77 81 87 95
57 80 125 87 63 32 30 46 25 35 49 38 29 40 96 113 275 387 254 157 153 181 224 235 238 274 325 356 316 317 265 266 251 210 182 162 76 72 74 83 81 83 97 106
12 40 68 76 46 61 43 32 52 64 84 39 38 62 200 299 379 364 383 334 334 368 327 287 325 360 387 367 353 308 275 241 200 189 174 116 74 79 84 77 82 93 108 111
97 68 91 96 74 56 65 44 40 62 67 67 35 129 252 320 247 169 247 361 406 391 354 347 344 348 341 292 267 256 213 189 185 184 135 75 74 79 72 87 99 104 106 121
119 135 90 66 65 54 6 15 58 65 57 60 85 184 258 277 133 219 273 300 282 272 271 261 248 238 220 208 216 212 187 190 177 138 86 78 71 73 85 96 93 102 111 125
161 126 121 76 22 36 37 18 45 24 24 33 119 204 332 284 284 301 259 232 213 200 179 172 212 200 197 190 200 179 194 165 135 98 81 71 85 92 88 81 101 103 116 125
78 99 98 70 24 45 83 30 46 39 29 88 136 155 211 227 208 197 192 179 138 122 134 154 167 180 174 168 159 182 160 144 110 84 97 112 107 81 77 95 102 117 116 123
55 53 113 81 56 65 40 63 65 68 100 115 125 145 168 191 167 171 150 128 114 102 111 132 153 153 161 164 188 165 137 106 107 121 128 103 81 82 97 103 107 122 120 126
81 101 58 97 86 82 47 52 111 168 176 175 174 168 168 170 140 119 104 99 94 90 98 112 124 133 129 130 139 125 116 125 142 133 98 81 95 101 99 102 111 111 110 107
75 59 102 93 51 48 29 67 151 172 187 211 247 230 179 142 139 125 112 103 94 98 96 120 124 167 149 133 125 132 134 137 128 101 89 96 103 101 105 118 125 91 72 63

GFSCGP_con_3kmhel_027.txt.gz
Helicity
186 257 290 170 151 148 143 128 129 79 68 80 89 87 38 38 60 69 83 110 105 224 216 170 135 133 138 119 110 130 172 226 362 423 434 433 339 322 292 238 225 217 188 184
194 175 156 132 100 122 99 89 61 65 65 71 79 102 50 59 71 43 51 48 170 319 249 190 155 185 193 145 136 164 218 276 294 284 260 243 236 229 211 181 180 159 154 131
172 195 106 126 112 125 110 111 60 74 93 44 32 62 79 104 50 80 86 94 164 323 313 245 225 236 229 221 217 219 228 268 254 218 220 216 220 188 163 143 131 119 114 100
146 96 116 138 108 122 129 91 82 63 93 51 88 65 55 69 63 104 90 90 216 348 362 366 312 297 251 239 236 248 266 261 211 170 162 125 99 107 97 101 92 98 90 79
268 157 89 108 91 127 117 99 91 72 66 37 51 90 -5 86 74 60 80 117 256 354 415 419 359 328 301 286 300 299 290 246 185 159 139 136 132 114 119 130 123 98 88 79
153 157 136 87 65 75 65 112 106 91 81 78 31 93 19 89 46 39 106 193 292 423 435 431 397 396 377 331 335 321 316 273 238 204 165 150 146 150 171 155 137 98 63 47
101 52 131 114 102 116 103 93 195 133 138 41 -12 12 47 109 102 78 200 258 396 416 456 464 432 411 369 316 309 297 296 277 253 241 204 180 178 185 171 152 119 97 68 47
27 -24 56 111 37 122 151 126 232 211 67 -231 -19 68 153 -10 143 193 271 330 433 461 464 391 340 364 320 282 283 285 270 252 235 227 215 197 194 182 166 150 124 100 81 59
-18 -81 -55 -13 120 101 71 55 15 58 42 113 159 104 117 175 189 261 291 346 367 437 389 327 285 276 263 249 249 245 238 220 209 206 213 210 197 183 166 158 132 107 90 71
20 77 12 -23 50 19 -51 -72 -116 -220 89 92 229 239 111 181 208 239 268 305 339 364 314 245 225 238 231 217 237 235 209 198 194 208 208 200 187 182 178 163 141 119 96 82
57 97 83 49 2 -47 -101 -172 -176 -179 -71 165 134 130 96 124 155 179 194 247 324 287 264 223 195 197 217 232 239 221 211 221 225 220 211 209 209 199 183 154 128 111 96 87
123 74 116 166 -26 -21 -24 -60 -23 -46 47 85 244 261 134 70 63 137 175 210 233 257 244 221 208 235 240 243 236 222 232 238 219 211 222 226 217 205 182 149 123 103 88 84
99 38 30 -16 -6 -36 18 -37 13 -19 185 258 176 179 129 110 57 103 181 182 215 246 242 237 240 243 243 241 235 240 246 238 221 230 232 231 224 198 160 127 103 96 91 92
53 58 90 19 55 117 52 8 133 111 178 221 105 164 101 61 59 75 109 172 218 244 253 260 255 246 231 231 237 258 259 245 238 237 238 236 205 163 134 104 92 92 93 86
8 102 162 168 75 9 79 57 110 110 304 249 89 72 3 -23 -28 -1 73 167 201 224 259 282 290 250 235 251 277 284 261 249 242 253 239 210 168 147 115 95 91 90 86 86
38 153 270 133 93 42 56 41 40 82 126 146 65 93 -15 11 60 35 56 107 159 213 258 291 293 246 239 271 295 279 249 236 249 235 215 183 165 142 93 74 86 93 90 77
29 88 79 191 151 84 78 24 17 23 21 58 63 101 131 105 39 21 49 55 129 206 284 294 275 248 261 286 297 275 247 242 229 219 197 178 155 109 79 91 98 89 75 76
2 9 54 58 59 32 99 34 49 39 61 31 19 95 46 147 221 162 86 133 139 197 269 287 277 277 304 321 308 295 258 230 222 196 177 156 126 104 98 96 85 74 78 84
-2 2 43 30 27 56 62 64 51 58 66 51 27 77 108 165 278 325 265 190 194 226 274 318 306 347 355 345 317 280 244 222 198 181 162 139 118 106 90 89 82 75 81 100
40 -11 -27 12 30 23 60 79 49 49 57 74 90 107 179 195 185 175 289 346 408 406 383 388 375 397 399 317 281 255 212 195 181 155 139 124 104 91 89 77 64 77 97 101
64 42 17 30 33 56 48 49 41 57 57 55 30 70 193 216 109 226 275 358 375 395 396 380 359 325 268 247 236 231 199 174 151 143 128 105 94 79 61 64 77 93 99 110
120 82 58 38 16 47 35 29 37 18 36 35 73 149 283 257 291 313 308 293 291 302 276 258 269 239 203 210 230 186 170 138 142 127 109 99 80 63 70 84 90 95 102 109
42 116 143 72 12 46 44 42 45 25 16 23 79 133 223 254 259 258 259 234 214 203 197 196 216 216 185 161 154 169 130 134 131 125 117 92 74 76 87 93 89 97 99 112
35 66 54 68 -13 38 53 58 61 41 51 69 93 110 142 196 188 211 197 172 145 123 131 146 176 176 163 138 146 144 130 131 126 115 95 85 95 102 94 85 89 97 108 116
48 79 33 47 52 71 74 36 63 104 119 142 123 115 133 168 137 125 116 109 103 105 112 112 105 114 133 147 156 136 128 116 116 104 98 107 100 89 82 89 86 96 90 103
58 52 70 32 56 49 53 46 109 135 118 123 159 158 139 129 128 113 96 74 87 95 78 92 97 111 113 138 138 119 109 111 112 123 116 97 88 86 92 94 93 84 85 64

GFSCGP_con_3kmhel_030.txt.gz
Helicity
199 275 261 197 176 165 156 154 122 144 172 155 135 40 25 26 12 60 43 64 69 80 161 158 156 152 164 164 166 167 235 319 420 486 526 514 462 319 293 263 227 217 189 169
235 216 185 114 110 145 139 117 77 89 69 120 117 70 54 33 26 57 62 40 102 156 189 174 182 170 158 150 170 206 253 271 334 412 420 397 387 321 259 243 254 214 184 160
177 163 69 155 119 156 135 130 110 91 57 27 95 56 39 14 46 55 34 35 104 182 205 220 238 201 192 176 175 191 198 232 286 331 381 369 331 278 269 250 224 185 159 134
154 102 136 92 126 135 161 113 93 87 104 120 191 75 78 44 46 76 37 51 88 174 246 297 306 265 238 216 214 211 219 235 243 234 237 232 226 218 161 156 144 162 142 120
209 160 120 110 119 105 112 92 110 109 88 101 111 152 -28 27 69 60 62 103 116 224 343 340 327 306 274 268 289 271 276 246 207 201 207 206 202 172 155 151 160 151 130 111
197 234 226 99 64 125 133 118 132 145 139 161 76 154 -31 51 76 30 67 127 169 256 351 450 449 416 373 335 357 304 292 258 225 209 191 190 181 162 161 136 141 126 115 104
133 144 190 157 135 112 91 141 195 195 238 186 32 110 27 80 22 41 76 143 230 360 467 482 454 411 386 363 392 335 320 285 248 234 216 187 165 157 153 132 127 133 111 87
132 73 175 140 176 153 103 115 258 257 236 94 64 133 8 -58 -48 91 11 39 360 535 516 468 449 437 414 394 417 362 345 307 273 253 238 209 191 180 171 160 154 140 110 90
131 112 109 113 143 126 133 117 61 145 167 154 90 51 1 48 -4 17 93 197 349 433 490 463 434 405 396 388 371 347 337 297 274 254 243 227 209 206 190 185 162 139 123 105
128 114 138 134 110 44 21 85 127 123 153 172 97 76 32 62 94 88 173 231 312 370 458 436 377 371 356 344 331 310 280 259 242 249 245 231 220 204 190 179 162 142 125 121
171 164 176 213 224 172 161 -34 103 129 136 108 83 -17 -52 44 106 127 153 204 289 347 390 351 322 316 318 307 279 282 284 279 260 256 252 240 212 203 191 177 151 136 128 134
218 15 223 469 228 151 185 -12 -34 -185 -204 -146 7 -40 32 7 137 176 177 191 255 334 319 288 269 270 260 243 250 250 263 257 231 241 247 226 212 199 187 174 147 128 139 139
58 75 179 83 32 24 21 35 12 -66 -281 -400 33 204 -40 96 153 164 291 245 266 281 255 235 238 224 218 219 232 251 250 242 237 248 238 228 208 191 185 157 142 144 140 125
137 56 97 33 -26 10 81 -33 -39 -111 -337 -59 93 51 102 124 107 146 182 215 212 207 224 213 202 197 198 215 252 261 256 243 237 240 237 212 197 187 169 155 139 128 120 134
128 116 162 219 146 19 102 44 12 140 -79 130 222 189 57 46 40 71 130 145 165 173 188 188 194 205 235 254 261 263 254 244 234 234 213 203 190 183 165 141 124 122 138 135
151 299 306 112 6 53 8 23 98 127 158 209 148 171 56 65 106 67 67 114 125 154 172 192 207 219 218 246 271 273 257 227 208 200 202 190 192 168 153 130 132 141 140 128
175 212 279 87 94 99 76 129 19 104 145 84 176 62 38 59 47 21 30 56 94 152 196 214 214 209 242 264 266 239 215 196 194 197 194 189 171 160 146 142 143 137 129 111
30 100 148 169 158 78 105 47 32 59 30 38 38 84 69 67 105 104 57 35 57 114 158 200 230 254 262 269 268 262 215 189 190 196 189 178 168 162 148 140 135 126 106 105
30 -4 34 71 73 68 130 72 53 42 61 55 32 56 95 148 160 126 91 67 140 204 218 246 261 303 301 291 272 240 196 189 197 186 185 173 161 149 139 145 147 103 103 105
5 6 -16 32 43 34 42 65 44 42 76 48 56 92 87 129 130 84 116 152 260 305 304 328 311 315 317 261 249 230 204 198 186 178 171 156 146 149 151 134 113 95 100 87
25 1 -20 -14 17 53 37 42 31 63 67 62 48 72 137 147 99 185 202 285 309 312 318 319 304 303 277 259 252 232 192 183 178 177 163 156 155 147 122 108 100 97 92 96
41 32 20 9 12 46 50 58 44 39 50 42 43 72 185 217 261 263 249 287 310 348 337 316 332 287 241 227 230 204 205 176 170 164 167 166 148 125 126 122 104 100 102 112
53 78 58 17 6 29 63 66 54 37 27 13 35 84 191 257 245 234 254 283 302 312 307 261 272 248 202 195 202 206 153 160 167 171 179 158 145 141 123 106 96 103 115 124
17 32 48 36 25 1 50 54 75 59 42 40 48 82 149 239 207 236 251 253 246 219 221 205 220 203 185 168 167 167 156 161 170 181 168 158 147 125 106 101 101 115 122 122
25 81 66 10 -39 -19 45 44 54 77 78 98 94 84 125 193 163 163 167 161 147 134 132 142 157 164 152 158 177 166 160 156 175 171 156 135 114 107 104 110 106 115 106 113
83 49 81 86 37 50 65 76 86 89 66 77 114 123 113 118 125 125 129 106 114 134 125 146 139 150 141 161 169 150 141 147 159 153 128 109 111 108 112 122 125 105 106 102

GFSCGP_con_3kmhel_033.txt.gz
Helicity
220 275 295 172 164 163 151 144 137 149 147 114 87 44 18 17 13 64 32 52 30 22 27 47 110 125 133 141 177 254 302 326 415 449 499 517 441 421 382 307 240 203 188 188
253 208 200 154 166 151 178 146 135 103 80 115 87 39 35 54 17 43 63 51 24 51 28 87 134 160 139 140 156 230 289 341 383 450 491 502 431 418 371 275 245 220 211 181
191 231 112 189 186 188 173 159 151 124 98 80 70 16 54 57 61 51 60 71 47 43 84 150 171 152 160 161 170 223 264 306 358 438 509 559 482 420 338 282 275 242 201 171
189 148 102 155 153 177 132 118 95 117 143 171 128 -24 4 81 108 88 82 86 59 105 116 157 232 207 177 161 187 225 237 247 278 315 376 349 329 314 254 241 224 216 186 159
217 151 127 129 160 105 179 65 95 92 142 139 142 177 -150 -52 92 58 87 117 97 79 118 166 213 214 206 207 221 243 231 227 225 256 280 308 333 312 269 235 228 200 176 154
120 170 197 192 118 132 195 120 97 90 127 215 170 200 -126 12 62 43 71 100 86 107 129 195 325 335 302 281 279 278 254 256 237 240 245 267 291 249 237 196 189 161 148 138
183 132 195 195 164 151 169 183 212 196 279 293 50 132 70 58 71 50 79 81 82 153 244 308 357 354 325 274 303 305 284 275 251 250 248 243 232 197 179 156 146 138 128 129
123 67 158 239 263 260 249 209 259 250 256 188 145 130 52 -43 -70 175 58 64 45 143 228 294 378 386 353 323 339 343 330 326 291 276 268 250 233 198 179 159 152 148 146 139
139 93 94 111 131 216 257 222 129 173 153 143 168 128 34 28 38 -2 95 68 133 166 213 284 433 432 389 374 354 359 388 358 321 297 283 258 228 204 183 179 172 157 149 140
29 -35 96 139 104 106 196 168 168 177 135 -63 87 60 -5 -46 60 54 -20 29 93 189 275 369 485 480 429 399 394 377 369 326 313 302 273 251 231 214 198 187 178 170 162 156
150 84 115 233 381 355 255 132 182 160 159 124 35 -17 -48 -36 8 27 67 131 171 194 325 454 495 429 412 405 375 381 374 337 317 291 276 271 242 218 208 202 181 168 164 165
92 70 141 246 399 269 273 141 156 106 169 137 -10 -180 -13 -37 41 34 115 125 161 224 291 377 367 357 355 367 358 358 342 314 285 280 273 254 231 224 220 197 177 160 170 163
74 54 36 85 79 104 114 205 161 103 -37 -38 -59 -46 -7 58 104 94 203 178 200 217 272 305 315 303 327 334 336 311 284 286 277 276 268 253 238 226 203 184 168 171 174 167
145 90 262 187 146 -6 99 137 228 128 -65 -76 -109 -86 -56 200 148 140 97 160 222 209 202 252 271 270 278 278 268 267 281 263 263 260 253 245 222 200 185 173 177 182 164 180
170 123 268 420 410 166 18 144 121 114 156 7 -100 -30 148 321 223 142 117 186 196 162 171 209 235 238 246 255 252 249 251 253 248 252 242 222 206 196 184 185 189 172 177 161
84 206 270 409 241 227 37 25 136 90 100 1 -92 152 161 150 126 139 135 126 116 117 157 185 206 228 221 219 234 251 250 233 225 228 222 207 200 189 188 193 181 181 168 154
73 126 215 252 19 27 79 93 302 142 124 305 275 346 312 193 132 138 79 74 81 99 154 181 191 193 202 222 252 236 215 214 222 217 202 193 184 191 194 186 190 170 153 146
89 170 158 177 67 62 61 288 269 362 286 433 457 213 268 195 90 74 71 82 75 107 134 153 185 209 221 233 235 244 221 208 209 206 194 183 190 199 191 190 170 156 149 134
160 59 75 54 60 17 14 45 34 51 3 49 177 202 69 71 82 73 68 59 103 144 171 192 206 230 239 237 231 246 222 208 200 182 180 189 193 190 179 176 174 147 128 120
21 52 20 7 24 -13 3 -34 -41 53 7 45 67 11 33 78 85 40 29 76 149 197 224 260 245 246 257 226 257 256 209 190 177 169 193 196 184 180 190 175 158 110 113 105
26 20 8 4 17 45 32 28 10 -2 2 27 13 -6 53 65 69 85 126 210 202 218 240 242 234 248 246 262 263 233 194 172 174 198 196 196 204 193 171 145 122 121 111 109
11 19 -2 -1 -8 21 40 22 37 37 47 53 48 87 168 137 166 231 238 222 223 256 255 254 303 283 247 237 247 215 189 177 197 208 218 213 193 171 149 147 122 113 116 107
-1 17 23 33 6 20 45 54 43 23 24 33 24 54 155 151 171 191 222 234 245 245 257 246 293 281 226 207 197 212 184 207 218 219 211 195 176 164 143 134 124 112 104 102
30 44 55 55 35 12 41 56 80 66 27 20 36 56 113 173 150 189 203 219 244 232 234 232 279 268 235 206 218 223 197 197 209 219 202 177 158 149 136 122 105 97 98 108
31 38 60 73 32 72 78 57 44 69 52 71 80 82 128 205 165 161 186 203 211 220 223 219 224 219 215 220 222 189 188 193 212 191 166 159 147 139 123 106 90 98 95 107
40 32 53 25 55 21 42 38 45 61 53 41 73 111 127 142 149 153 166 143 150 171 169 204 208 210 184 203 205 191 175 164 173 176 159 142 135 121 110 107 108 101 104 99

GFSCGP_con_3kmhel_036.txt.gz
Helicity
194 220 231 138 156 146 190 167 151 174 143 114 108 57 43 14 27 37 38 66 97 119 80 76 61 79 123 128 128 137 172 253 388 450 459 417 415 409 429 385 318 300 200 178
231 156 142 146 176 185 181 145 127 105 80 103 65 7 46 32 22 28 35 51 47 75 78 79 69 96 123 119 130 155 186 270 354 412 449 463 481 453 426 386 337 241 190 182
179 184 160 166 204 207 179 153 130 107 119 125 77 -86 -13 43 65 90 79 95 68 82 59 44 82 85 110 119 142 171 204 274 354 445 531 601 558 500 447 377 284 232 221 208
143 137 128 188 238 186 115 135 93 105 134 103 77 -56 -56 54 87 77 96 119 130 110 129 63 91 138 115 133 147 178 224 284 317 371 434 474 470 383 319 296 236 270 226 200
184 155 152 148 115 193 207 103 94 102 119 121 148 220 -120 -113 7 54 102 92 113 141 144 117 110 139 182 175 167 183 230 261 287 312 363 445 470 367 348 297 287 268 235 193
121 140 170 166 134 122 193 140 167 146 160 152 114 142 -99 -24 -78 -43 119 101 89 99 149 144 160 235 259 223 208 197 222 237 264 281 313 331 375 321 293 257 258 233 201 169
155 153 203 196 124 90 163 191 174 142 209 247 42 39 100 -7 59 0 -9 72 79 85 150 204 214 236 264 221 209 207 220 249 246 258 265 260 286 272 265 231 199 183 165 147
152 132 87 103 157 183 200 277 341 245 220 158 152 166 112 2 -82 34 64 189 89 93 127 177 213 237 256 241 233 239 250 285 267 254 269 284 289 270 243 204 196 183 160 138
141 81 72 112 117 108 208 298 241 280 162 195 220 187 88 -17 -10 48 -28 10 78 76 136 150 193 249 295 296 299 291 322 324 310 287 300 317 301 271 242 235 213 185 151 133
152 49 12 122 163 157 181 251 303 421 382 325 252 191 103 46 96 100 146 41 96 76 112 178 199 279 343 346 387 359 325 330 340 333 316 316 299 271 245 230 205 179 158 146
84 114 120 165 156 216 249 306 338 385 388 333 163 117 12 -20 -16 -8 41 87 74 155 155 220 262 331 408 405 366 387 373 389 390 354 336 338 313 279 250 223 185 165 155 149
99 128 79 177 243 220 261 294 204 251 471 346 220 12 97 -62 -76 -66 41 89 87 147 229 291 335 386 377 361 355 372 375 398 381 343 335 325 296 258 238 211 181 158 156 149
81 92 -53 27 138 259 362 270 276 223 214 236 51 68 -88 -51 -66 -186 -11 96 142 155 217 234 278 344 368 366 360 356 361 396 378 347 321 297 272 246 223 195 170 159 149 155
67 133 74 145 176 143 263 344 270 270 227 178 136 164 181 -26 -91 -9 32 94 159 125 146 178 246 279 280 289 331 344 372 362 332 309 292 269 245 223 193 174 169 163 156 148
81 81 177 303 353 448 467 387 429 316 263 319 194 128 32 -22 -57 -12 52 129 157 145 114 119 169 240 276 310 321 324 330 312 281 281 266 246 223 204 190 181 171 172 140 154
119 126 116 323 402 248 181 223 249 382 228 303 193 81 -2 -9 -45 44 178 170 148 107 77 84 142 221 243 253 270 285 272 251 245 246 233 216 215 201 191 178 172 152 157 143
17 39 133 351 228 140 176 247 326 224 115 196 217 239 89 191 373 287 246 197 91 52 58 75 121 172 186 205 229 227 222 222 230 229 217 214 205 199 182 171 159 154 147 133
55 92 151 283 142 38 120 104 239 307 194 238 204 380 394 383 234 152 205 158 60 56 76 103 151 172 189 215 228 233 206 211 223 223 213 200 196 188 176 172 155 146 135 132
169 120 80 67 79 62 87 105 139 144 190 255 273 304 274 185 225 197 135 111 85 62 92 115 133 174 194 205 213 242 232 233 229 203 193 178 175 182 166 161 150 137 124 103
40 82 56 2 55 31 54 2 84 84 115 223 293 320 312 217 149 116 62 70 76 107 141 168 172 195 224 198 233 255 227 210 191 174 182 193 188 168 154 145 141 107 92 101
16 24 58 -15 -11 19 21 16 60 20 45 3 88 112 117 118 158 144 72 121 127 148 187 190 181 182 196 223 247 248 205 178 182 213 215 200 174 163 151 129 107 115 101 92
1 17 7 22 4 -3 -1 13 46 23 27 33 4 -8 48 -7 -25 -2 96 130 149 177 187 208 245 225 203 217 249 229 207 196 220 218 209 187 171 150 133 140 115 98 95 94
-5 11 10 42 17 -3 24 22 0 50 45 5 -3 43 164 179 109 81 175 167 180 195 194 185 235 258 235 218 214 240 199 224 222 210 189 170 162 152 135 115 102 94 92 92
15 42 28 45 19 -9 -2 29 38 41 13 14 22 72 83 128 107 151 180 177 183 179 187 198 257 261 253 235 255 238 201 199 204 200 181 167 154 132 114 104 93 93 90 92
22 45 47 60 30 13 32 32 33 46 35 37 47 58 86 132 118 123 140 160 175 194 206 205 247 266 258 254 255 203 179 186 197 184 168 146 128 125 109 96 84 88 85 84
54 51 65 -6 -31 46 105 46 22 28 35 29 67 99 110 104 108 128 165 147 145 176 185 249 253 263 244 245 212 177 157 165 169 154 138 131 121 109 107 103 101 100 82 76

GFSCGP_con_3kmhel_039.txt.gz
Helicity
130 115 123 91 110 133 139 113 82 91 97 77 57 27 61 60 43 36 61 65 61 101 127 168 191 184 135 109 100 95 124 137 201 262 351 366 375 356 351 359 328 311 283 183
162 86 89 116 119 113 107 89 84 80 54 115 79 6 24 47 73 88 81 70 63 78 68 119 148 168 162 124 129 126 115 127 176 252 358 412 450 423 436 401 400 281 239 223
147 110 77 96 132 131 131 114 100 97 131 118 77 7 -39 -29 11 75 91 88 76 89 96 81 88 139 158 137 130 145 130 147 220 331 482 505 514 478 445 408 408 279 224 205
95 98 132 143 150 131 100 133 88 92 105 72 73 10 -15 -21 2 33 68 93 77 80 93 94 91 130 135 133 161 137 139 183 216 274 355 412 438 396 351 397 387 329 236 217
114 90 116 105 89 188 155 143 121 106 102 100 96 131 11 -23 -23 28 65 66 88 86 102 99 111 126 126 174 170 157 165 169 195 238 294 393 439 406 435 425 400 315 244 213
92 124 134 113 119 104 185 157 101 121 152 170 138 160 63 71 2 -65 -46 21 81 70 83 98 77 133 155 191 192 177 171 179 200 247 302 373 466 435 440 363 305 268 235 206
84 86 151 185 164 163 213 208 213 177 238 264 92 99 299 135 53 3 20 64 74 78 87 97 145 144 163 201 208 208 180 190 211 234 271 314 375 382 350 298 292 236 211 182
64 72 104 69 60 137 165 185 287 223 266 227 232 280 350 135 -33 -22 11 48 59 102 46 76 85 163 163 222 235 231 202 212 218 244 292 333 350 349 307 261 231 201 180 158
66 61 73 78 108 90 180 221 100 263 242 284 373 327 221 177 20 31 -13 38 57 18 83 67 74 139 179 220 224 248 262 244 233 263 333 323 312 313 275 248 220 197 171 147
130 91 60 99 170 135 242 221 318 464 502 435 369 306 402 253 36 8 34 -50 63 75 50 65 104 144 172 226 267 284 268 287 285 296 313 333 331 305 270 241 210 187 167 141
106 100 63 96 135 189 196 233 373 437 553 504 379 385 232 87 67 57 57 27 9 98 80 95 103 168 217 287 316 322 356 345 339 335 367 395 358 313 273 231 198 178 154 131
90 35 78 132 187 183 212 248 325 413 485 516 405 308 199 126 162 -2 -79 86 -20 37 92 125 169 198 246 310 328 342 355 353 362 381 406 397 360 303 260 216 185 156 150 129
92 65 60 22 73 143 283 334 418 517 332 399 359 244 3 -49 -70 -68 -68 -31 -7 53 103 124 144 185 255 294 310 347 362 374 398 400 410 363 309 273 235 198 174 154 135 123
93 96 177 131 204 123 287 474 503 503 436 407 397 450 167 130 -5 -157 -137 -19 68 85 122 107 128 183 250 306 335 350 375 380 375 367 347 306 256 234 206 184 162 141 127 126
96 24 186 257 307 360 435 388 281 416 485 304 254 369 261 83 28 -13 5 51 91 117 100 105 140 194 264 317 320 333 349 349 334 335 306 264 241 222 196 173 154 143 141 123
22 74 84 278 291 295 340 239 246 120 207 175 218 300 156 49 -31 1 83 63 135 129 111 98 114 156 222 249 268 297 304 307 298 301 275 229 214 194 178 164 154 151 139 89
24 68 53 124 96 130 88 183 162 82 106 116 161 187 102 77 93 98 89 173 204 160 81 54 60 100 143 181 226 245 259 277 286 263 217 201 188 186 175 158 150 139 91 90
38 48 41 96 95 36 125 127 114 135 83 191 128 124 146 164 195 269 157 198 164 75 31 23 62 112 155 185 218 249 240 237 237 219 202 183 187 184 163 152 135 97 94 108
92 65 30 28 85 127 -0 101 101 156 179 180 173 229 236 257 297 156 107 119 76 27 15 30 55 115 141 158 194 242 229 223 209 191 185 180 169 159 141 132 102 108 102 92
67 124 71 30 73 57 86 73 86 135 159 199 226 274 274 268 241 177 175 128 89 50 54 80 95 125 160 171 212 227 195 187 191 183 178 163 150 136 126 105 116 100 89 97
20 21 96 66 52 62 70 79 74 36 62 130 140 158 173 237 224 160 72 57 39 44 72 72 101 142 168 168 186 197 179 192 195 198 174 151 139 141 118 116 98 96 99 88
-5 4 12 25 30 23 22 29 37 89 52 61 87 84 100 87 69 68 54 68 52 79 105 124 167 165 138 149 206 216 220 178 169 164 169 163 144 125 115 116 107 97 95 99
31 -9 2 39 37 12 24 68 47 64 80 21 -11 -47 -18 56 6 79 47 49 61 80 118 139 197 206 167 161 195 240 162 171 182 184 167 145 134 128 110 110 103 98 95 82
-21 12 5 16 15 12 -2 9 5 16 25 40 20 19 56 70 70 91 123 105 127 111 145 169 235 235 232 200 211 213 165 167 181 164 137 128 130 121 109 101 97 85 75 83
3 28 19 24 10 14 10 5 30 37 23 5 35 29 49 101 111 107 139 130 137 163 163 183 234 247 228 222 226 173 156 165 165 144 132 132 124 115 108 95 71 72 70 70
58 53 53 23 20 17 19 88 16 39 25 13 47 68 80 107 112 138 136 112 140 179 185 252 257 264 232 232 203 157 131 134 140 142 128 118 112 103 94 84 87 85 96 96

GFSCGP_con_3kmhel_042.txt.gz
Helicity
41 56 38 20 17 40 86 68 57 44 45 48 23 20 37 38 30 36 48 47 54 60 80 130 225 208 171 148 152 113 107 82 103 141 147 207 324 341 327 291 266 226 248 259
61 36 18 43 32 29 30 36 50 55 48 92 67 12 50 47 79 55 45 51 48 51 57 75 109 210 210 196 172 160 122 101 109 139 141 166 338 405 437 384 336 277 287 273
37 61 43 10 31 32 26 42 41 49 83 76 42 40 -45 81 65 43 28 23 44 58 67 69 85 112 177 214 223 183 145 121 139 138 220 318 392 460 473 402 387 316 271 245
26 35 83 58 52 43 50 80 50 61 85 75 111 91 97 65 33 22 2 9 -7 39 51 51 67 99 130 173 208 195 163 150 164 195 174 194 310 436 438 393 388 351 259 197
59 41 32 27 7 37 80 87 66 90 111 118 85 145 96 93 27 40 40 75 107 79 71 101 97 72 112 148 181 179 164 163 162 127 146 162 242 378 487 404 388 372 295 249
82 122 86 41 55 67 166 91 80 127 151 140 87 127 97 64 78 74 55 5 59 126 137 85 91 105 95 153 155 159 163 156 150 143 142 171 273 374 432 358 391 362 321 220
59 36 75 93 97 124 128 156 153 94 163 198 181 133 228 133 165 121 45 28 76 72 107 124 89 79 110 148 163 153 152 164 146 147 147 205 219 256 285 336 345 298 217 209
65 43 26 55 34 101 106 118 153 151 147 117 194 226 248 178 200 145 133 43 72 78 118 105 108 57 106 121 143 160 149 154 143 166 175 188 223 295 370 357 351 308 236 186
29 52 58 58 90 64 112 110 47 102 136 183 270 198 87 52 37 6 -77 3 74 92 163 43 96 88 83 111 133 153 145 150 160 178 210 227 258 338 381 362 323 251 215 188
76 55 61 117 104 82 82 142 186 246 257 205 199 161 225 144 71 65 68 101 91 65 99 31 56 72 83 109 138 151 150 165 197 201 219 242 283 376 378 322 261 219 206 168
70 62 69 88 62 88 121 164 199 238 347 353 279 279 223 190 100 27 67 85 136 122 113 104 66 71 84 124 172 180 177 195 212 220 236 284 380 381 312 255 226 216 183 150
75 64 59 79 41 47 84 121 169 301 307 363 364 435 220 157 100 104 83 45 -22 6 48 53 56 71 87 142 182 198 203 200 225 237 291 378 387 342 274 242 236 194 175 150
120 60 32 3 41 69 102 105 195 374 317 355 326 344 193 107 85 54 15 26 29 -23 43 -6 29 72 74 124 170 216 222 245 247 301 384 399 315 263 270 244 218 187 164 146
86 75 63 30 32 37 164 311 371 386 368 335 409 302 66 75 6 5 12 -23 1 -22 88 -9 18 52 67 130 209 256 283 311 353 381 363 336 276 274 262 230 200 177 152 133
26 49 38 102 128 126 187 237 255 215 347 240 157 -0 31 -9 -0 -3 -8 1 -6 136 44 3 35 65 100 169 249 306 358 344 349 390 354 298 287 263 247 218 187 160 144 133
64 45 13 67 105 122 216 187 164 72 56 110 111 19 8 28 -15 5 45 41 102 124 25 25 37 62 119 200 293 322 331 324 318 341 304 271 268 245 217 185 159 148 136 127
42 32 1 5 56 118 39 51 69 85 70 34 70 47 31 67 31 69 94 121 126 22 1 25 53 77 150 193 246 279 282 269 291 277 255 251 234 209 180 159 149 138 136 99
3 15 26 71 99 20 17 74 110 100 110 122 106 82 72 82 90 54 55 90 25 17 35 56 83 117 142 179 211 246 245 227 212 223 230 213 190 178 158 146 143 138 93 100
12 16 30 13 66 101 21 43 21 60 58 37 84 95 109 94 89 56 181 100 67 70 47 18 45 65 90 127 151 181 183 191 197 201 189 166 151 149 138 143 132 91 93 103
-12 39 37 2 11 18 33 44 42 51 43 138 93 122 109 105 -10 34 148 118 49 14 3 11 15 38 78 95 119 164 173 166 167 159 163 156 148 144 144 121 86 103 104 98
33 37 130 107 53 53 54 8 70 -0 88 131 133 151 188 134 87 39 27 -2 -26 2 4 8 20 41 62 80 109 155 153 161 161 168 174 169 146 134 106 98 105 100 100 94
29 16 34 48 50 39 32 26 8 26 73 81 56 85 98 116 64 74 -11 -56 -52 -15 16 47 89 83 76 92 168 175 170 157 178 178 164 135 116 105 104 106 104 105 98 82
37 18 -11 26 25 11 23 37 24 60 48 -4 -22 1 34 12 29 1 -14 -4 8 20 29 29 83 108 70 68 124 213 165 163 154 150 131 126 111 113 114 116 108 92 86 83
19 -8 -21 -27 2 15 -10 -4 21 17 15 18 -2 9 40 40 21 26 12 26 52 49 59 75 106 125 119 134 174 180 126 131 143 130 122 113 125 126 115 103 93 85 85 85
35 -9 -13 2 28 9 17 31 23 29 22 4 21 22 46 67 74 74 78 69 80 99 99 93 124 154 174 177 180 147 122 103 119 128 128 131 122 115 103 94 89 90 92 77
-9 -4 8 -2 16 6 15 37 33 31 34 36 21 37 49 43 89 111 124 116 118 136 132 153 165 185 178 184 163 117 94 103 127 135 123 116 109 102 102 100 89 80 63 67

GFSCGP_con_3kmhel_045.txt.gz
Helicity
77 76 51 32 28 66 92 131 80 62 54 35 25 12 17 21 14 18 47 57 64 73 74 81 91 153 217 205 181 138 166 143 133 131 130 112 190 254 362 274 333 219 234 203
84 45 29 65 82 49 48 43 44 40 39 46 34 28 28 24 42 44 52 72 71 80 74 63 74 105 130 201 261 245 186 167 166 159 143 137 306 510 509 503 418 360 294 270
39 49 42 26 28 38 27 39 43 55 75 48 18 17 -25 29 40 14 -1 19 48 62 65 56 62 83 119 149 203 236 240 202 189 181 176 238 534 540 487 440 471 415 344 302
35 19 37 24 22 16 35 35 55 50 50 29 90 20 68 79 37 50 48 73 78 73 82 80 84 88 94 112 175 234 230 225 217 210 216 302 421 412 402 439 454 441 370 328
36 32 6 11 -7 32 48 90 55 56 77 75 55 102 72 110 48 57 75 80 78 79 124 141 118 111 120 124 135 190 247 266 271 219 267 323 279 259 401 491 476 465 434 361
52 56 43 5 48 35 116 35 26 44 42 74 17 64 89 99 165 198 43 79 84 23 35 59 80 109 137 147 205 191 232 262 294 337 235 196 243 361 420 522 522 482 389 351
23 31 42 50 68 64 79 84 56 12 98 141 133 133 214 112 63 117 107 112 123 128 88 62 57 64 93 129 186 201 201 237 256 236 197 149 269 251 299 435 464 403 383 338
38 43 11 56 41 74 35 89 102 117 100 155 227 184 169 64 115 109 131 99 91 94 51 125 102 85 87 106 125 199 165 214 210 191 190 211 274 241 288 370 376 392 349 293
52 81 66 61 51 39 96 78 92 110 89 142 198 133 110 63 8 112 90 73 46 98 119 128 96 86 77 101 100 169 168 198 192 196 244 272 208 246 336 361 414 421 364 280
88 79 55 81 90 47 47 110 158 180 130 101 112 115 154 105 97 176 193 106 102 110 86 63 45 71 98 69 89 109 138 186 193 208 243 259 223 246 362 397 440 375 288 207
44 64 66 88 36 70 105 93 150 157 219 192 126 195 163 224 170 149 134 136 170 67 90 96 77 70 104 69 87 104 162 198 206 230 277 247 232 278 401 428 357 340 251 209
26 54 56 31 28 48 65 86 90 188 165 217 273 291 146 64 124 79 31 67 70 57 14 -23 24 7 132 91 167 138 188 245 245 266 256 238 254 348 427 405 334 227 205 195
61 35 43 72 90 47 54 1 95 193 165 321 301 466 219 108 69 82 49 43 33 26 34 4 7 -38 130 141 183 195 195 235 267 247 241 265 329 405 410 342 235 206 223 219
59 43 58 75 90 38 80 116 162 232 295 289 541 304 194 62 48 27 62 53 37 49 28 -0 -7 7 122 141 197 179 186 186 234 252 269 332 369 367 323 289 246 245 210 182
56 34 37 51 61 48 50 72 96 145 276 325 312 98 99 -22 -8 -5 6 -35 45 72 54 -35 -57 90 134 153 181 173 186 203 237 283 332 391 371 333 284 276 263 233 200 171
55 62 63 113 62 23 80 30 24 67 104 91 124 135 74 44 37 63 12 25 -34 -46 -58 -5 79 121 116 167 172 158 189 254 291 354 405 366 315 273 264 254 218 200 178 152
58 54 21 40 41 47 40 14 45 105 92 78 89 74 4 5 102 100 88 83 127 179 110 21 48 62 91 142 133 165 251 328 384 408 363 275 247 262 240 215 200 172 152 122
13 13 30 50 25 47 72 67 54 85 19 -6 53 39 30 37 12 -30 -20 46 -1 32 12 3 19 89 125 151 166 216 304 349 358 355 342 208 228 225 204 200 177 150 125 110
-28 22 37 20 20 40 21 36 -29 43 20 53 -2 -5 8 13 -10 -53 37 -12 -60 -57 -39 -16 67 147 143 168 165 250 369 407 363 276 223 157 191 200 179 170 153 133 121 111
-19 -14 25 38 -2 3 30 45 78 26 25 25 15 29 11 8 75 47 69 36 36 69 92 114 113 124 146 157 199 278 276 228 145 124 160 158 169 163 160 147 136 121 111 107
35 37 30 26 10 21 55 52 80 -21 11 9 -5 70 49 2 4 24 20 20 3 -3 6 10 32 61 51 38 48 93 106 130 134 151 159 164 163 161 144 117 109 110 101 83
10 6 4 14 26 26 48 37 -10 -3 63 5 9 42 16 21 9 -40 -48 -24 8 20 6 11 39 40 37 53 103 131 143 129 151 165 180 178 148 110 103 114 98 91 83 73
23 27 19 20 32 6 19 -1 -6 12 15 -1 45 35 15 6 18 -36 -30 -12 -12 6 53 103 87 108 115 117 114 160 130 147 176 181 155 124 116 113 93 84 88 82 81 86
8 -2 16 -6 -3 14 -17 -11 40 38 13 20 -3 96 12 37 -3 19 12 28 32 19 26 32 59 79 90 88 117 129 118 132 149 134 116 113 103 92 92 88 85 86 85 84
44 21 -8 14 68 15 54 22 46 47 30 22 14 46 67 73 40 30 30 40 76 68 58 63 89 121 150 153 159 131 120 117 131 127 109 104 93 99 95 92 86 84 105 101
3 -7 -46 -31 29 26 29 17 40 41 25 9 21 49 70 72 85 83 79 80 104 133 135 142 140 191 175 158 150 132 119 114 116 117 101 99 96 95 87 79 81 85 94 93

GFSCGP_con_3kmhel_048.txt.gz
Helicity
97 138 95 47 36 58 229 186 228 183 190 76 46 32 39 40 56 45 77 95 83 78 82 115 138 156 178 130 162 187 225 256 240 226 285 264 153 194 280 269 289 345 333 326
149 84 35 70 93 99 113 94 81 66 46 42 23 52 42 61 90 83 92 102 118 113 109 81 108 127 122 196 227 221 235 293 305 249 262 281 323 431 452 419 441 493 492 371
80 76 34 74 90 89 78 71 74 84 58 20 36 3 -10 91 51 44 53 78 111 125 133 129 117 121 135 149 158 260 281 283 292 324 325 501 509 566 575 625 650 661 623 489
53 54 65 64 49 49 70 70 59 63 62 44 74 7 15 39 41 57 78 86 95 98 112 135 132 132 145 160 166 138 239 298 319 332 394 437 464 535 553 641 736 706 545 423
65 58 37 52 43 51 73 98 92 73 74 50 15 58 -15 32 18 16 55 83 85 73 100 87 101 128 103 161 156 167 166 208 269 345 391 542 574 582 628 626 689 572 454 410
63 40 60 46 59 81 110 45 22 34 27 33 -18 37 -4 -1 84 256 220 138 90 65 65 85 76 79 91 126 158 218 167 235 265 333 436 548 604 580 549 553 600 554 503 472
59 26 34 82 45 60 75 51 30 -5 22 22 -9 33 142 88 64 79 71 144 172 178 184 155 138 119 95 85 95 170 238 260 321 401 473 474 527 504 454 514 566 526 493 492
40 31 58 40 56 62 41 56 47 42 57 102 176 132 115 18 40 111 104 137 144 140 170 186 196 163 137 124 93 119 216 354 379 469 452 420 440 446 425 430 437 444 451 417
35 49 31 30 42 62 69 26 114 132 88 101 123 171 96 -5 1 46 114 145 103 99 119 197 220 178 125 117 125 121 144 349 443 448 359 378 437 411 379 402 414 457 435 405
116 77 61 59 39 30 37 64 129 155 84 75 89 65 43 159 233 257 242 173 149 123 195 215 152 89 122 76 129 136 191 290 416 374 414 486 445 372 331 357 393 400 391 385
65 83 88 100 43 68 70 62 108 153 122 123 79 73 165 176 207 206 223 199 123 155 225 222 193 80 128 77 124 140 229 304 359 422 549 562 494 381 333 377 386 403 381 328
57 71 72 53 25 13 69 92 126 153 86 136 178 233 71 90 186 202 161 76 96 97 157 185 151 107 56 28 70 187 233 302 505 588 545 474 399 366 379 401 423 386 333 289
70 47 63 59 86 76 88 73 99 82 101 162 196 318 212 198 53 56 65 114 113 96 107 208 147 39 52 37 145 232 327 545 610 522 415 353 318 315 329 365 355 357 288 334
47 49 43 61 118 109 75 53 20 117 186 185 399 328 340 170 3 14 25 58 88 109 158 174 196 24 66 164 293 393 486 560 490 398 301 282 290 330 371 389 370 343 356 299
74 35 31 44 25 21 7 31 66 144 247 277 314 202 233 95 79 61 106 196 266 185 273 211 99 16 72 180 338 391 484 437 313 272 263 295 323 365 393 375 378 323 259 243
69 38 54 44 60 10 -1 14 68 90 145 188 166 207 137 114 96 108 88 114 121 83 190 86 23 73 209 301 356 385 383 275 230 261 295 324 372 380 373 371 273 310 228 226
26 25 25 46 75 47 8 32 25 88 99 60 66 81 46 13 33 33 57 60 92 83 -6 -64 28 213 289 293 329 326 275 245 266 294 330 358 356 379 349 298 226 187 181 152
32 19 27 36 82 -36 57 59 54 41 69 73 92 29 16 73 183 85 -1 22 5 6 73 61 124 150 125 170 214 245 263 285 319 345 355 377 361 376 242 231 213 183 136 122
30 58 17 18 43 36 50 47 18 0 18 89 40 24 20 60 73 -33 -1 -24 -14 31 60 77 71 58 98 148 169 239 279 366 391 409 454 403 279 177 163 160 147 138 136 111
28 53 23 38 23 17 58 11 37 83 15 45 10 -6 5 -4 9 12 40 41 -11 23 7 43 103 129 181 194 197 270 299 332 289 325 299 252 162 121 135 135 136 124 123 111
22 29 -6 -8 24 17 10 53 36 13 -15 -13 40 -14 -4 42 7 32 54 22 32 70 18 33 124 183 175 209 209 241 233 242 180 132 113 79 86 107 118 129 103 101 96 89
22 17 7 28 33 15 10 27 25 18 35 71 74 48 61 48 25 31 30 10 2 -6 -9 11 1 -41 -33 39 80 84 98 22 14 84 110 109 107 103 89 94 95 90 85 92
32 26 10 12 6 -7 28 -17 23 93 17 36 68 104 38 67 -22 6 32 24 4 23 -23 -24 3 21 10 31 46 91 46 58 77 120 148 124 91 81 77 76 69 76 79 77
16 17 37 -6 24 9 21 25 49 49 48 37 52 85 74 67 -30 -6 24 24 23 40 79 74 108 106 89 69 56 62 51 62 109 103 80 76 89 79 74 78 70 67 81 86
30 49 17 20 17 37 56 27 30 44 49 33 38 48 78 93 49 84 46 22 37 34 32 44 52 56 47 34 37 33 65 83 108 100 84 77 59 57 70 67 67 81 83 90
18 12 -13 2 52 45 43 30 35 72 27 24 39 76 83 94 92 84 50 48 72 112 122 106 102 114 91 108 114 91 86 104 102 85 57 51 62 72 74 79 81 76 79 81

GFSCGP_con_3kmhel_051.txt.gz
Helicity
133 195 153 77 86 97 175 170 141 121 192 113 81 59 46 62 43 -4 8 32 28 55 55 84 94 103 132 120 88 132 199 189 403 420 412 327 271 249 233 190 271 288 366 356
204 153 78 78 81 117 103 113 69 66 139 83 42 23 22 63 91 86 65 50 51 39 27 27 69 98 124 120 119 148 171 221 299 405 376 376 336 283 282 233 326 396 449 463
173 122 75 55 98 85 85 65 49 54 24 33 14 18 69 59 21 -6 5 49 74 90 109 89 88 80 91 123 113 131 169 158 306 453 588 629 589 475 401 394 487 510 504 530
104 106 104 92 70 68 81 92 74 76 62 63 41 25 95 58 35 37 35 58 49 73 140 127 127 129 124 103 114 96 121 145 195 335 483 525 518 493 422 544 566 590 566 598
84 91 76 84 58 65 64 75 82 74 59 44 60 68 1 -35 16 36 79 31 46 78 61 51 88 116 121 120 129 130 102 148 151 229 312 436 555 562 576 648 653 646 659 644
87 92 70 56 86 87 57 56 63 53 39 89 53 66 -2 -40 -48 -1 73 118 2 42 55 59 78 96 120 134 110 119 134 132 171 181 332 455 591 617 616 624 656 675 650 625
106 51 67 80 82 92 85 84 90 77 87 58 71 51 71 -10 -50 -27 -23 17 77 149 166 148 179 193 183 174 136 101 100 108 146 230 365 474 539 585 586 597 618 665 658 599
75 51 73 52 73 43 92 56 72 53 54 48 81 18 -13 -49 -26 12 42 88 68 123 127 100 122 140 177 186 168 115 86 128 163 282 446 517 554 630 583 581 560 586 583 569
62 62 53 46 104 97 60 55 74 76 68 61 53 76 25 24 105 103 144 178 199 190 100 89 168 183 177 143 111 70 80 120 200 354 550 582 593 575 486 500 508 513 523 551
71 48 32 49 70 49 55 64 91 93 41 36 42 28 23 36 107 119 162 218 232 217 184 144 205 230 193 114 46 54 63 142 231 417 509 565 537 478 445 424 422 412 443 478
89 70 92 90 36 55 54 63 78 76 81 33 16 11 -6 58 29 48 120 125 113 136 182 194 164 156 149 81 55 43 78 196 329 460 538 560 485 410 405 349 348 397 422 412
83 67 53 49 25 38 76 74 103 92 63 86 100 114 -28 -36 163 78 -88 -116 -39 69 101 160 166 160 104 52 73 92 131 370 453 461 454 447 408 396 344 315 324 377 403 376
82 49 64 67 67 74 68 39 71 114 93 82 128 64 74 136 52 -42 79 77 48 50 109 183 170 149 132 73 84 153 312 405 435 407 432 422 424 351 301 304 363 381 388 367
73 35 27 22 56 73 48 60 83 118 135 82 294 146 290 203 79 15 37 102 95 101 157 220 200 148 126 103 133 232 338 397 409 462 460 394 347 290 293 324 333 363 390 386
60 34 24 -3 -8 16 39 46 24 120 173 186 226 134 220 92 53 94 75 156 130 119 153 158 140 147 66 103 185 283 392 418 429 430 341 310 290 276 317 373 361 406 359 294
93 41 52 23 19 16 20 12 53 90 84 158 201 233 138 111 103 95 164 121 65 71 192 87 64 120 115 159 195 270 322 344 342 343 307 259 277 339 378 383 404 371 318 301
45 19 34 32 67 34 5 40 113 91 120 165 139 179 74 17 55 135 122 45 35 21 140 99 66 80 208 257 297 294 280 323 305 289 272 292 365 451 470 420 296 272 354 258
29 22 22 17 47 13 8 29 43 75 31 28 89 62 26 -8 190 153 100 49 36 48 175 223 184 239 283 306 282 234 257 273 280 287 355 435 501 398 266 239 300 224 158 116
48 46 17 12 17 17 21 21 15 57 -2 36 33 52 6 -13 141 131 63 45 55 44 88 150 157 153 175 195 223 246 299 324 341 318 317 331 246 262 278 270 228 133 118 124
23 37 33 37 13 19 25 -6 31 68 -1 53 62 -14 -17 -30 64 62 19 61 79 64 57 91 121 173 217 197 239 281 243 285 332 273 273 240 189 180 238 195 100 53 42 83
6 27 21 8 8 29 26 19 41 18 -25 61 84 95 38 66 50 43 36 50 99 67 125 120 129 154 163 134 162 104 5 97 107 88 129 105 113 104 61 26 24 63 76 89
19 2 21 17 18 25 23 31 5 -5 52 75 75 106 149 93 93 62 29 9 16 31 63 110 136 119 93 61 50 80 46 14 25 43 36 61 13 -8 1 31 51 68 72 93
11 11 10 7 25 32 4 0 60 58 58 57 76 100 163 88 55 65 22 -16 14 -15 -45 -36 -18 -37 -63 -58 -43 -36 -47 3 -3 -16 -4 45 29 29 35 54 62 77 85 94
13 2 27 38 50 37 46 55 25 35 39 40 47 105 150 104 55 81 64 18 8 -18 -8 -16 -26 -28 -42 -49 -54 -9 -33 -23 50 93 32 8 42 51 61 71 69 80 83 86
8 18 22 65 55 -9 31 25 11 38 48 40 41 86 88 111 57 78 42 67 39 22 0 -11 -17 -37 -41 -21 12 8 18 57 50 17 23 52 68 69 70 71 70 72 53 64
34 15 30 42 19 16 2 14 36 49 44 20 34 87 106 110 92 110 58 41 72 65 53 51 19 19 0 24 19 9 21 43 60 64 54 48 53 60 65 66 69 80 79 77

GFSCGP_con_3kmhel_054.txt.gz
Helicity
149 191 160 117 90 97 106 131 130 124 109 83 93 54 33 25 39 32 -7 -6 14 -2 -10 65 105 101 103 55 65 166 186 242 296 350 351 351 271 251 232 243 235 239 276 271
191 140 128 107 100 89 115 111 108 111 84 58 59 41 18 40 88 98 32 -9 2 17 20 41 55 91 111 115 123 105 175 205 316 324 372 447 346 316 266 284 258 243 319 349
158 103 118 130 126 112 113 78 61 77 60 0 38 29 73 95 49 53 50 49 32 22 -6 -10 36 46 73 103 110 112 125 173 195 271 374 561 581 461 434 322 290 276 336 465
126 127 106 119 105 99 118 67 36 63 43 59 68 29 72 58 54 38 52 51 48 62 88 85 75 48 63 78 95 111 126 127 149 230 357 379 395 458 388 364 393 401 358 469
119 112 124 119 87 91 77 55 32 27 34 32 37 57 47 53 73 90 52 94 55 32 57 73 139 154 128 137 145 156 129 132 149 196 260 332 380 433 544 526 471 470 469 430
118 117 120 77 108 102 53 78 75 38 16 78 44 83 46 40 68 82 51 97 79 20 30 29 31 36 55 87 113 153 183 162 124 177 227 266 407 495 526 531 532 532 536 498
146 123 110 102 146 148 117 96 92 109 107 66 33 60 15 34 -23 21 38 58 59 103 84 65 65 73 94 120 131 128 123 132 122 127 192 273 375 431 442 485 551 567 558 531
102 87 68 87 81 51 102 65 58 86 77 70 59 38 36 50 5 -5 43 90 165 174 167 127 78 96 116 134 157 157 138 118 91 98 137 238 345 463 496 517 526 532 568 600
103 99 99 46 102 66 64 59 42 32 41 30 53 50 37 71 96 113 144 186 201 177 162 134 104 116 112 121 123 115 110 84 65 85 167 300 379 437 503 543 576 614 635 612
80 86 56 69 94 80 47 68 77 93 40 29 44 46 1 33 75 81 145 144 93 51 57 75 109 146 145 108 108 88 78 45 42 120 262 310 399 489 519 535 530 490 512 502
95 63 84 77 44 76 86 81 82 72 60 28 41 10 7 40 51 56 88 -13 -48 -37 36 83 67 97 204 191 155 105 81 41 84 224 293 338 397 481 497 453 462 412 434 418
103 47 60 72 55 35 70 44 69 61 48 72 46 -1 -10 -28 25 52 -52 -158 -52 67 75 70 57 78 150 161 145 107 61 49 164 262 327 367 386 389 413 361 371 378 384 366
86 42 69 61 39 35 34 54 83 90 75 38 51 9 55 13 -9 -24 28 58 91 84 75 83 70 104 169 122 114 75 69 123 209 298 329 336 298 300 296 340 335 325 339 380
74 36 26 13 16 43 68 58 89 115 69 97 143 137 111 104 42 77 87 51 86 145 108 98 132 150 227 205 57 67 115 195 244 301 331 319 265 253 259 235 266 290 363 419
53 20 18 12 14 22 20 36 88 116 118 126 136 95 232 108 77 97 14 69 10 -2 5 68 127 91 95 172 86 81 124 204 261 293 337 303 292 305 302 334 346 395 456 488
70 45 39 26 14 2 8 1 19 108 89 132 205 237 248 112 39 15 28 5 -1 0 17 99 108 95 98 91 77 114 148 191 246 292 315 336 348 368 344 393 414 488 521 544
70 51 33 14 35 19 10 34 84 38 48 134 135 178 67 20 -1 101 30 29 31 2 11 147 155 122 105 107 144 191 233 309 359 297 317 342 355 301 411 398 462 452 424 303
58 45 20 7 29 18 1 15 43 78 49 60 68 84 8 -6 114 142 68 42 42 37 48 90 135 185 162 154 193 214 190 192 256 250 355 262 251 325 359 367 355 372 329 298
38 40 21 17 14 5 21 27 15 14 -14 27 37 24 32 -24 107 82 44 78 60 39 58 79 110 143 174 165 137 154 157 210 215 183 189 219 215 334 295 325 325 307 171 128
44 49 29 15 13 13 33 49 26 32 -2 8 71 34 -25 14 14 28 27 83 67 54 66 69 89 117 126 121 135 103 108 125 119 111 117 168 229 246 220 173 129 114 77 58
7 10 -3 5 8 33 44 17 23 -6 -22 64 107 83 82 55 25 46 44 58 55 111 76 50 74 97 60 49 78 150 138 18 82 123 154 151 154 101 72 47 63 46 8 19
8 2 23 30 24 33 36 40 0 1 18 11 47 72 101 100 53 36 40 42 32 57 71 40 72 84 60 47 88 58 65 44 44 16 12 18 10 9 14 16 -13 -2 20 41
4 10 -9 -1 23 53 34 17 3 8 24 27 46 82 120 94 25 34 34 17 20 10 -12 -32 -23 -6 5 -2 -5 13 -39 -31 -25 -8 3 -4 -5 -16 -1 25 44 60 67 81
-1 23 10 26 22 56 53 19 67 29 40 43 58 92 125 93 71 42 -4 -10 -5 7 -22 -24 -39 -48 -44 -62 -47 -23 -35 -36 -23 -9 -3 0 13 26 33 42 50 64 76 79
-14 19 8 44 52 43 20 15 5 24 29 33 43 89 107 108 64 72 11 -1 -27 -35 -25 -38 -28 -29 -34 -28 -27 -47 -56 -28 6 -5 -8 5 22 38 55 65 57 61 61 75
41 13 13 42 34 22 14 -16 1 32 27 22 48 77 82 96 111 94 33 22 14 -2 -15 -25 -23 -31 -34 -20 -27 -40 -35 -2 31 26 23 29 40 44 49 61 82 94 88 88

GFSCGP_con_3kmhel_057.txt.gz
Helicity
94 143 105 158 194 183 125 137 146 123 107 101 53 43 61 42 51 41 30 26 22 11 -20 -11 30 66 93 173 170 200 216 192 276 356 310 255 226 255 226 188 171 197 195 202
96 18 89 92 70 150 136 123 117 104 81 75 75 27 30 16 42 53 56 59 56 57 30 24 43 67 83 127 188 163 158 141 240 292 307 354 295 258 253 230 217 225 236 246
118 110 110 73 68 51 67 62 60 60 91 50 52 5 72 63 57 65 36 40 33 44 31 13 28 49 74 98 143 195 156 137 160 209 298 430 461 434 361 303 211 222 299 291
109 75 133 130 121 105 84 61 53 72 70 58 75 16 66 80 86 59 60 82 103 106 88 100 101 66 53 74 102 116 145 163 175 176 312 329 368 369 367 309 239 268 341 372
106 131 91 122 97 100 74 74 59 49 32 38 59 44 62 93 121 110 105 135 140 121 91 85 83 93 102 100 121 112 123 137 128 129 201 281 319 329 405 439 358 409 415 371
106 152 142 98 127 96 44 88 66 43 44 82 54 88 80 84 128 168 217 163 196 230 212 130 100 102 114 99 94 127 164 163 151 152 179 207 234 363 407 425 423 429 448 447
171 138 133 106 168 164 114 83 88 116 132 78 43 76 37 141 138 103 78 96 147 181 226 235 186 133 110 89 75 84 89 107 162 165 149 155 204 252 294 354 383 453 501 480
111 102 92 97 94 59 121 75 68 100 91 87 35 66 56 106 63 35 64 104 139 124 89 106 135 112 85 81 86 104 102 98 85 81 77 94 155 211 276 307 363 379 408 466
100 114 119 73 91 83 69 80 57 16 48 62 42 56 30 28 63 121 155 137 117 97 71 45 35 67 86 96 84 84 101 97 84 78 60 69 148 220 244 305 384 444 458 494
72 100 75 98 99 111 58 44 75 92 25 44 55 51 40 56 90 88 128 94 22 -52 -6 32 27 18 77 116 116 135 135 131 129 105 80 105 160 229 287 345 408 442 463 469
85 78 69 77 50 67 105 87 94 75 66 44 67 36 25 15 67 61 44 -37 -80 -52 -53 -4 49 22 34 113 137 133 158 148 145 109 103 135 215 273 305 344 396 391 416 403
74 48 78 56 61 43 65 48 67 51 40 66 48 29 32 18 -61 -42 -9 -25 35 42 43 45 63 91 117 132 180 188 152 188 163 104 119 185 249 260 289 322 338 377 363 353
46 43 65 61 35 52 37 56 75 87 67 40 47 35 49 16 -30 9 8 16 28 28 22 32 45 61 90 136 172 178 167 136 129 116 116 136 181 209 221 257 259 282 307 326
30 31 16 11 19 26 55 57 94 102 68 71 83 54 13 6 24 59 44 50 19 27 14 28 45 47 76 68 130 132 203 141 37 69 90 130 168 171 220 255 251 255 287 357
41 6 18 26 18 18 10 16 46 115 124 54 80 80 146 82 70 80 72 49 19 -18 -19 -0 23 61 69 77 74 50 55 7 51 88 116 147 176 187 219 237 268 319 374 417
66 25 23 26 25 8 7 -9 13 44 39 100 137 216 253 102 38 56 55 16 -0 -9 -26 30 53 71 84 60 81 85 79 61 92 137 193 205 260 300 335 378 363 406 401 452
66 47 40 32 53 31 24 15 61 102 106 141 92 218 62 34 22 34 9 24 9 9 15 28 50 55 72 73 45 69 105 151 180 246 285 293 275 324 366 342 366 382 457 437
67 60 26 29 31 13 10 27 41 103 45 127 102 71 46 -17 -0 72 54 36 31 22 44 30 39 51 50 61 74 79 80 125 179 181 204 199 201 245 233 297 366 355 277 285
30 44 20 22 5 -2 23 29 21 -4 4 12 74 32 -10 -2 4 21 61 52 71 65 65 40 39 52 56 55 58 80 86 70 112 66 58 38 104 159 159 265 197 192 203 175
51 47 21 13 4 -1 36 49 15 16 32 -15 -15 27 5 14 -7 39 75 53 72 93 99 19 41 48 47 54 56 63 47 64 108 76 91 141 146 114 90 68 112 92 75 95
16 18 11 4 13 34 33 27 12 21 -0 7 6 5 22 -8 44 67 69 39 44 83 104 53 46 62 68 55 56 78 85 109 77 81 106 115 86 57 105 78 36 43 42 21
30 26 31 13 24 35 28 43 22 6 -9 9 16 18 24 59 91 54 54 13 34 46 43 35 33 47 13 18 69 12 14 9 68 51 64 20 -11 20 8 23 10 2 1 35
11 11 -4 -1 17 32 52 64 25 7 -11 12 3 35 62 76 52 27 20 29 6 25 8 -5 -10 6 -10 8 -9 -29 -56 -37 -31 -27 -11 -6 -12 -10 -17 -3 6 18 30 42
2 23 22 24 31 74 78 33 18 -37 23 46 44 47 98 86 84 38 15 6 -3 -15 -27 -45 -35 -36 -28 -25 -26 -36 -36 -28 -17 -17 -19 -13 5 4 3 11 12 30 36 44
-4 20 15 20 30 76 55 14 3 24 20 30 25 32 91 86 70 56 29 1 -9 -10 -18 -40 -32 -24 -21 -17 -19 -27 -21 -21 -13 -10 -8 -0 5 15 28 36 32 41 43 54
56 17 9 24 33 -11 32 29 19 -17 -1 16 33 31 60 71 79 85 49 42 22 13 -11 -12 -25 -29 -33 -16 -18 -22 -24 -4 17 11 2 7 20 28 34 45 61 73 74 77

GFSCGP_con_3kmhel_060.txt.gz
Helicity
61 92 133 68 114 130 150 153 141 132 123 102 57 10 13 48 49 49 60 46 37 38 49 73 100 104 136 150 201 205 243 229 279 283 244 210 187 192 187 192 169 193 167 185
129 67 116 69 148 176 175 161 142 157 130 79 72 9 20 44 43 56 77 87 63 49 49 61 90 102 117 148 155 194 208 224 274 288 272 271 206 193 196 214 216 227 225 226
20 26 91 148 397 288 247 145 111 105 107 55 36 -21 46 52 51 67 61 51 63 22 24 32 40 68 90 124 131 137 115 157 244 273 312 404 352 312 234 212 221 230 253 271
97 7 -163 37 92 43 122 83 61 60 85 94 105 30 91 77 129 119 179 220 191 160 112 109 130 149 143 130 124 142 135 118 156 215 297 302 292 279 275 265 242 266 328 293
162 77 39 25 33 23 39 53 66 63 60 64 92 62 93 118 158 214 265 210 175 136 199 217 177 154 165 167 145 146 142 151 136 174 196 222 230 258 298 261 244 273 336 328
169 129 111 89 126 79 57 129 103 73 48 97 80 92 95 116 184 200 167 204 224 221 236 226 187 175 173 169 170 164 157 145 155 163 174 190 182 257 311 312 309 334 366 392
165 181 160 116 163 164 92 93 111 133 152 96 87 86 63 119 91 97 98 171 179 151 184 182 194 184 172 177 159 135 142 152 123 107 126 145 165 234 231 255 263 299 322 362
142 132 116 126 103 61 120 67 76 124 114 102 73 93 80 97 72 53 72 82 63 84 61 78 102 128 130 118 120 127 140 135 112 105 89 88 105 164 186 211 230 252 265 269
93 125 110 85 78 83 80 113 83 62 95 103 70 75 49 46 71 86 124 96 64 40 12 -0 13 22 54 87 95 71 90 106 108 98 87 86 86 113 129 156 215 268 286 315
86 89 113 104 102 139 83 54 90 107 82 99 79 76 53 77 125 134 114 80 36 3 -0 1 10 12 19 25 44 76 89 97 120 134 127 129 116 118 146 194 220 286 318 314
52 55 81 86 80 68 111 93 95 79 65 63 85 65 31 60 25 59 12 -17 -69 -50 -24 -3 5 1 -2 27 65 90 128 174 210 193 171 160 148 138 148 185 235 271 296 294
74 50 67 68 52 40 54 37 61 58 48 55 39 56 73 112 82 -17 -54 -13 -3 -4 -16 -21 -8 24 43 67 61 105 181 206 219 227 213 196 155 119 159 196 235 239 246 246
48 63 65 66 25 42 38 55 80 75 69 29 44 39 35 46 44 -64 -58 9 13 -10 -4 3 31 51 61 76 86 131 178 213 220 198 161 133 116 133 153 187 180 189 204 222
48 39 29 39 27 26 47 69 78 75 59 49 52 52 19 9 -7 6 45 20 12 -5 -5 -4 23 52 54 44 36 68 100 117 109 84 62 42 86 141 145 163 169 212 258 316
31 16 17 29 16 22 22 27 42 66 94 35 64 42 116 74 39 60 43 39 10 1 -29 -28 35 28 44 54 60 49 46 47 34 -17 -9 56 148 172 209 235 261 277 284 306
60 11 3 30 30 17 26 4 1 4 13 75 93 113 76 47 21 26 35 32 19 -16 -39 14 32 48 64 68 29 12 21 29 41 65 121 156 195 226 245 257 257 257 346 337
66 15 18 37 35 20 27 13 26 87 78 77 72 66 47 65 41 22 28 30 9 20 24 26 55 45 74 38 11 26 45 53 58 78 105 127 144 198 197 224 255 230 239 250
57 32 9 36 37 23 10 33 18 72 60 94 40 53 39 32 17 36 35 2 7 35 37 41 60 61 59 32 23 11 -6 -1 40 112 52 82 108 133 124 171 149 241 245 262
29 27 22 32 21 16 23 23 40 34 39 10 62 29 30 17 -1 22 12 15 25 54 83 61 44 50 35 39 36 24 29 34 59 44 18 67 96 77 138 199 153 147 191 203
65 59 30 26 24 16 22 57 36 19 42 37 4 9 -6 19 2 -2 4 9 29 68 103 38 28 44 35 22 15 27 25 48 48 10 -12 6 90 145 119 110 120 131 119 143
35 33 26 24 18 32 17 20 33 40 18 31 19 8 -12 -9 22 33 41 22 14 59 60 51 30 33 34 22 47 44 16 38 22 31 39 54 116 111 46 52 21 16 15 23
21 19 16 20 15 40 25 53 34 38 31 14 17 -5 8 56 60 48 45 27 31 25 30 39 21 32 30 30 26 28 24 26 31 23 23 17 -4 -14 -16 1 3 6 3 8
30 17 18 9 21 27 31 65 57 46 27 8 -0 -11 38 82 59 63 36 22 14 19 17 8 -4 2 -11 -12 -20 -25 -35 -36 -28 -28 -20 -22 -18 -18 -19 -8 -8 4 11 21
16 38 38 40 37 41 62 42 46 18 -8 -9 -18 4 45 69 90 50 42 30 11 -7 -19 -16 -19 -17 -0 -3 -33 -30 -46 -32 -16 -9 -12 -17 -7 -4 -0 8 11 18 20 27
4 26 24 42 18 23 21 66 37 28 10 -23 -1 18 30 91 82 63 61 19 16 6 -6 -13 -2 -8 2 -1 -11 -30 -26 -28 -5 -0 -4 -4 3 16 28 25 16 22 14 27
61 31 30 30 5 -1 2 -26 7 17 -5 -34 19 13 34 68 96 89 65 38 20 16 -3 7 7 -6 -3 4 1 -18 -24 3 10 10 5 9 17 17 18 22 31 53 65 80

GFSCGP_con_3kmhel_063.txt.gz
Helicity
118 106 51 96 125 126 95 134 128 107 119 115 81 52 52 57 45 46 57 70 77 73 84 111 141 152 156 154 173 161 193 162 204 238 219 174 200 185 161 156 128 138 147 142
175 34 53 58 112 115 82 153 153 168 150 106 93 66 49 56 67 63 65 79 74 65 74 83 110 138 168 164 167 183 194 211 241 268 233 239 174 174 164 155 134 133 146 174
41 96 112 104 79 96 133 126 164 141 138 104 65 12 51 69 89 117 125 100 100 94 79 90 98 104 137 142 143 169 187 182 211 255 275 291 274 244 188 171 163 162 188 224
25 49 -7 167 239 172 206 167 128 116 127 123 109 96 113 91 158 206 241 222 223 219 162 139 156 165 179 178 181 172 156 186 181 188 249 276 275 225 224 214 194 173 186 216
93 -123 -55 2 128 191 173 198 126 136 140 129 125 73 145 140 193 200 288 289 269 237 212 244 246 235 212 216 198 178 173 150 154 147 133 177 197 241 252 243 184 196 217 212
98 102 66 22 -7 -20 15 131 196 131 132 145 145 123 164 149 155 159 206 249 244 223 187 178 177 171 174 168 173 186 202 196 183 171 143 129 129 145 181 202 188 180 211 248
178 146 184 51 132 75 69 111 155 147 191 128 106 104 112 120 133 96 146 196 189 152 160 172 175 168 167 164 152 136 150 185 215 205 175 141 117 128 151 160 181 167 223 240
173 143 112 92 96 55 89 64 111 124 112 100 89 106 99 109 46 65 126 114 86 82 79 92 107 111 121 125 114 122 133 147 143 163 178 164 150 153 159 162 189 196 195 185
121 150 117 122 84 95 87 72 56 82 104 100 83 91 82 89 115 116 85 51 56 43 32 42 61 61 61 96 115 116 117 104 128 141 146 163 164 155 148 141 148 162 177 212
90 131 93 63 90 129 74 69 80 83 97 122 104 98 73 67 126 112 99 67 38 16 7 3 7 17 17 38 52 95 118 119 115 148 153 164 183 184 167 152 135 123 133 134
45 76 100 78 73 49 86 91 91 90 88 103 149 106 49 41 75 123 104 32 -11 -2 -2 3 31 39 40 32 38 63 84 138 187 197 197 223 236 238 218 200 187 163 152 146
48 32 75 69 54 51 63 72 79 87 80 61 79 99 46 45 76 125 67 -10 -20 -21 -0 25 18 18 29 68 110 117 112 123 169 200 208 220 221 202 190 175 155 152 161 170
35 50 60 59 41 66 54 63 70 52 45 36 70 59 49 66 47 65 -75 -52 -21 -12 2 1 14 39 64 79 73 93 136 145 137 154 169 177 172 139 114 118 131 149 182 226
68 52 43 43 45 38 52 62 75 69 44 39 48 90 67 98 35 16 17 -14 -1 -16 -9 -6 -1 36 56 81 101 95 92 85 92 114 94 95 85 77 83 169 214 217 212 237
48 30 41 36 34 48 46 40 56 70 65 42 68 45 81 55 46 14 10 39 7 19 -2 -7 20 37 57 58 47 63 64 65 57 82 105 80 29 76 170 214 227 271 325 347
62 23 29 44 33 31 48 27 20 35 40 65 49 93 84 44 36 38 41 19 24 20 28 22 31 50 37 23 35 42 45 16 1 20 63 62 106 152 143 145 175 199 267 297
64 19 17 44 35 26 42 32 46 48 42 38 52 48 36 39 31 17 15 20 25 8 14 43 35 52 45 39 27 46 29 -7 -25 15 84 88 81 77 88 139 152 167 222 240
57 23 11 41 39 35 16 26 9 66 72 66 74 73 51 40 31 25 32 24 16 6 19 45 54 51 59 37 35 50 48 31 21 45 50 18 61 88 94 122 199 233 241 186
35 31 28 37 30 32 24 26 41 35 71 50 36 81 34 -2 16 20 30 21 -0 -16 25 68 52 38 45 41 40 41 49 41 65 47 8 18 30 84 96 149 169 124 123 153
56 49 26 30 31 26 21 58 34 35 55 51 27 24 5 7 11 -1 25 25 3 -4 30 64 38 37 38 41 36 32 29 20 47 33 26 18 53 65 55 55 76 63 75 73
42 38 34 34 30 34 12 8 41 54 49 61 22 26 2 -5 -0 45 52 32 11 20 46 58 62 41 13 1 18 42 57 44 44 34 34 50 54 24 13 12 1 14 29 26
26 33 31 39 43 54 32 62 47 52 92 31 5 -2 -8 20 54 59 31 40 23 33 52 52 41 28 28 21 17 29 45 27 31 49 57 30 -8 -20 -17 1 2 6 5 8
37 23 29 25 33 18 19 39 51 47 107 33 13 -4 -10 43 42 59 30 36 17 12 8 13 13 10 -8 -7 -19 -7 -16 -30 -10 -6 -10 -16 -14 -16 -16 1 4 6 7 8
19 23 31 42 40 23 18 25 28 39 37 35 5 -13 -3 36 80 77 41 39 10 4 5 -1 5 -13 -5 -3 -27 -21 -12 -25 -16 3 -2 -13 -2 3 3 3 -0 3 2 6
17 37 25 25 -1 29 40 27 27 44 51 37 20 -0 -6 63 69 69 55 37 13 -0 4 -3 14 8 11 9 4 -7 -4 -10 13 9 -2 -0 8 14 18 20 13 15 11 19
75 38 61 34 19 -3 -0 -3 -2 -4 44 -2 -5 9 9 45 86 99 72 66 30 3 14 14 14 26 22 16 6 -13 -17 9 19 18 12 12 19 20 24 27 29 35 40 52

GFSCGP_con_3kmhel_066.txt.gz
Helicity
105 115 90 159 70 119 87 48 46 79 83 73 64 49 40 89 93 78 72 75 74 69 103 124 130 134 127 152 161 142 125 91 107 150 185 186 185 166 173 155 93 93 101 95
151 46 -1 113 73 119 54 34 31 114 87 114 56 42 25 31 51 67 81 84 85 93 83 107 113 128 141 147 155 172 175 155 150 172 166 161 153 175 153 147 123 106 91 92
110 79 83 98 54 103 60 59 65 116 107 119 97 53 35 68 91 78 85 92 96 102 107 115 142 153 163 167 190 211 210 202 199 184 197 217 224 221 197 206 168 136 118 106
99 124 108 74 88 96 128 118 93 95 105 152 123 105 86 94 108 109 124 148 152 148 146 151 172 192 204 199 199 199 218 222 227 223 243 242 253 263 253 209 167 149 118 141
90 52 139 117 114 138 95 118 137 134 141 147 127 163 77 79 95 136 177 194 196 185 174 184 193 194 198 217 225 198 177 176 171 173 176 174 159 162 157 156 159 137 131 139
69 38 50 74 318 270 132 258 217 166 159 138 125 187 83 108 111 133 193 226 220 197 178 166 163 163 164 151 145 147 156 168 196 193 180 149 121 116 135 131 131 133 145 166
97 162 83 143 166 177 235 250 244 206 169 177 155 152 183 129 153 142 183 199 204 185 170 155 156 146 147 149 141 123 124 122 125 134 155 164 140 123 122 110 116 111 134 172
82 64 77 110 98 83 91 277 225 181 158 180 150 168 150 116 126 142 159 151 135 130 117 127 134 123 106 102 103 116 132 131 123 123 129 128 136 153 158 155 169 170 161 147
87 107 70 77 95 80 74 154 151 158 168 150 128 103 104 130 127 125 123 105 94 79 66 66 71 77 77 98 107 107 113 128 149 154 155 160 156 144 139 138 149 163 166 176
47 68 76 40 34 82 73 54 88 128 125 123 79 93 77 106 139 115 100 82 56 51 47 35 33 47 65 80 98 123 150 161 169 191 189 192 195 184 170 161 159 153 154 149
58 79 69 73 69 45 72 74 77 89 107 102 101 73 57 66 117 147 133 85 52 45 34 23 34 47 62 80 107 137 164 168 175 196 218 236 250 266 261 260 246 222 190 158
58 57 69 65 70 72 65 59 64 107 71 94 111 79 54 83 97 132 122 72 19 7 3 -1 27 42 66 97 113 117 123 134 140 145 177 208 225 226 223 214 204 189 172 143
16 36 73 59 39 46 39 30 49 58 74 68 111 103 70 33 30 32 13 -3 -26 -11 -18 -9 15 36 75 87 82 88 101 103 114 131 132 148 174 190 201 187 158 160 169 174
50 38 51 57 62 46 50 36 44 63 56 55 82 86 46 47 49 43 12 -27 -34 -5 -8 12 -1 28 64 65 65 66 75 76 76 99 127 138 144 134 121 98 105 139 162 172
62 42 38 39 46 48 51 38 22 43 58 53 79 71 72 64 46 32 15 -6 0 1 10 30 19 36 61 61 55 59 78 74 64 91 111 87 87 103 123 124 128 155 168 184
68 25 35 28 23 26 42 29 19 17 23 32 49 100 72 59 34 15 27 27 9 22 24 37 38 45 70 63 55 59 46 33 34 61 47 75 89 82 101 122 125 150 170 177
54 31 35 30 40 41 47 36 34 37 50 58 47 81 95 65 36 31 20 18 19 24 18 31 37 62 66 61 52 37 37 24 13 44 72 75 79 71 92 92 95 137 174 211
37 34 25 36 39 47 43 45 32 29 43 20 59 77 73 45 25 25 21 12 16 18 5 19 39 68 66 45 49 39 41 27 29 59 76 75 86 45 51 60 103 125 116 131
51 41 31 40 38 52 29 30 30 45 97 49 50 81 61 27 18 17 33 33 24 25 20 42 94 59 48 42 43 48 44 45 48 55 51 54 36 43 48 79 72 87 122 115
45 43 34 35 45 43 38 55 39 52 68 73 41 50 38 18 17 16 33 21 36 28 11 49 57 45 36 37 32 53 55 42 59 49 44 46 62 44 53 38 55 60 53 62
36 32 30 30 42 36 28 36 46 51 66 77 34 32 27 11 26 39 45 33 36 31 39 59 45 36 39 38 53 63 63 84 47 50 61 45 36 39 34 16 7 7 12 16
22 31 34 35 40 46 49 63 27 56 59 80 33 11 9 18 44 46 46 32 24 44 60 43 30 44 48 53 51 59 77 62 55 57 56 41 14 -4 0 12 -5 2 8 15
28 32 41 25 50 61 52 71 45 22 63 69 35 20 5 16 27 38 35 30 20 23 16 7 15 29 34 32 22 35 27 24 28 23 12 8 6 1 -5 6 11 10 6 6
17 17 27 38 32 1 11 4 37 47 56 39 52 28 7 0 30 44 46 33 20 17 15 20 17 17 19 10 9 -3 -10 -2 4 17 16 7 14 15 10 5 3 5 4 11
45 29 25 17 -14 -3 6 33 56 67 34 13 36 27 10 16 31 48 33 17 20 15 16 11 15 21 25 18 14 -5 4 3 13 21 16 20 21 25 26 18 12 17 20 23
62 46 51 38 34 51 36 43 20 10 52 20 41 18 14 17 38 55 48 30 23 18 23 24 37 48 41 42 37 21 11 9 19 36 29 28 31 27 28 30 36 56 59 61

GFSCGP_con_3kmhel_069.txt.gz
Helicity
186 293 168 79 56 71 98 44 110 15 107 76 60 57 67 56 64 85 99 68 72 92 79 76 83 142 123 126 134 131 133 122 125 129 146 171 172 154 135 139 113 115 118 104
132 68 183 110 54 77 170 115 75 96 114 92 86 57 56 62 50 63 79 96 89 88 97 112 84 101 115 91 104 141 144 118 118 134 158 127 133 168 171 187 173 156 138 148
133 149 103 117 95 91 144 148 106 97 85 100 195 95 79 41 49 79 94 78 96 122 114 95 106 94 114 129 130 140 129 147 142 156 174 152 97 128 153 203 184 153 151 179
76 117 81 28 90 48 130 163 76 90 82 128 59 146 -21 36 56 64 57 62 82 72 86 101 124 127 132 174 205 212 239 233 217 221 239 251 232 221 240 207 185 165 157 144
147 69 63 22 72 64 157 171 96 59 98 120 62 194 45 64 61 78 99 110 120 129 137 130 139 152 158 162 166 163 155 156 164 197 222 251 262 266 217 191 148 152 121 108
120 175 163 93 162 76 154 152 164 153 152 164 68 135 73 33 75 97 117 118 148 155 143 139 146 159 168 172 174 170 157 140 134 144 152 168 188 181 178 156 147 134 146 157
199 179 149 117 254 226 171 151 203 187 174 175 150 139 208 133 122 92 97 144 178 161 149 144 138 131 136 145 145 132 133 123 113 105 92 108 139 145 147 144 138 133 151 163
123 139 113 120 174 215 302 176 218 209 168 128 113 155 142 113 120 189 167 164 157 155 137 128 120 113 101 103 110 116 115 110 114 112 111 107 113 135 159 144 155 170 164 161
84 122 52 83 185 212 294 213 151 227 266 173 132 158 97 99 129 117 138 136 136 125 98 93 87 86 84 82 83 96 115 120 131 142 145 147 141 137 136 144 147 152 162 192
24 57 83 61 83 109 211 166 232 249 124 130 80 91 103 104 126 137 126 111 104 87 74 70 62 60 68 85 97 105 121 131 142 171 196 214 225 229 227 206 206 212 199 203
65 30 37 27 48 52 91 131 173 200 228 198 79 114 99 45 98 128 127 117 95 77 72 56 37 33 55 76 101 116 134 148 160 166 166 184 210 224 235 251 260 250 223 220
61 43 48 49 49 74 77 93 66 89 59 94 123 56 39 64 139 177 149 104 65 58 44 20 14 22 40 70 99 123 140 143 136 136 140 163 180 214 243 253 262 264 271 274
17 26 47 55 35 29 35 40 57 63 66 72 107 35 31 84 76 87 63 46 21 9 -3 -10 -13 -1 17 66 92 103 105 105 109 122 138 153 163 160 189 209 204 187 181 189
47 31 65 73 68 47 49 31 40 66 79 66 92 36 36 39 27 48 29 7 -9 -22 -25 -22 -24 4 18 60 73 72 77 85 90 91 99 115 132 142 146 150 142 129 106 123
56 34 43 67 56 47 43 45 29 60 60 110 136 73 35 40 35 39 35 25 11 3 -9 4 9 33 13 58 71 77 83 87 79 73 78 80 88 88 114 139 148 129 137 154
61 36 35 29 26 31 40 36 25 20 19 25 77 100 89 48 47 55 46 24 6 12 20 21 23 54 60 58 65 68 69 72 57 49 70 82 81 92 104 94 106 108 95 118
49 35 26 25 15 24 20 9 13 32 42 25 40 45 74 85 61 45 30 27 32 32 26 27 20 52 80 62 69 70 79 64 60 64 75 66 56 90 102 96 81 87 99 150
37 31 31 31 18 19 29 39 32 18 48 27 52 80 104 76 55 42 44 32 36 39 44 43 34 58 91 61 75 68 71 64 59 61 64 51 53 74 57 70 85 118 112 108
70 37 25 40 28 39 16 23 36 21 47 19 33 54 72 66 41 15 38 62 61 50 45 63 56 83 94 56 60 66 56 67 65 57 57 53 55 53 79 112 116 105 107 83
46 66 58 36 33 25 46 32 27 40 59 86 82 77 58 41 39 52 46 62 54 42 62 60 56 73 51 55 53 53 61 72 67 54 52 45 55 56 63 50 54 26 21 16
26 31 25 23 38 31 22 43 60 55 60 60 70 56 41 24 50 62 58 43 32 59 71 63 47 53 57 48 44 65 69 97 60 50 46 48 43 43 34 27 15 8 6 1
23 33 28 29 29 18 39 56 49 54 52 76 60 33 23 40 38 42 48 48 40 51 51 62 65 55 50 53 63 61 79 80 64 42 45 36 21 15 17 20 2 4 2 7
30 40 53 25 44 41 35 110 81 58 55 70 63 50 26 22 26 25 29 34 39 32 40 21 29 46 48 44 37 54 50 37 35 26 14 14 24 25 16 16 14 13 9 14
28 32 37 48 26 6 17 37 43 46 53 52 50 47 32 19 16 28 33 40 50 42 36 24 35 30 33 8 7 18 17 11 5 9 17 28 35 34 29 17 11 18 20 23
66 36 22 21 16 17 11 30 58 62 74 63 37 24 21 18 14 33 36 29 38 37 42 24 16 7 11 5 3 4 -0 13 21 30 35 37 33 39 39 39 35 30 34 37
33 27 31 44 75 54 80 83 64 52 41 50 31 20 14 15 18 37 45 33 38 37 43 25 12 20 23 17 18 19 16 27 42 46 44 36 34 34 37 46 59 80 66 68

GFSCGP_con_3kmhel_072.txt.gz
Helicity
122 254 216 106 93 176 100 91 93 46 74 -10 53 72 106 157 130 75 107 152 106 86 83 73 78 91 92 129 123 138 172 167 184 162 221 203 151 118 123 157 133 141 167 194
214 126 154 126 106 103 59 76 74 62 133 94 46 70 85 83 104 94 84 117 116 123 90 87 127 137 154 188 183 167 173 168 171 199 221 231 201 161 137 137 161 188 206 210
159 85 121 120 134 104 152 92 102 112 131 159 140 122 86 78 93 88 92 94 118 143 165 216 242 189 165 170 183 168 148 152 179 162 190 237 197 167 171 160 152 118 167 216
128 27 77 85 105 126 86 63 120 75 173 127 112 104 81 96 127 102 109 106 63 86 95 133 146 119 129 163 186 189 210 233 256 245 226 257 234 227 200 164 135 139 142 155
185 158 240 188 155 150 127 185 157 127 121 118 89 171 135 86 109 167 110 106 170 141 115 137 124 91 85 117 146 161 154 162 195 245 282 271 291 272 209 200 139 115 114 109
313 284 186 141 48 119 165 254 182 78 136 142 107 137 145 146 143 148 163 189 138 113 129 112 112 103 115 150 167 184 162 162 162 159 161 163 161 193 250 262 235 161 122 140
212 243 222 193 160 99 122 107 278 277 222 138 94 129 153 111 82 137 197 157 151 131 131 127 145 132 143 151 175 168 188 165 171 161 130 125 127 150 177 223 199 165 153 153
149 149 125 114 126 110 148 215 220 166 198 200 276 156 144 211 190 144 151 170 134 151 149 149 141 133 111 114 122 133 139 133 138 146 146 142 122 118 140 179 202 181 170 173
105 119 115 98 106 138 177 167 121 225 149 193 161 171 232 217 225 243 190 129 142 152 139 139 125 120 115 114 103 104 121 108 106 125 129 158 168 172 166 177 190 213 224 235
102 111 119 80 120 103 128 186 103 92 222 164 96 115 124 111 192 165 149 122 147 140 119 107 100 92 102 94 98 99 110 108 110 117 116 137 157 166 180 211 238 261 263 261
-2 76 75 24 49 70 139 253 207 188 141 176 81 101 73 84 169 128 133 148 146 133 127 104 89 75 65 65 82 93 110 114 131 150 157 206 231 231 246 246 251 262 290 269
63 23 73 32 31 40 81 132 194 155 156 160 123 73 69 72 85 164 195 154 135 124 106 84 77 55 52 57 84 93 114 120 139 161 167 205 220 243 241 243 242 247 244 248
24 20 40 37 27 35 31 58 141 139 142 154 139 71 88 236 241 134 114 96 103 85 60 43 39 40 40 48 61 86 106 111 116 125 136 176 201 200 196 175 167 183 171 173
55 48 42 55 48 39 40 49 67 99 94 28 52 43 98 149 71 79 40 55 69 42 34 30 42 30 36 52 53 92 95 90 84 101 123 136 138 134 135 140 134 127 110 102
41 32 38 53 37 33 17 47 70 91 73 86 167 55 48 95 60 31 41 48 60 43 37 30 50 43 41 49 51 70 72 80 89 99 99 90 92 105 114 120 130 134 137 152
61 41 43 32 42 32 33 32 28 48 42 66 129 166 82 67 73 82 42 70 66 56 62 74 79 63 58 63 50 59 73 83 91 94 81 80 86 88 110 119 118 111 130 125
57 42 36 35 26 33 48 34 43 64 57 64 78 72 116 110 98 79 86 82 59 75 81 73 64 65 84 75 68 68 80 92 92 87 92 86 98 119 142 121 86 91 90 96
45 41 43 35 17 34 24 43 42 47 44 43 52 94 147 125 99 65 81 58 79 91 79 100 123 110 92 88 103 108 105 95 112 112 91 92 106 100 96 89 67 76 91 89
63 45 33 33 24 16 24 20 33 50 51 36 41 91 101 68 65 49 84 111 112 103 85 112 119 105 106 123 138 105 92 94 97 94 95 88 75 70 69 67 55 66 72 65
53 98 63 45 41 13 29 19 26 24 40 73 77 55 60 66 59 39 75 88 107 99 131 154 136 90 92 109 78 93 103 113 112 76 80 73 56 50 34 11 14 19 23 20
37 35 38 31 33 33 16 19 33 38 45 50 65 62 44 28 34 62 99 71 52 105 142 128 94 68 88 67 82 97 97 95 77 68 68 54 23 18 8 -3 -3 4 -9 -18
31 27 34 29 33 20 39 49 49 35 34 53 60 57 50 38 46 55 62 55 87 105 95 92 112 100 77 74 88 90 94 82 73 53 46 32 5 -13 -10 -2 -2 3 4 9
35 32 37 19 17 31 16 90 85 76 58 47 43 51 40 38 37 51 46 52 71 65 59 71 54 63 57 66 68 77 75 67 60 44 26 6 -7 -16 -25 2 5 1 6 20
16 40 42 53 25 40 20 59 47 66 69 62 56 47 40 28 49 39 52 58 63 73 88 62 64 70 45 41 37 41 33 30 20 0 -4 -9 4 20 27 20 16 24 31 40
51 78 29 33 25 30 28 73 91 66 57 56 61 39 28 22 61 67 54 59 54 65 85 63 87 54 33 31 27 19 0 -19 -12 -7 12 26 24 33 54 68 50 55 44 39
50 48 48 48 61 87 98 143 102 78 63 56 53 60 33 20 38 88 67 61 67 53 93 65 63 52 33 33 15 -2 -27 -26 13 29 35 35 39 45 53 66 83 68 59 71

GFSCGP_con_3kmhel_075.txt.gz
Helicity
135 132 139 65 104 156 171 179 160 82 142 139 103 105 104 127 144 116 123 87 87 55 59 68 59 57 90 143 131 91 129 149 159 174 133 147 171 159 147 151 130 126 145 139
198 64 128 133 153 146 113 114 92 131 37 90 100 60 69 90 134 125 66 91 84 139 211 228 195 194 224 212 236 237 183 169 158 163 165 178 163 138 155 152 155 178 195 182
152 126 6 168 131 105 97 118 114 134 165 193 122 113 106 98 88 127 110 96 101 123 164 216 253 256 263 260 245 255 247 237 221 178 183 228 214 227 205 164 137 159 196 206
126 162 39 107 95 101 91 77 74 143 131 145 140 82 110 101 68 90 115 128 114 109 113 140 167 191 189 179 162 165 192 204 209 262 255 253 269 230 199 182 150 141 165 172
140 76 61 164 129 142 102 117 131 66 51 123 159 112 84 81 104 77 135 138 112 100 142 128 93 90 102 115 132 161 153 162 170 200 241 276 260 238 214 202 172 131 114 118
164 184 163 140 190 197 133 179 170 91 130 130 130 161 57 122 67 162 219 183 150 158 138 114 119 129 153 178 203 219 212 255 235 183 183 193 206 215 210 199 152 136 105 73
215 295 243 206 241 177 128 172 128 113 124 90 135 147 48 122 108 200 251 225 201 148 99 104 147 161 170 184 201 202 203 218 218 227 244 225 175 162 169 178 225 235 192 159
265 328 287 206 176 168 123 113 187 110 125 178 203 120 79 73 113 186 227 239 198 155 147 143 148 145 149 152 159 168 165 166 170 169 175 176 181 166 180 195 211 241 253 252
161 197 157 160 144 108 115 86 101 265 229 170 209 223 139 165 261 239 208 186 174 173 152 145 146 143 136 125 118 120 120 121 129 133 139 145 146 153 158 177 204 242 272 265
67 144 78 70 95 106 119 124 99 100 116 140 119 190 103 140 184 231 224 164 164 160 150 134 128 127 117 108 97 109 102 98 102 110 136 154 158 165 171 188 216 231 248 244
37 86 116 88 55 62 148 142 134 119 122 234 119 67 85 99 209 284 196 163 152 144 130 113 107 98 93 100 100 102 110 116 133 112 133 160 194 206 209 218 227 225 231 227
120 114 119 71 40 27 66 100 165 137 105 82 89 67 79 103 222 233 143 146 157 140 113 103 94 94 95 81 73 77 92 113 125 130 152 169 183 185 191 202 209 208 217 231
25 51 106 58 41 42 37 57 104 170 170 131 87 85 67 119 192 147 165 157 143 134 113 98 100 89 72 61 62 67 87 104 113 126 141 157 165 174 182 183 184 193 187 184
35 46 24 10 26 56 53 58 80 101 111 125 125 132 110 114 147 117 90 82 94 100 90 84 81 75 67 61 64 69 98 101 101 110 109 123 141 150 158 155 144 138 136 135
23 17 32 39 54 48 38 51 75 85 93 98 107 116 49 144 96 41 39 74 93 77 64 75 87 81 69 68 69 75 86 100 84 87 95 110 127 137 139 144 144 150 162 149
56 33 44 38 36 43 45 29 41 55 62 72 99 105 65 74 59 59 45 60 82 87 72 88 104 90 73 67 62 76 81 87 83 85 89 97 113 127 133 140 137 150 124 118
50 54 49 36 24 51 76 38 57 71 70 92 104 91 131 91 72 95 72 84 92 94 119 127 120 107 100 84 79 77 74 86 95 100 101 112 109 111 119 123 125 101 122 164
50 51 51 49 51 55 28 36 36 97 63 54 86 108 104 143 157 120 86 85 84 102 124 129 151 173 156 136 124 106 97 120 109 97 100 107 96 104 106 110 102 115 147 134
58 63 55 49 32 25 26 25 40 52 31 33 46 92 174 191 153 78 81 80 83 115 130 171 181 164 158 150 137 135 122 118 109 109 95 85 93 89 94 111 97 127 99 47
67 76 59 40 30 21 27 21 29 48 33 46 71 72 100 78 65 44 72 100 126 138 167 194 165 163 163 136 139 127 106 94 84 85 83 82 72 71 93 80 78 60 21 -17
51 59 52 49 23 28 25 29 56 34 15 43 67 75 65 49 44 50 80 88 106 147 157 150 152 141 130 114 125 116 97 91 79 90 90 86 66 56 48 41 13 -9 -29 -5
27 37 39 36 35 30 36 44 30 16 49 35 45 62 66 59 57 62 68 79 121 130 112 109 132 146 119 102 97 87 78 89 95 91 77 57 42 28 13 2 -13 -18 -6 7
32 24 25 23 22 16 8 26 52 24 23 44 27 29 35 28 19 41 43 66 98 94 73 90 110 102 89 80 69 84 88 86 76 61 45 29 8 6 -10 -10 -11 -11 -2 16
30 28 32 46 33 35 39 53 46 46 47 56 49 41 30 28 35 43 55 79 101 86 71 81 100 105 84 67 67 76 80 69 60 49 29 11 -3 -16 -21 -18 -5 9 17 32
26 53 31 37 28 25 6 53 56 64 56 55 60 53 44 43 44 44 62 81 98 90 73 88 102 92 64 55 53 47 32 30 24 7 6 -3 -9 10 21 19 23 38 30 30
46 45 68 35 41 46 38 88 84 67 51 53 53 56 54 43 34 55 56 82 98 87 72 81 90 91 70 48 34 20 12 7 11 14 9 10 27 33 44 72 75 57 57 69

GFSCGP_con_3kmhel_078.txt.gz
Helicity
143 54 197 102 113 186 191 221 135 135 166 113 85 93 90 113 120 100 111 112 113 109 125 103 98 69 101 102 83 108 121 122 154 175 184 199 186 184 148 114 119 108 128 142
263 101 88 95 104 118 112 130 152 126 78 117 87 62 101 95 86 79 68 83 120 91 72 103 136 172 178 174 162 132 133 147 154 175 179 191 190 173 173 165 153 140 134 146
168 -8 105 100 126 100 117 125 134 127 112 96 82 57 71 83 66 72 80 66 74 99 90 136 253 249 248 235 222 218 192 154 136 146 173 200 207 208 187 181 185 169 172 170
111 131 142 95 84 82 117 91 115 104 112 130 128 64 83 33 67 71 63 79 81 106 166 151 179 231 245 245 245 233 203 204 213 199 154 160 157 163 167 172 172 163 161 179
167 82 55 84 103 133 87 71 79 100 139 140 121 101 62 99 85 53 27 55 67 141 181 177 174 169 165 181 188 184 184 196 179 176 225 203 195 191 178 165 170 162 173 173
160 53 97 35 234 153 98 139 165 117 113 102 83 124 34 103 57 88 58 75 130 167 184 149 116 125 187 211 216 217 221 243 266 241 227 212 223 222 221 210 193 155 144 150
153 109 96 125 221 229 134 135 132 148 109 60 89 128 134 47 82 67 135 187 186 234 210 148 93 92 139 188 213 202 207 237 241 240 248 227 194 183 181 191 181 167 166 170
129 110 88 150 220 127 185 92 105 72 47 37 96 56 86 51 23 56 168 247 241 211 175 115 77 133 163 189 196 186 193 199 203 199 203 199 201 188 188 188 188 214 224 224
206 125 179 124 172 146 151 106 131 68 59 90 66 67 110 85 96 173 199 245 229 222 184 152 147 164 174 170 172 155 147 148 156 154 145 162 167 172 171 181 185 199 224 236
144 224 190 164 159 185 126 84 88 88 71 88 51 81 89 96 128 174 177 213 227 204 183 167 167 163 149 127 126 123 110 112 118 128 133 142 162 171 171 179 193 202 212 213
99 100 119 139 121 119 155 136 127 95 120 82 50 -1 61 137 130 190 192 184 162 150 135 127 132 132 118 105 98 98 101 99 109 118 128 148 164 171 178 190 206 219 237 249
62 99 141 65 65 68 98 93 124 116 120 109 78 48 66 23 156 183 194 162 131 120 114 111 108 104 100 89 84 80 79 88 95 103 119 136 148 159 173 188 199 203 219 241
54 96 176 105 106 93 91 87 102 143 152 126 128 81 70 69 167 184 204 151 122 131 130 117 107 90 80 77 69 61 55 62 86 104 118 134 143 151 165 177 188 198 194 199
24 51 34 39 51 105 77 70 76 143 151 130 124 85 95 85 141 161 171 147 132 110 107 108 102 87 77 66 58 56 61 66 83 110 124 133 133 131 140 157 178 187 179 169
22 33 43 55 46 60 59 78 97 87 75 109 88 76 79 68 85 108 122 109 118 101 94 99 101 84 82 80 81 76 77 76 83 105 115 115 106 123 143 166 165 160 166 154
41 22 43 63 51 57 56 43 72 83 83 72 75 28 64 31 82 97 68 73 58 68 81 81 96 96 88 84 82 85 81 82 84 96 89 79 89 105 120 129 131 147 154 164
46 53 61 43 42 41 54 15 73 79 85 94 97 51 81 86 51 77 50 47 49 78 101 107 113 109 110 107 101 90 92 85 89 90 79 73 80 102 109 114 129 146 151 140
49 69 64 52 72 56 32 63 62 102 63 85 96 103 91 70 78 71 64 58 39 98 110 130 162 163 151 144 153 139 114 92 90 93 77 70 83 101 117 130 130 131 115 111
55 68 67 61 50 32 34 34 48 65 42 49 59 94 101 163 199 127 111 89 67 86 118 160 183 196 198 182 176 169 138 113 108 108 88 73 81 107 101 113 104 93 90 106
86 85 68 54 47 32 46 41 36 53 37 38 62 72 132 191 144 104 88 83 91 110 146 170 201 213 181 167 175 159 134 102 106 98 79 76 91 92 93 96 83 82 68 61
78 73 58 52 31 43 25 27 27 46 37 40 45 92 92 83 52 63 65 82 99 123 143 180 190 163 162 180 160 134 120 97 97 95 86 95 89 77 83 78 59 44 36 35
44 46 51 50 34 28 32 51 36 18 32 22 41 52 57 58 47 47 52 74 98 121 149 147 141 142 161 179 141 121 99 96 100 93 92 99 80 64 47 33 14 18 25 39
43 32 38 42 45 26 15 29 23 33 25 27 25 34 40 47 32 34 33 55 79 100 108 110 106 129 127 118 110 97 92 106 109 96 87 69 56 39 18 3 11 21 23 29
44 34 39 45 37 26 14 39 43 38 38 42 46 41 34 29 25 36 40 67 82 98 87 83 106 116 113 91 81 79 106 112 97 78 48 43 44 19 -2 0 9 18 22 33
23 48 36 44 41 30 23 17 39 51 50 51 55 51 43 37 35 48 51 59 81 94 105 90 96 99 98 101 93 108 116 111 78 54 49 31 12 13 9 6 9 21 20 36
47 47 59 33 20 32 32 53 69 55 37 41 42 43 50 50 43 42 47 52 92 107 117 88 76 90 88 87 75 79 75 60 40 47 27 14 17 19 25 39 60 38 34 32

GFSCGP_con_3kmhel_081.txt.gz
Helicity
270 297 115 61 180 155 202 200 175 150 149 157 116 120 149 183 125 66 59 21 -3 45 80 82 73 62 63 63 56 76 114 134 209 208 192 180 160 154 135 129 108 99 120 135
299 121 47 -74 187 151 129 225 152 142 122 133 107 90 81 97 64 103 63 49 -23 20 56 80 118 103 86 99 62 64 90 153 172 195 195 197 168 148 163 161 150 115 130 162
219 133 -13 150 144 191 189 136 199 129 108 122 100 75 51 27 55 65 90 84 65 50 102 111 114 144 170 168 136 120 102 101 123 139 190 193 201 202 197 187 175 138 136 135
177 62 -193 242 168 148 197 107 114 138 175 124 94 31 86 35 -13 52 59 55 67 87 135 160 125 140 203 241 227 187 176 165 148 135 155 168 182 176 159 158 169 158 157 150
177 -12 -159 202 161 135 124 110 134 144 138 142 122 69 12 86 63 -17 9 39 42 114 129 127 124 139 198 228 227 208 193 203 202 182 155 144 154 164 174 161 147 144 149 150
104 175 4 31 209 121 125 154 198 172 135 93 63 95 -46 103 89 74 61 96 87 98 152 156 174 194 222 225 201 179 184 187 182 177 183 160 146 145 153 155 161 166 169 164
92 127 71 90 111 112 102 125 197 192 145 77 56 80 3 99 79 57 68 79 111 154 193 193 195 218 211 214 185 160 169 193 198 196 210 216 191 162 139 140 152 156 154 152
130 131 93 25 108 149 146 106 154 211 145 76 69 18 8 13 36 33 34 85 159 207 233 194 182 184 167 159 137 154 203 224 224 198 183 179 192 191 196 186 172 171 167 161
76 193 125 163 138 188 176 127 139 156 129 84 41 9 19 16 18 38 47 123 154 215 208 193 178 145 126 129 147 169 180 190 191 173 153 162 161 163 164 176 175 174 186 183
106 106 20 102 191 221 154 109 120 81 32 8 10 -39 -19 -32 5 68 119 166 159 217 240 218 194 155 154 163 166 163 155 150 137 138 135 133 140 148 151 158 172 177 183 190
125 73 27 63 146 111 133 120 109 112 92 -1 -44 -30 12 18 30 76 136 182 187 175 174 161 148 150 159 168 149 135 122 107 111 113 116 126 141 152 167 172 181 194 202 214
49 78 136 103 109 55 116 76 117 98 108 90 31 -1 21 -2 13 82 131 153 133 128 121 124 123 133 118 121 111 100 91 92 88 91 103 115 130 143 155 174 190 200 212 227
43 34 124 114 64 74 46 93 116 119 119 45 87 62 30 76 67 91 150 135 120 123 119 117 123 110 96 100 89 81 69 61 62 73 83 106 126 139 149 162 177 194 201 217
54 49 60 46 28 73 76 94 94 130 102 77 100 19 -0 33 44 100 140 162 144 103 98 120 114 98 85 79 78 72 61 51 54 65 83 103 127 138 148 161 179 189 189 191
37 41 53 71 47 84 89 129 98 66 78 102 69 45 57 59 58 65 146 157 144 103 88 96 104 97 92 89 82 77 63 57 56 74 92 100 118 131 143 156 158 169 174 169
41 45 66 71 65 49 43 61 52 47 109 57 69 46 26 56 100 78 98 143 117 82 68 82 94 95 94 88 90 85 69 56 63 89 88 84 94 97 98 106 125 142 157 153
37 35 59 50 61 48 44 23 84 101 132 100 70 68 15 38 75 58 78 92 63 48 68 81 80 86 105 101 111 102 101 91 91 90 77 82 81 83 88 97 111 126 133 136
41 62 72 45 73 47 22 41 45 124 77 127 86 22 18 1 44 49 52 54 37 54 67 76 104 125 131 139 140 151 136 118 110 83 70 77 75 83 93 107 118 132 138 148
61 70 75 59 50 31 30 32 43 41 25 73 70 57 45 44 97 98 72 43 38 67 74 85 136 156 177 181 174 169 142 131 111 73 65 80 83 85 100 122 126 129 140 142
85 81 72 71 58 41 43 53 35 40 41 43 59 44 75 100 93 71 71 75 89 92 95 118 165 199 205 194 195 173 148 126 108 86 85 103 106 94 101 110 123 118 117 122
76 76 58 65 56 47 25 29 28 61 30 42 46 39 88 80 62 85 98 103 98 92 107 147 177 180 173 189 202 172 139 101 119 112 112 104 86 94 107 116 103 90 101 88
61 63 51 72 51 39 33 47 46 36 41 29 34 44 56 62 55 57 48 55 56 80 116 130 170 163 154 177 185 163 118 123 127 117 101 98 99 99 88 92 92 78 56 50
58 45 33 44 46 35 37 61 42 31 36 31 28 38 46 56 47 37 33 35 53 75 98 117 114 138 126 145 146 130 112 123 112 105 101 97 100 89 70 57 44 46 34 36
45 33 42 52 42 26 23 23 34 49 46 32 38 47 26 42 33 48 51 62 52 59 80 95 111 88 93 110 110 95 118 115 112 110 100 98 89 65 44 30 32 38 35 30
27 35 36 50 41 37 22 24 33 47 50 49 55 52 48 41 43 34 45 58 59 65 81 101 91 80 77 98 101 105 116 124 117 110 99 96 62 40 35 18 26 25 16 39
30 38 51 31 9 22 34 42 49 57 42 38 31 38 44 42 37 35 27 43 59 72 87 94 100 85 76 95 99 83 104 122 124 106 95 82 66 47 38 42 43 22 26 22

GFSCGP_con_3kmhel_084.txt.gz
Helicity
313 271 53 21 193 169 205 246 224 219 198 174 132 114 81 76 140 98 81 243 356 276 236 207 97 40 49 60 55 63 91 99 130 140 127 112 87 114 88 79 59 84 103 115
253 148 91 39 78 191 119 168 173 169 196 171 117 98 63 72 89 95 70 74 63 117 66 56 26 88 42 56 46 45 47 95 134 161 155 145 147 123 137 124 106 102 101 124
277 147 117 67 95 171 123 125 216 168 208 215 129 121 101 49 79 67 61 72 26 53 17 31 27 44 85 84 73 71 63 75 116 139 176 168 160 160 156 143 130 137 141 140
210 206 68 8 41 148 160 107 165 138 191 155 128 81 109 74 42 42 45 108 69 37 32 -53 -23 44 99 125 140 147 133 123 119 108 125 136 155 150 139 136 147 150 146 135
158 164 69 20 12 183 144 101 199 201 190 159 127 92 73 132 95 -2 -18 18 35 69 86 55 74 98 151 174 204 224 220 209 191 159 131 120 112 122 124 119 118 120 116 122
138 177 46 -51 125 205 143 237 231 183 169 120 91 90 -20 80 99 75 69 41 58 80 85 103 166 183 196 198 199 233 239 234 214 188 173 144 116 113 122 125 125 130 134 134
129 42 -132 -52 127 179 169 228 313 215 151 70 65 81 -17 77 70 53 62 70 71 107 175 227 237 215 210 193 183 198 192 212 209 187 169 158 144 136 122 127 135 146 158 161
87 -108 -62 -3 146 108 180 193 254 228 175 113 99 50 0 24 16 45 82 71 103 138 173 235 277 252 218 184 180 201 176 171 182 176 180 185 190 170 175 175 162 161 158 161
11 -24 13 19 75 150 148 90 162 156 186 156 101 67 45 43 32 9 58 29 8 93 154 236 315 308 269 235 208 178 176 176 181 172 195 205 197 187 170 171 172 171 182 176
59 -56 10 18 60 131 115 105 109 129 98 91 90 55 44 37 49 58 56 29 44 105 187 266 302 311 286 240 210 188 166 168 186 197 189 180 172 168 159 160 173 173 179 177
114 117 36 56 73 80 207 172 122 97 86 56 33 47 6 58 71 89 49 74 87 145 175 203 239 243 226 195 146 140 155 166 182 159 149 144 143 140 138 141 149 153 158 174
98 104 71 49 131 77 149 119 146 85 46 46 10 51 55 24 23 35 32 81 112 147 132 151 154 170 157 149 145 145 148 147 130 109 104 112 116 124 134 148 160 169 174 190
66 42 38 55 86 116 92 105 114 114 66 7 26 -16 66 76 50 109 12 49 107 137 131 133 117 103 113 120 133 129 106 102 91 83 85 98 111 120 134 141 153 161 175 195
63 49 70 59 40 79 80 96 102 108 80 67 99 92 41 19 1 24 47 78 96 128 130 110 101 83 83 91 84 106 91 83 78 73 69 74 83 97 117 135 153 166 174 190
40 18 50 36 30 64 75 99 129 147 147 94 50 24 56 36 18 50 72 109 142 114 104 84 89 79 74 79 86 90 80 65 59 59 53 55 75 97 119 142 158 163 165 163
63 67 58 73 60 47 44 39 73 82 77 70 21 19 11 53 66 69 70 105 113 96 75 78 79 81 75 72 81 84 85 74 69 58 48 58 76 84 95 113 131 145 154 158
46 49 67 59 55 40 37 36 71 73 98 55 101 155 84 41 44 34 42 48 73 60 79 78 74 80 80 74 87 85 92 106 94 73 56 58 70 81 90 92 101 117 139 151
18 33 36 26 49 33 18 12 16 76 78 102 97 84 50 23 2 15 45 63 45 52 41 63 88 88 90 107 114 130 131 129 121 102 91 81 75 74 86 97 101 121 132 140
54 50 45 31 22 23 19 27 23 6 27 32 65 36 87 46 0 23 61 53 41 32 18 52 101 131 150 145 151 164 154 133 124 103 89 90 72 83 91 104 112 125 141 156
84 86 70 50 34 29 26 33 26 13 29 24 11 40 100 89 52 50 76 93 73 44 44 68 117 156 184 189 208 193 159 141 106 96 98 105 80 92 100 114 127 137 149 146
63 76 67 53 43 43 25 30 32 60 29 47 35 37 74 69 46 64 70 108 91 72 80 108 130 143 154 183 195 182 167 128 126 134 141 115 102 102 106 124 130 138 142 133
47 50 52 78 51 31 40 52 51 41 37 25 31 27 45 62 69 69 85 93 85 81 86 90 111 127 144 174 182 149 133 152 175 143 129 121 106 96 101 112 128 112 111 105
50 38 38 38 34 33 24 43 50 37 47 26 30 23 37 60 65 52 51 52 52 43 60 77 102 116 116 112 132 134 127 164 150 136 119 102 92 93 104 115 110 95 80 85
29 21 35 49 38 18 10 18 20 29 39 32 28 23 5 14 44 60 56 44 41 54 50 67 83 97 92 83 95 105 137 147 140 114 103 101 110 110 106 101 75 76 60 53
22 33 33 39 31 31 26 19 26 36 43 49 50 43 49 43 39 35 24 31 84 76 50 66 69 79 66 86 87 102 131 143 127 117 115 117 100 107 97 61 36 32 29 42
24 21 34 29 9 21 26 30 36 39 43 41 40 44 47 52 55 48 40 36 38 43 57 73 74 73 80 87 93 100 119 134 138 131 128 128 106 113 79 58 47 16 25 22

GFSCGP_con_3kmhel_087.txt.gz
Helicity
134 123 90 -1 -7 179 193 279 149 212 194 142 109 82 84 87 90 106 116 141 165 137 158 209 287 126 90 94 100 77 69 82 96 102 87 61 53 55 46 39 39 46 42 51
74 -12 30 40 16 163 169 233 205 225 177 145 116 72 87 87 87 96 92 120 100 144 218 295 350 152 140 121 88 86 99 49 94 119 101 97 98 72 83 85 68 77 75 59
38 58 58 60 73 116 169 202 225 141 170 172 104 91 103 106 112 97 92 99 89 45 155 274 300 262 130 173 114 46 40 41 55 90 126 130 117 97 94 97 98 92 93 94
97 198 53 134 83 112 114 118 169 127 140 160 161 83 104 104 99 99 63 64 49 51 101 173 178 190 190 129 60 58 73 77 69 81 89 96 110 110 107 107 110 107 96 108
91 113 58 73 -19 77 87 63 135 169 168 153 143 103 75 149 72 82 65 70 46 65 69 124 167 85 -31 28 69 92 128 140 126 102 95 96 89 106 108 98 94 92 89 83
102 149 106 68 -3 -21 289 162 165 179 132 125 90 90 12 90 101 80 63 44 54 58 36 22 45 -58 -29 47 78 132 164 178 174 160 144 105 89 92 95 94 94 104 110 113
85 109 93 10 -58 79 196 156 282 219 161 97 101 85 37 48 50 67 57 46 63 77 80 77 115 133 63 88 130 156 195 229 212 195 181 151 127 115 110 113 115 120 129 145
65 36 64 -61 -12 122 116 164 266 216 140 125 123 45 25 38 -22 30 58 96 82 73 105 121 179 192 205 153 151 194 198 223 213 186 170 157 147 134 138 142 145 167 182 190
50 -10 10 -136 -40 136 163 129 172 173 208 129 85 85 87 -3 55 30 25 18 42 54 88 125 201 262 277 278 256 218 230 213 206 191 186 193 195 190 176 191 176 173 183 185
94 7 -23 -100 22 56 248 158 141 145 120 104 78 74 86 83 87 78 52 25 47 41 38 111 197 304 333 296 258 220 213 194 172 184 195 205 209 212 203 189 185 171 166 171
54 27 -6 16 77 67 111 81 123 101 107 118 87 93 86 102 105 97 94 63 67 37 51 127 233 304 287 282 247 206 191 170 173 175 190 207 214 209 192 180 170 160 156 167
31 47 19 72 71 36 124 94 108 47 49 100 109 132 49 87 96 129 99 75 73 83 111 166 220 221 216 215 206 197 182 167 165 172 177 176 168 160 153 154 155 153 156 165
70 66 28 83 66 63 68 102 124 105 79 23 32 77 26 33 50 19 80 50 48 83 122 155 161 149 140 129 132 133 141 144 151 158 149 131 126 120 116 118 127 142 148 162
64 67 76 56 46 62 61 99 107 127 79 65 77 53 51 3 17 -22 19 43 34 71 102 108 108 98 104 112 107 109 102 93 79 87 105 113 104 104 105 109 120 131 145 158
52 66 82 96 36 48 68 75 110 110 109 69 22 43 44 -4 -17 41 32 48 59 103 103 92 89 73 75 80 89 82 79 76 71 83 77 79 75 82 95 111 123 138 147 160
69 67 64 110 73 40 53 50 40 29 42 40 87 41 10 45 33 92 91 103 98 74 79 87 74 65 66 64 66 77 73 74 68 77 73 69 63 72 89 106 116 131 144 145
47 44 81 149 75 59 68 33 41 49 80 69 76 84 49 47 76 78 82 80 68 38 65 78 62 64 72 72 79 73 72 87 88 88 88 76 66 60 65 84 98 107 125 130
36 47 66 59 73 78 41 34 21 31 48 50 67 83 68 47 39 50 57 100 61 37 56 54 68 63 59 87 96 106 110 99 98 94 94 83 74 76 72 68 83 104 116 119
29 28 43 44 43 39 31 34 32 20 44 33 62 86 87 67 60 26 39 74 50 62 69 41 48 61 109 119 133 141 131 118 112 95 90 88 86 75 69 79 87 103 125 135
55 62 40 29 30 31 27 31 8 8 50 31 17 40 35 67 54 76 113 85 61 51 43 42 59 87 117 152 186 186 153 133 94 94 94 96 101 87 70 77 97 129 122 136
49 62 49 37 37 28 8 1 12 34 30 35 9 5 2 35 61 89 112 138 108 96 86 68 76 100 122 178 202 183 171 126 135 142 135 133 111 109 99 102 118 136 144 142
20 38 43 60 40 36 17 32 33 31 30 12 15 9 19 49 75 99 110 108 100 83 86 88 97 119 129 151 167 158 138 138 156 168 162 160 132 111 110 105 122 131 134 127
33 16 29 33 28 19 16 15 34 41 27 30 23 19 18 35 53 57 62 71 84 78 82 81 79 97 108 122 127 135 110 153 169 163 151 140 116 110 102 107 130 127 116 104
13 6 28 45 36 24 19 20 16 29 37 31 30 17 5 20 18 28 49 47 50 57 48 57 68 72 74 94 100 86 113 139 152 142 145 126 121 114 107 106 109 105 85 75
18 28 25 31 32 28 35 15 26 34 42 45 52 44 45 31 33 28 29 16 5 30 111 81 49 51 52 81 78 88 117 136 137 127 142 134 118 113 116 103 91 64 50 65
22 15 27 23 15 13 15 37 36 45 41 46 39 47 54 52 51 51 56 53 48 44 51 54 54 59 69 76 80 79 103 121 139 139 151 154 136 145 110 101 78 15 20 6

GFSCGP_con_3kmhel_090.txt.gz
Helicity
80 132 103 43 13 229 67 171 126 146 129 77 62 80 85 121 105 101 128 155 147 115 174 142 127 147 126 133 115 85 69 49 70 89 101 122 116 84 68 49 36 39 44 46
89 101 74 92 42 148 280 99 134 113 124 92 68 79 66 92 90 119 113 114 134 118 170 184 173 163 172 122 134 104 82 78 64 67 86 104 87 75 71 59 48 46 46 46
124 61 45 83 85 161 95 81 135 80 154 160 106 69 63 59 63 78 104 125 116 121 98 133 182 186 213 183 153 131 107 110 107 120 105 92 75 63 51 49 63 64 58 64
116 108 -9 51 -80 58 54 109 122 100 81 106 115 87 39 49 61 55 82 88 110 110 133 152 143 203 256 271 108 136 120 96 91 55 135 113 107 83 60 43 41 63 72 79
65 45 15 101 49 7 162 162 101 62 49 93 73 116 98 74 48 76 68 74 73 118 150 149 149 168 254 242 296 136 113 105 56 69 87 65 56 57 79 95 67 89 99 85
139 56 84 92 76 42 64 101 148 103 103 146 101 103 94 46 41 32 36 40 50 74 104 92 120 120 190 229 237 187 145 77 88 92 104 79 89 74 82 86 94 98 97 108
59 81 69 21 86 63 188 94 215 187 124 112 136 92 113 71 65 67 42 28 27 39 49 56 103 158 156 185 135 161 127 138 136 89 115 134 112 97 80 84 92 93 94 105
91 74 38 33 -2 -64 179 135 212 156 124 81 98 68 52 67 2 28 72 69 101 38 33 54 55 57 74 152 -29 58 64 92 121 129 142 172 172 158 131 110 106 107 111 122
31 37 40 21 49 -48 103 114 138 167 242 116 69 141 99 56 57 47 0 49 73 42 49 34 61 58 54 136 113 90 102 134 146 162 178 191 183 156 139 131 133 138 153 164
61 48 9 -12 -8 13 178 241 125 129 89 94 49 89 87 69 67 107 90 59 66 44 55 53 63 64 93 135 145 177 192 184 182 170 173 177 175 171 179 195 193 191 178 175
46 23 6 37 51 136 148 116 163 123 122 134 73 67 108 121 179 143 103 66 39 47 45 54 60 76 163 259 266 249 246 234 197 188 170 161 162 164 171 186 192 189 181 174
52 20 127 110 16 9 118 70 141 109 93 113 147 110 74 103 123 178 144 96 91 65 67 63 71 108 161 232 255 235 205 216 179 166 162 170 171 178 174 177 175 165 156 160
27 40 29 9 47 54 68 57 69 63 82 76 138 100 63 43 60 88 95 79 78 64 78 105 110 140 178 177 172 163 147 134 134 133 130 130 138 155 171 153 150 145 140 148
49 70 112 99 87 42 58 34 35 83 67 36 44 44 16 2 38 27 23 10 47 54 51 65 92 106 130 142 138 132 135 133 138 142 145 140 134 99 101 113 116 129 142 144
48 87 58 79 52 19 43 38 74 70 60 42 19 34 47 57 23 -4 11 22 38 60 41 48 75 90 109 104 102 102 111 115 122 119 110 97 92 80 85 86 95 107 117 133
50 45 59 71 41 16 35 41 0 6 25 29 32 51 33 37 43 31 65 59 72 71 66 63 72 82 86 82 82 88 87 89 87 92 88 82 71 71 74 74 89 102 112 119
29 43 72 88 83 60 67 46 28 36 31 26 27 46 42 82 82 78 88 72 82 76 66 60 47 59 65 62 71 72 77 91 77 76 82 77 72 64 66 66 74 89 104 115
25 30 60 101 81 58 41 33 32 16 27 -5 13 40 66 71 74 48 69 93 79 42 41 44 60 64 62 74 69 68 73 76 84 76 80 81 74 70 73 70 64 78 94 105
22 37 48 82 105 80 48 41 42 41 40 31 26 57 58 36 39 14 59 79 93 44 27 39 47 55 62 54 66 89 91 95 94 82 77 81 79 80 78 71 52 76 95 124
35 39 51 54 76 86 48 53 41 24 49 45 34 59 53 39 45 82 111 97 80 56 49 49 48 50 50 62 97 114 114 111 95 83 87 92 100 95 81 76 83 95 104 117
26 41 33 40 60 40 31 23 13 39 67 32 17 30 29 36 74 106 102 116 124 127 106 88 74 68 70 98 132 133 134 119 118 127 123 123 120 118 125 128 134 106 109 118
23 32 44 53 58 58 27 22 40 57 43 17 9 13 19 37 52 76 92 104 124 141 119 114 96 90 98 113 138 133 119 138 160 160 153 148 144 156 153 147 138 110 116 124
21 23 39 33 60 48 20 16 29 36 31 36 19 20 16 28 45 50 62 77 91 98 100 98 91 89 102 102 105 112 125 150 154 143 132 138 145 148 134 131 128 134 128 131
8 1 22 30 39 30 26 18 12 22 29 31 24 28 12 24 28 34 46 64 66 70 79 83 89 82 75 75 75 94 118 134 127 116 121 131 152 138 113 124 130 126 121 110
44 21 22 22 27 29 36 41 27 30 42 39 43 55 47 34 36 30 32 34 42 45 44 47 59 58 54 54 63 85 93 104 108 105 111 123 138 137 122 117 125 109 90 86
28 31 29 49 42 30 27 36 34 40 54 49 40 43 55 50 47 41 50 50 44 44 40 49 50 80 51 57 62 73 87 85 81 92 105 118 141 165 142 126 106 50 49 36

GFSCGP_con_3kmhel_093.txt.gz
Helicity
90 123 73 44 57 106 207 44 54 67 76 77 74 52 57 125 74 67 89 120 95 68 84 83 97 93 66 88 94 83 109 105 159 147 147 155 133 129 156 135 120 110 81 75
67 140 116 66 37 26 181 189 72 19 61 45 92 53 85 13 56 86 110 107 87 96 85 74 112 133 121 114 113 113 99 92 106 134 139 140 112 108 110 119 95 73 74 65
121 143 107 57 63 -40 188 159 128 61 158 101 113 98 95 76 66 70 116 107 76 83 99 73 178 152 163 174 168 136 127 135 94 78 123 127 160 178 144 98 75 65 72 73
122 118 93 60 72 41 158 82 73 89 123 145 181 132 72 71 61 64 84 87 107 119 99 126 142 142 203 213 222 192 210 161 175 104 115 124 229 238 156 134 80 36 47 59
103 84 71 47 43 -14 120 188 69 58 85 105 64 149 152 16 54 51 54 62 76 107 89 104 128 126 191 239 247 205 231 188 144 144 145 133 145 232 187 245 160 51 20 28
152 110 114 56 51 -2 83 92 121 111 100 119 61 84 143 50 57 46 57 48 54 73 82 94 207 160 188 225 223 255 254 296 137 110 135 306 191 79 93 183 246 158 82 66
123 110 71 88 129 46 45 144 213 167 152 129 68 75 195 158 74 93 42 42 41 69 77 100 164 152 158 160 186 202 214 249 194 170 144 127 78 118 136 85 122 66 58 60
80 99 66 26 122 9 71 119 144 163 164 104 146 119 149 59 105 79 122 145 74 53 65 67 72 123 135 159 176 181 174 133 143 163 154 135 101 122 138 156 150 152 154 172
47 27 21 35 46 14 59 -12 186 256 140 86 64 133 86 50 -7 65 79 54 91 118 125 90 108 100 108 134 214 202 204 181 126 133 148 175 190 180 153 175 184 152 174 188
55 20 -16 24 46 -21 60 201 171 169 153 126 55 82 87 70 74 59 39 11 60 62 60 74 59 112 186 90 144 206 220 314 62 91 117 153 202 230 200 168 153 142 130 127
39 38 9 3 39 -25 68 141 144 134 103 108 46 95 138 82 87 93 91 78 50 67 55 65 88 112 141 136 141 154 255 365 203 179 135 148 180 182 175 165 152 155 151 160
27 31 -45 26 17 33 103 115 124 81 73 91 110 90 73 82 106 133 71 50 48 37 52 75 80 101 99 102 138 186 239 235 253 230 201 176 159 153 140 150 159 168 179 181
17 10 30 55 24 53 102 137 100 120 104 103 128 59 57 59 97 94 129 98 47 54 64 83 84 85 76 84 111 171 203 203 192 208 192 146 126 132 131 129 129 130 131 139
33 58 89 95 77 52 58 41 49 65 57 74 96 59 39 41 53 40 41 35 44 38 63 76 80 85 93 112 142 165 185 183 186 177 159 149 149 145 134 136 138 130 117 104
38 57 78 99 69 36 36 14 33 52 20 29 43 36 54 49 22 39 -5 -24 -6 32 55 64 69 69 77 98 116 132 142 140 135 147 149 155 155 155 139 125 115 97 96 99
10 63 66 80 43 42 66 55 24 7 -14 2 12 17 34 29 42 45 22 20 22 48 60 57 67 71 71 83 103 121 122 120 117 128 141 138 125 111 103 88 83 74 69 79
7 21 59 47 21 18 43 17 14 30 35 9 0 42 78 60 63 69 79 66 55 55 80 83 84 78 86 85 90 98 107 114 106 105 102 93 86 82 78 72 62 57 63 75
45 28 49 90 56 54 53 40 45 10 25 7 12 45 47 60 73 94 89 87 99 82 63 70 81 88 90 93 91 94 103 95 92 88 81 78 81 85 87 82 74 62 61 67
21 45 48 94 91 76 44 55 55 45 52 49 38 53 64 62 52 25 37 72 84 84 53 53 68 80 93 89 89 88 88 91 90 81 83 84 87 96 87 84 63 58 52 62
28 37 56 55 91 113 90 57 50 41 45 41 39 52 62 52 47 75 123 99 93 92 109 89 89 83 70 64 69 74 83 91 98 98 101 101 106 100 97 92 100 119 78 84
32 39 43 47 73 65 52 37 23 62 89 48 43 54 48 52 82 86 87 99 102 118 119 131 119 81 62 65 78 86 105 107 132 128 145 132 130 124 119 137 148 143 143 123
39 41 42 55 61 53 37 31 74 84 61 42 38 37 41 54 65 82 97 100 113 137 152 143 116 106 98 103 89 101 126 183 168 161 151 150 148 149 145 138 138 140 151 134
32 49 61 65 99 52 43 42 42 41 43 45 47 39 42 44 56 60 70 82 98 118 147 135 117 97 92 89 91 105 124 137 138 144 141 149 135 126 123 132 144 159 141 132
11 25 37 45 47 52 42 31 27 25 32 40 37 37 24 47 45 45 52 71 83 78 85 91 95 96 95 96 104 98 100 99 121 117 112 127 122 114 126 149 151 149 150 144
62 35 32 17 33 34 29 50 33 27 37 39 38 51 57 55 50 40 38 41 45 59 69 76 88 94 91 84 80 95 91 91 91 93 99 119 110 110 126 139 146 139 138 147
77 99 69 76 90 64 49 46 41 29 40 54 52 57 71 62 56 48 50 50 49 46 42 41 50 69 68 70 91 86 88 95 93 95 102 103 103 110 135 144 142 92 95 87

GFSCGP_con_3kmhel_096.txt.gz
Helicity
-0 24 20 85 101 137 21 130 141 175 101 149 177 103 120 104 71 89 71 77 126 106 108 110 52 69 53 72 108 110 121 128 151 206 213 189 172 163 145 185 211 165 127 121
2 10 58 -62 88 105 190 168 71 177 62 58 102 94 100 183 142 107 130 106 118 89 89 154 157 97 98 85 117 119 130 149 154 140 169 198 209 163 150 185 184 159 143 130
28 88 129 -56 45 94 126 204 140 83 124 143 103 103 122 139 99 110 92 70 75 81 121 106 203 141 120 111 109 143 115 133 171 158 159 214 236 218 192 162 161 114 146 152
30 96 113 23 39 78 153 147 168 82 56 87 46 164 100 93 96 77 93 115 142 113 104 88 245 242 178 169 156 147 168 162 167 198 201 196 185 194 167 140 120 116 101 93
55 110 116 87 65 -8 109 194 201 101 76 73 50 160 77 24 109 97 94 111 132 171 160 135 228 273 258 235 246 254 240 277 252 219 263 276 265 191 131 118 101 114 115 121
128 114 138 93 23 10 61 217 139 121 132 131 77 84 26 64 123 115 90 90 99 106 129 109 213 299 280 269 239 330 285 262 255 217 206 244 226 291 213 244 132 106 122 136
71 141 104 92 104 27 78 168 163 158 173 167 71 90 152 85 67 71 54 85 69 71 88 130 249 324 294 220 231 286 308 317 293 239 192 163 228 174 93 151 106 207 213 127
143 119 76 60 57 -11 58 76 143 162 284 221 112 115 99 124 82 108 212 145 79 78 121 127 213 249 175 160 185 206 220 259 267 270 243 232 246 289 224 198 142 118 122 189
152 78 54 17 40 87 19 45 174 180 150 148 115 176 121 83 109 107 111 158 220 197 127 127 177 200 209 200 190 185 205 219 237 199 234 194 143 155 181 214 230 209 220 203
32 38 6 17 30 58 71 77 150 168 189 136 90 81 87 91 68 75 63 66 111 174 209 209 143 170 240 234 201 221 217 204 189 216 237 239 185 191 177 229 236 206 209 172
38 29 28 21 49 32 55 112 79 140 175 179 87 79 124 153 160 50 90 111 96 107 112 150 208 221 217 278 264 268 284 312 280 277 291 305 245 166 147 168 179 175 167 161
4 27 25 22 64 26 73 45 103 93 127 53 111 109 112 91 93 104 88 96 89 132 129 148 142 237 354 334 281 263 294 283 265 275 323 317 311 184 135 132 137 154 143 133
8 -5 4 62 79 99 41 53 109 95 82 53 60 51 71 87 103 75 86 69 61 60 81 99 137 179 225 208 205 228 217 232 240 276 295 297 281 242 222 170 149 139 134 134
10 27 35 78 55 73 22 41 68 71 69 110 14 89 24 58 63 43 60 57 70 36 46 92 146 129 101 106 114 138 180 190 230 276 290 271 249 235 226 185 178 174 163 153
51 35 76 84 49 21 2 51 58 35 63 34 45 84 107 90 70 30 -9 -24 20 57 49 69 87 95 102 109 103 132 145 160 184 205 216 219 232 219 188 171 159 158 158 147
31 66 54 86 52 28 45 22 39 40 31 4 -24 11 26 34 41 52 46 -2 -23 10 28 48 78 101 108 104 99 128 122 121 137 159 174 165 163 155 150 148 147 138 122 105
20 53 59 59 29 15 56 35 10 35 33 23 -1 33 53 77 77 38 112 55 31 21 45 73 72 73 74 72 101 118 115 124 124 135 145 139 141 138 123 115 111 105 102 104
27 44 57 58 43 49 37 51 67 19 44 35 31 37 31 42 60 62 89 102 94 28 45 68 88 92 96 102 123 121 126 112 108 117 116 106 113 118 117 113 114 127 119 108
5 29 47 72 82 63 44 48 52 45 29 46 46 61 57 57 66 91 108 102 83 75 70 70 80 93 119 126 121 134 130 114 108 103 109 103 102 110 112 124 128 113 107 96
9 21 51 65 78 99 70 53 58 51 44 54 54 49 47 48 65 75 101 92 99 112 118 127 84 113 126 111 130 131 111 103 84 93 105 118 125 129 119 121 116 113 111 92
40 41 40 68 86 63 49 47 45 93 74 52 46 41 47 49 39 49 61 71 75 95 137 203 223 164 116 109 129 113 106 89 93 115 143 150 144 148 143 157 148 123 115 115
40 46 62 78 73 65 35 52 86 74 49 51 34 35 39 47 54 57 64 78 93 103 137 161 153 166 177 169 134 113 112 121 151 172 179 166 159 168 184 169 145 127 129 132
38 49 48 67 75 56 46 53 54 49 43 52 54 51 49 57 64 73 67 63 75 91 108 132 118 115 112 103 101 101 110 142 158 166 150 150 149 149 156 147 130 143 147 149
65 49 43 58 78 42 73 64 41 41 48 54 56 46 49 56 62 68 63 73 79 75 75 86 95 87 86 83 93 88 100 114 120 114 111 133 134 135 134 130 136 139 150 156
60 62 52 54 131 58 67 54 46 34 45 51 61 61 52 52 53 42 43 49 44 49 63 72 79 96 83 90 96 117 104 89 87 86 101 122 129 115 118 127 133 135 136 152
113 102 103 63 104 89 46 35 39 49 41 47 48 64 81 72 77 62 61 55 51 53 52 55 52 57 57 75 79 73 78 94 86 106 119 142 124 107 120 124 114 82 88 84

GFSCGP_con_3kmhel_102.txt.gz
Helicity
16 28 32 11 -188 44 232 150 146 168 91 12 -102 -41 -38 148 134 321 279 323 304 221 88 91 97 98 121 150 191 162 152 127 160 157 157 186 186 183 228 205 106 109 116 145
36 55 70 -28 -167 17 197 178 164 236 186 116 -33 -58 9 -68 35 135 138 161 307 159 86 117 100 107 108 114 128 168 155 142 140 186 195 227 196 215 190 214 168 165 141 136
32 29 69 12 -66 30 185 201 130 179 164 210 115 137 54 77 82 54 -36 160 233 118 123 113 117 100 112 102 90 111 100 134 159 162 252 266 238 207 190 237 208 237 223 178
26 34 37 64 57 68 177 127 94 232 310 161 193 164 107 104 156 122 44 151 215 100 73 119 119 136 107 66 79 74 86 102 131 190 197 178 199 209 178 204 239 227 195 199
40 57 22 110 91 38 94 141 35 116 248 148 149 54 66 36 72 71 38 76 90 67 46 68 129 104 77 99 105 109 105 122 130 141 149 170 177 153 145 225 222 195 194 217
47 41 82 75 45 49 48 156 152 213 99 143 61 15 -36 -95 -7 21 14 -10 26 63 42 52 148 138 158 149 149 142 136 134 139 161 146 155 170 198 236 273 310 300 241 187
50 97 86 103 73 87 65 148 193 133 100 88 46 70 53 69 28 68 46 30 70 96 93 110 130 144 176 176 153 181 190 169 156 160 162 189 232 262 251 182 189 185 208 151
129 158 105 116 86 87 105 161 144 227 177 115 96 54 94 57 88 143 88 51 132 102 103 117 135 170 167 160 158 177 169 192 161 177 180 189 217 220 180 169 163 140 127 138
119 75 51 61 63 125 88 146 90 253 218 150 98 121 64 50 136 110 137 86 50 78 104 104 135 158 157 154 132 130 153 174 166 183 210 189 197 192 176 187 181 159 153 147
55 60 57 9 4 35 81 189 183 129 124 181 142 123 92 92 54 98 82 47 54 114 136 114 111 127 157 144 148 144 152 153 174 194 192 195 179 179 194 211 195 178 180 170
34 18 4 9 78 22 65 175 172 152 154 77 126 116 71 75 59 75 103 92 60 58 67 116 121 161 172 188 176 164 147 146 164 181 197 191 205 213 203 196 199 208 208 199
47 11 46 64 64 52 2 149 164 132 198 154 115 128 126 132 84 65 89 124 127 116 122 120 143 192 170 164 172 151 140 132 145 180 202 211 218 221 215 223 245 240 261 273
51 29 10 31 33 22 90 -6 95 115 132 142 131 120 129 166 137 100 84 100 132 149 153 153 132 171 164 167 177 163 156 161 176 203 228 240 246 246 245 241 252 225 178 200
38 35 -3 12 42 31 74 31 36 49 83 84 101 134 118 141 151 147 109 108 84 112 131 142 155 157 203 212 209 209 195 192 200 206 210 219 218 214 214 207 191 178 170 191
40 32 18 35 52 41 33 2 1 56 26 38 83 174 263 171 115 96 83 98 112 87 57 63 88 143 198 217 213 205 192 170 174 188 192 189 194 194 181 178 174 170 172 184
48 49 34 55 54 35 38 46 15 76 90 20 48 124 98 110 83 80 49 41 37 52 53 29 44 73 85 85 101 130 127 121 127 138 144 161 179 180 170 167 160 155 160 169
26 43 28 40 63 60 64 30 29 63 38 51 61 78 62 73 73 37 39 32 28 26 24 17 16 36 57 79 95 90 93 115 121 128 130 133 141 137 123 121 126 134 138 144
34 53 27 18 45 43 41 46 41 19 35 22 30 44 48 47 26 55 66 61 40 53 18 18 34 53 68 82 96 123 108 96 99 96 93 98 110 114 116 121 117 123 128 125
32 36 35 31 35 35 42 67 48 53 70 77 38 55 55 49 32 44 68 72 75 58 66 53 31 72 88 90 102 107 88 83 88 83 84 85 94 99 101 101 107 113 117 116
17 23 40 43 51 56 42 45 49 58 42 70 63 60 47 38 34 40 67 72 84 82 85 95 34 49 76 85 110 113 92 87 72 68 68 76 82 83 85 88 98 116 121 114
-13 -22 -29 -17 53 45 31 28 41 70 42 51 53 49 50 37 16 33 51 59 58 68 94 102 111 87 71 107 119 98 89 64 66 71 69 68 70 76 82 103 124 116 121 114
12 3 -12 -16 16 45 46 41 55 34 49 49 36 17 21 24 34 47 59 63 75 91 111 126 157 153 126 100 107 98 74 73 69 73 77 80 85 99 122 132 133 134 117 108
8 14 6 3 10 46 66 61 61 43 32 36 28 17 10 19 32 46 49 61 64 71 90 113 118 137 159 143 104 88 68 70 81 90 86 98 113 119 133 154 137 115 106 108
-2 -15 -1 18 53 90 103 81 83 62 49 48 42 18 12 26 28 38 29 41 61 73 77 76 99 126 133 125 117 91 79 86 94 97 101 113 123 122 126 127 116 111 108 106
24 -18 10 26 35 43 73 93 83 73 37 42 60 56 51 43 45 58 53 53 53 61 75 78 91 102 109 114 122 117 99 91 94 102 105 108 115 119 131 121 114 105 104 103
31 12 9 13 18 18 42 54 111 68 55 52 42 66 70 59 57 54 68 66 62 69 63 65 69 71 93 98 101 109 113 106 103 103 110 116 131 130 131 139 120 77 61 40

GFSCGP_con_3kmhel_105.txt.gz
Helicity
33 35 52 -19 -104 -114 185 166 89 101 70 22 -130 -112 64 295 403 343 275 348 362 326 270 191 123 199 137 152 131 137 136 146 176 153 113 108 92 107 110 93 88 90 94 120
38 12 15 -10 -41 -156 177 164 134 145 95 51 -71 -51 -133 -121 286 238 387 403 332 317 307 236 106 143 142 101 106 150 147 165 167 161 130 137 150 152 156 111 70 121 103 158
30 9 36 17 21 -42 82 110 143 122 133 173 -42 -11 -120 -35 47 74 198 351 328 377 386 293 172 86 138 103 132 139 126 125 157 222 254 248 256 249 171 150 163 135 121 145
15 16 49 68 38 20 81 123 155 159 151 122 166 -61 -4 -96 -112 122 234 271 345 387 413 345 221 119 93 87 128 121 139 137 162 169 200 198 163 153 180 181 177 183 194 177
27 21 51 60 2 17 84 121 153 116 149 133 120 2 -8 -78 -90 50 236 228 207 337 468 415 183 101 75 79 78 95 127 148 172 161 160 150 179 171 163 189 218 201 234 219
53 -33 45 36 21 17 86 131 130 163 140 111 63 41 -64 -27 5 78 142 126 112 476 477 302 148 98 100 93 92 104 98 115 115 121 108 112 117 127 157 168 211 233 247 240
73 85 96 62 26 49 116 119 130 160 148 175 95 44 40 -20 6 27 57 23 8 100 220 157 74 92 105 97 93 105 109 113 112 108 113 109 99 109 137 165 159 186 203 170
135 121 112 43 -11 8 167 180 162 150 75 72 89 33 45 15 50 76 -0 13 -92 56 94 84 32 74 113 101 104 109 116 117 121 111 107 119 124 160 180 141 112 99 108 120
101 72 80 42 37 -9 133 148 135 177 130 91 73 104 72 69 101 96 31 41 3 -15 55 38 44 53 111 130 94 87 105 108 115 114 131 130 165 167 152 137 139 123 126 123
60 69 68 80 33 45 74 104 171 221 124 98 114 159 145 182 265 176 83 71 37 52 75 63 68 84 104 132 132 113 104 107 112 128 151 176 174 156 159 152 127 120 124 120
22 -1 82 36 84 96 100 95 80 161 136 87 139 132 81 136 158 178 140 88 72 38 56 87 107 99 108 151 158 124 100 103 108 130 178 182 177 161 153 146 151 147 151 150
35 20 80 71 69 49 77 130 95 71 85 129 70 132 138 117 113 90 106 116 105 85 84 107 118 132 144 165 157 128 124 130 126 134 154 164 166 172 185 189 183 167 172 177
35 24 7 49 71 37 117 90 101 75 84 105 72 99 162 105 103 93 73 83 89 95 86 111 136 122 132 174 155 145 150 139 134 139 149 158 166 178 181 179 180 177 186 187
48 14 8 32 52 21 34 19 57 59 85 45 77 101 137 134 120 94 70 82 96 108 102 103 113 91 111 150 157 145 151 147 145 153 152 149 149 153 163 174 184 183 169 165
36 15 23 38 73 44 71 22 11 42 42 73 24 112 121 105 105 105 64 64 86 88 93 104 93 99 120 154 162 167 165 161 157 160 157 145 162 175 178 178 171 163 163 162
30 24 63 24 59 25 48 50 12 50 60 43 46 107 121 128 104 112 85 57 71 74 64 60 60 88 117 133 138 150 153 161 166 149 145 154 166 171 169 153 146 158 175 174
15 41 38 34 83 51 76 86 38 54 44 34 43 53 61 111 94 85 81 75 74 66 33 15 21 39 60 80 102 104 115 130 132 134 141 134 142 139 137 148 153 149 143 137
-0 39 35 50 57 42 29 43 27 57 75 44 46 53 48 43 18 34 42 45 67 77 74 60 32 36 47 71 96 109 112 114 116 112 115 125 128 129 130 127 116 123 123 119
23 -16 -26 7 20 14 25 49 37 48 53 46 18 32 39 39 15 21 46 34 51 61 66 58 40 20 47 65 71 87 102 102 103 104 101 99 98 108 117 114 107 108 105 102
-13 -19 -34 -36 -29 34 31 31 16 25 33 48 45 47 56 47 37 18 32 9 39 63 63 65 84 46 58 79 97 102 92 89 88 83 88 96 102 105 101 97 95 96 90 86
-16 -18 -24 -25 -38 31 43 34 30 47 24 39 37 27 29 24 7 22 39 49 47 57 95 114 123 99 65 88 109 112 108 99 86 89 95 95 88 87 84 89 100 89 98 99
16 9 -14 -22 -31 -43 54 36 50 25 35 36 32 23 17 18 20 28 45 55 66 75 88 108 127 159 147 100 100 105 97 101 82 85 88 83 82 87 95 103 104 104 106 95
28 20 8 4 -7 14 46 41 37 35 35 48 33 21 19 20 21 32 48 66 68 71 71 92 114 148 166 146 109 100 99 86 90 93 93 96 100 101 108 118 117 133 116 101
42 15 6 -2 6 25 35 47 72 59 46 45 44 30 19 28 29 35 36 47 59 67 76 67 85 121 149 146 132 119 116 104 93 92 94 99 104 110 114 123 135 134 116 108
63 23 34 5 15 -0 -0 2 51 62 60 51 48 43 42 36 42 32 43 47 42 49 67 76 90 90 106 107 118 119 107 97 102 100 94 94 102 108 117 127 144 143 146 131
59 92 91 44 25 26 -3 -35 10 65 76 57 37 43 57 47 51 57 59 49 44 56 59 70 73 79 85 84 95 106 109 104 100 104 103 106 118 130 139 147 144 89 83 80

GFSCGP_con_3kmhel_108.txt.gz
Helicity
65 61 38 20 -20 -52 -44 -14 105 45 10 12 11 -37 -158 -104 41 597 763 641 595 445 348 270 221 145 118 145 170 135 144 177 163 141 77 110 63 72 58 51 57 63 54 68
42 36 -9 18 -48 -8 -68 189 81 78 56 28 -52 -169 -280 -251 -188 237 663 692 530 439 375 384 313 198 106 124 136 125 143 203 173 148 139 159 118 88 92 81 80 72 62 67
41 20 4 18 -50 50 108 111 106 75 57 70 -68 -248 -301 -341 -278 1 421 548 451 398 323 309 279 218 208 143 156 121 124 116 165 237 253 214 168 119 105 82 108 80 58 59
32 11 33 56 58 17 139 52 115 33 92 121 109 -248 -131 -203 -211 -4 168 381 433 343 302 268 221 174 133 174 168 133 109 72 125 169 190 113 78 135 99 97 91 120 73 78
44 56 28 76 37 16 65 110 126 132 65 47 47 -2 -64 -136 -141 -54 147 300 365 325 245 278 263 196 112 72 164 212 125 89 145 133 135 138 82 150 157 133 132 104 112 96
117 44 15 59 15 10 37 85 120 140 95 85 115 62 -58 -120 -103 -123 -28 361 352 351 273 292 272 236 164 126 130 152 73 67 127 161 174 111 139 185 82 55 108 103 142 207
80 63 59 46 12 18 36 70 124 101 88 133 48 107 2 -117 -65 -10 10 94 453 424 308 331 333 268 190 115 70 85 105 77 114 150 92 77 83 86 91 113 131 138 158 157
96 68 55 -9 -9 105 43 29 51 79 25 57 51 73 24 4 -46 8 -0 127 251 361 295 420 441 263 176 120 99 78 61 70 63 68 76 100 52 72 87 101 83 96 121 99
54 14 39 -11 -16 20 136 67 36 87 75 92 119 87 34 86 71 7 -4 -34 172 225 191 431 412 225 134 85 69 73 83 87 85 66 91 90 96 103 107 98 111 111 106 95
12 -33 8 29 19 53 117 75 75 81 49 72 119 132 169 199 128 54 18 -27 -57 14 177 487 283 155 82 79 90 100 99 87 93 96 107 125 133 141 149 156 156 153 148 132
-5 -0 29 -2 14 35 92 112 101 74 82 23 73 135 167 190 178 135 99 62 6 -55 15 106 103 50 62 86 119 133 119 95 98 101 131 162 185 189 187 189 173 167 156 140
3 20 -38 -14 26 35 47 44 141 91 94 120 109 172 142 152 151 135 124 120 120 112 105 97 80 63 74 89 101 121 137 110 102 112 136 157 174 183 194 187 172 153 148 133
37 12 38 27 14 28 39 68 64 45 35 103 103 101 109 114 100 104 93 94 131 157 118 80 88 108 94 125 138 137 132 122 119 136 156 169 168 176 175 166 154 148 139 139
8 18 13 29 6 10 31 40 35 62 48 30 29 76 136 133 123 127 112 82 87 97 109 115 118 122 133 125 148 173 179 166 173 158 147 148 147 148 150 146 155 162 151 155
12 14 38 64 84 29 8 -1 18 34 24 46 -1 49 72 94 100 106 96 94 100 121 110 98 121 101 107 129 163 175 174 159 139 138 142 141 145 161 169 178 180 174 171 163
33 28 37 34 43 40 27 24 -2 17 36 64 68 83 72 86 67 93 89 85 100 115 111 91 81 90 88 72 89 119 133 128 120 129 136 147 162 165 167 158 161 172 172 163
1 7 -6 4 54 20 50 66 41 45 61 32 70 72 83 133 134 134 118 89 70 76 83 93 89 76 87 91 92 97 106 132 156 170 161 154 157 164 162 158 161 159 146 149
2 -7 -3 -3 12 -9 -6 26 28 68 82 67 48 34 36 53 45 55 72 71 88 78 73 80 77 65 59 72 97 121 130 142 151 148 135 142 149 158 156 150 147 161 167 151
14 -0 -27 -37 -28 7 23 30 26 48 64 51 30 40 43 31 23 39 40 40 54 60 57 52 50 31 38 49 70 104 112 117 119 118 123 119 124 128 127 138 142 144 137 131
-3 -14 -17 -22 -49 -54 28 19 4 16 33 26 34 40 40 31 51 16 36 42 67 76 56 61 85 60 48 51 73 101 107 107 107 110 111 120 112 107 109 118 118 131 132 121
19 -7 -16 -24 -34 -31 29 26 13 32 23 39 31 32 37 33 17 16 22 37 46 55 80 80 89 125 98 74 93 99 103 116 127 105 98 99 101 105 104 120 123 128 125 108
103 74 41 4 -5 -15 -25 32 44 25 37 35 32 26 29 22 24 29 40 38 41 47 68 96 109 145 137 83 92 115 125 119 109 99 96 93 93 111 129 128 125 108 97 91
93 63 62 23 14 -2 -1 -15 29 26 25 40 36 37 29 26 27 28 32 40 42 49 59 63 82 131 172 150 110 105 111 95 97 97 91 92 113 106 98 105 99 110 100 99
73 38 60 43 13 21 11 -7 -17 20 36 33 32 30 23 26 14 28 26 32 32 35 47 45 67 111 137 146 152 130 120 104 99 100 99 99 97 97 101 105 108 117 118 113
71 55 91 50 42 44 30 20 7 -19 -17 41 42 40 37 28 30 31 24 33 44 32 35 42 59 76 100 99 117 126 122 111 91 102 97 104 88 88 94 95 107 115 124 138
80 87 110 58 35 54 58 40 4 -6 -13 -20 16 48 50 48 45 46 49 59 59 59 54 61 63 70 71 75 87 106 108 101 95 100 103 97 96 95 102 112 123 104 110 111

GFSCGP_con_3kmhel_111.txt.gz
Helicity
93 93 57 44 36 33 -4 32 -8 62 86 7 -32 11 32 -34 27 110 201 381 465 305 141 202 159 107 165 98 55 94 182 189 244 191 144 117 80 92 72 50 38 21 27 26
76 55 39 22 9 4 23 -10 103 131 56 14 58 83 43 -47 -36 0 -166 253 381 496 161 198 171 186 180 67 110 141 151 174 193 173 148 144 116 99 99 98 80 68 60 45
54 34 -17 -6 23 55 73 18 121 53 28 34 20 40 -68 -81 -126 -148 -157 -24 340 509 184 239 195 154 128 119 115 52 111 118 173 176 197 197 162 132 109 117 111 90 66 52
47 47 21 103 136 105 120 67 108 54 29 46 102 -39 -118 -130 -163 -19 -208 -73 471 414 291 285 319 249 176 116 101 115 148 63 167 150 201 192 152 150 123 130 127 111 80 59
100 66 11 62 72 33 49 55 102 51 37 140 158 58 71 -32 -170 -126 -163 6 358 481 401 296 301 267 252 201 207 146 119 97 68 171 144 236 204 195 198 153 114 105 81 84
97 40 63 61 34 66 77 99 175 80 49 48 105 152 101 -62 -187 -316 -149 129 523 564 368 311 306 277 251 206 288 286 105 35 71 145 205 162 152 186 137 130 132 160 83 152
86 100 67 92 60 47 78 115 167 124 130 107 135 161 77 -50 -92 -40 3 201 489 483 363 321 256 234 223 96 126 214 218 188 188 51 53 93 135 73 107 158 258 127 43 108
51 38 43 98 89 39 -2 83 95 112 69 14 64 78 59 -29 -47 -24 47 130 499 292 382 306 182 119 76 85 98 139 146 146 101 135 82 120 180 109 54 105 25 63 55 106
6 74 78 100 64 55 -10 36 82 94 94 54 49 27 28 89 97 -6 -37 112 359 381 516 436 259 168 142 91 61 18 38 75 75 62 47 -5 32 6 5 34 46 78 85 74
55 25 25 59 164 116 27 24 81 69 85 83 55 79 120 172 111 87 22 4 262 456 602 481 380 223 140 99 82 75 58 40 52 53 53 82 71 70 103 101 101 153 166 177
34 31 23 34 112 68 47 44 37 26 55 139 39 77 192 162 159 65 54 17 101 452 645 428 510 321 138 99 93 98 83 85 80 77 89 114 126 144 154 158 157 170 169 162
45 20 7 33 99 69 59 77 54 33 57 91 122 148 107 137 144 115 114 93 43 76 289 328 523 271 168 124 80 92 104 109 92 96 118 135 146 161 194 197 175 164 178 159
64 15 -53 -15 56 62 49 118 59 27 39 94 56 89 68 53 85 110 127 122 124 115 58 90 255 270 190 115 75 103 137 138 129 125 132 131 136 161 182 184 173 177 174 158
-3 25 25 -29 -14 59 -7 83 85 26 79 85 86 54 127 148 109 118 119 99 98 103 125 96 99 117 68 79 107 134 160 152 134 148 150 140 139 145 159 169 185 182 170 175
-9 33 30 12 35 59 36 30 48 26 17 10 -1 64 96 97 95 104 91 115 128 157 156 134 112 136 141 137 139 156 187 173 166 174 167 157 142 141 154 172 179 182 183 178
18 17 0 18 -18 0 24 44 45 35 46 45 45 82 58 58 63 88 96 108 125 145 169 156 123 130 131 114 113 121 149 155 158 198 189 157 159 163 168 173 176 184 197 204
3 1 3 14 6 24 36 71 34 25 35 18 58 63 69 84 83 90 91 65 67 89 110 115 102 118 93 93 98 94 111 132 148 146 127 126 144 170 175 180 191 198 199 197
2 -1 -6 -2 -12 -9 13 8 11 58 64 60 42 33 12 6 -2 18 39 53 68 74 87 93 82 71 82 68 83 92 114 143 153 160 163 160 164 170 166 170 176 186 175 163
3 11 -14 -21 -17 -9 -16 17 6 13 59 64 35 38 39 23 -1 6 30 34 39 62 67 74 83 78 42 30 36 66 98 117 125 121 130 139 162 184 193 195 170 162 159 161
-14 -16 -13 1 -18 -26 -11 15 -2 -7 34 45 51 55 39 41 47 32 43 41 57 55 61 99 97 59 46 42 40 58 60 71 85 94 104 117 126 136 137 136 143 145 132 125
50 32 57 15 -9 -15 -2 -2 13 -35 -4 24 25 23 29 26 8 14 29 36 38 43 69 81 81 114 119 67 61 80 85 89 84 90 105 115 118 117 127 138 134 137 140 137
99 108 97 63 45 27 -5 -9 -15 -9 35 33 34 30 22 15 10 13 25 42 56 68 75 88 98 138 151 108 87 93 95 89 90 96 101 94 90 100 108 120 123 122 122 116
74 59 63 56 48 1 3 7 1 -6 -11 42 42 37 30 25 19 18 26 39 50 59 67 62 73 108 152 156 115 111 124 97 82 83 85 95 102 103 102 110 113 119 115 116
44 17 35 40 17 2 10 12 1 -5 -11 -15 7 33 30 34 27 35 36 36 43 48 62 56 65 107 139 139 148 143 134 117 112 126 126 119 113 111 117 115 109 109 108 108
55 51 50 25 15 9 5 10 13 11 -13 -20 -17 -5 13 40 32 38 43 45 51 53 52 48 57 66 95 109 124 127 137 115 86 93 94 103 116 127 124 109 99 95 97 113
87 75 76 33 49 43 33 32 12 13 8 -12 -15 -2 -3 -7 32 63 61 51 57 64 56 61 69 71 80 81 86 103 117 104 91 82 90 85 86 70 118 89 92 89 79 76

GFSCGP_con_3kmhel_114.txt.gz
Helicity
94 65 58 25 33 33 -27 -44 -1 70 70 54 42 12 18 74 19 13 4 -48 36 56 6 -26 169 2 79 66 -17 130 169 126 127 143 189 159 103 112 79 78 74 62 64 53
46 11 -5 14 -5 40 66 62 122 130 93 43 18 -19 31 15 14 20 -22 -20 134 186 20 3 181 -9 38 75 -38 40 120 188 164 177 175 174 143 103 90 90 80 64 59 62
2 33 21 46 38 117 111 110 109 109 78 2 -8 -8 13 25 8 27 -18 30 39 124 10 -15 202 104 69 63 51 41 126 182 194 179 204 174 158 125 135 108 104 91 81 82
50 70 88 84 91 70 184 110 88 57 26 -65 1 8 -17 -8 -18 -3 -58 11 47 201 72 19 200 84 44 72 64 137 177 139 115 89 176 179 171 117 122 133 130 125 109 102
66 95 63 60 120 2 137 18 2 32 -4 19 55 59 31 -99 -11 36 2 55 44 91 80 115 169 86 175 182 127 195 125 112 107 133 174 204 116 115 155 172 153 151 137 104
114 65 62 110 110 129 143 135 38 57 77 159 75 125 71 -20 -38 -38 -56 78 47 69 96 194 138 184 254 224 202 110 100 218 147 165 185 159 181 181 205 178 177 179 158 158
35 114 90 85 99 59 78 164 73 112 197 237 277 123 17 22 39 41 60 114 179 188 269 219 96 236 206 174 47 79 116 109 104 82 157 159 203 155 226 176 176 170 169 169
60 64 87 35 40 31 69 111 68 141 189 263 190 174 153 53 41 48 47 142 275 399 437 262 130 185 242 192 126 126 146 41 117 140 46 132 26 121 177 288 198 175 218 112
66 84 193 128 67 66 76 97 62 1 28 154 202 95 80 78 61 41 142 193 277 401 558 210 316 221 175 163 217 131 116 117 105 120 146 117 124 40 92 247 159 150 78 165
81 45 133 125 107 46 41 137 76 63 17 101 118 135 146 141 146 43 236 255 301 320 459 408 369 276 195 165 131 45 -2 17 79 129 133 59 176 62 185 186 86 132 124 120
90 67 69 66 43 56 83 32 69 90 58 63 82 98 206 130 41 11 40 156 342 502 717 519 445 262 142 71 56 28 9 -8 25 34 -15 -54 -48 -69 -59 -55 -46 -4 69 106
53 59 27 88 104 156 136 103 55 124 78 102 89 117 126 90 78 13 -20 53 221 394 555 391 321 282 158 117 102 87 47 38 36 58 58 17 35 46 59 52 69 117 142 170
29 36 31 63 145 195 127 139 40 33 79 99 61 63 76 32 52 37 -2 -12 56 187 420 452 347 269 219 122 114 115 106 73 52 55 91 109 112 118 139 163 169 183 179 192
51 45 42 -34 21 132 94 115 17 -11 77 40 69 48 102 97 44 53 28 1 29 39 130 417 439 304 206 122 64 71 107 102 97 90 105 111 114 134 161 178 192 195 194 209
34 16 45 60 71 66 46 80 61 86 -27 44 15 73 104 98 76 38 24 20 44 68 65 72 155 187 96 81 99 69 89 112 112 124 136 148 147 162 174 176 184 205 215 205
18 32 34 42 22 37 25 70 28 50 49 17 25 76 69 55 42 54 64 65 67 86 94 102 96 109 120 125 108 102 110 120 130 134 160 178 185 173 168 170 181 183 193 200
3 15 23 20 39 64 24 82 33 14 26 18 36 50 45 42 47 51 55 48 58 78 96 110 116 109 111 94 100 105 115 124 150 167 170 166 158 163 159 154 157 170 189 202
1 8 12 14 28 19 3 19 22 34 48 34 22 24 18 8 12 40 42 49 48 58 59 74 89 88 81 80 96 108 106 121 136 145 161 159 157 160 169 178 189 198 202 198
-15 4 -14 -15 -18 4 6 -6 -30 2 35 40 25 13 11 -5 -22 16 36 44 43 58 62 62 57 48 51 63 68 77 93 105 115 134 141 139 141 145 156 171 180 189 201 208
-13 -9 -9 -8 -19 -23 -18 -2 -1 9 1 28 32 41 39 15 27 33 47 50 61 51 65 98 83 71 54 50 50 66 83 92 98 105 122 136 148 152 159 173 186 204 191 192
40 19 37 15 6 -11 -11 -9 -2 -10 -18 15 35 40 45 40 43 35 45 59 51 53 76 65 86 110 102 76 58 64 67 74 81 88 97 104 111 119 124 134 136 133 143 144
63 71 77 41 40 43 -14 -9 -16 -25 -22 -24 -32 24 27 27 18 22 35 49 66 76 82 87 84 103 131 124 89 83 102 93 82 78 91 89 98 111 111 114 124 114 110 113
64 40 40 32 14 -17 -24 -21 -10 -13 -14 -20 -28 -37 -25 24 22 29 36 45 56 66 70 71 82 104 135 146 131 117 125 91 72 72 79 80 83 90 91 95 108 112 109 114
57 16 26 44 23 -2 -18 -15 -8 -5 -12 -19 -24 -27 -28 -38 -13 29 27 38 55 59 63 48 62 82 104 126 136 125 113 109 101 98 92 93 94 106 114 126 119 115 116 117
38 59 45 19 17 10 2 0 1 -3 -7 -15 -21 -27 -28 -12 -20 -17 4 39 48 63 68 62 61 54 62 70 93 94 108 88 71 87 82 124 149 127 132 123 133 145 143 130
91 61 59 30 52 20 46 44 28 30 18 6 -1 -2 -6 -4 -8 -14 -4 19 47 66 66 66 66 64 69 75 75 84 96 96 76 57 62 76 73 70 76 86 94 126 153 115

GFSCGP_con_3kmhel_117.txt.gz
Helicity
21 40 10 -12 8 17 -10 -38 -62 -54 -24 32 24 35 23 -0 21 37 63 59 61 11 28 71 -51 -139 4 -7 118 122 142 94 224 182 183 149 140 162 153 151 117 91 79 73
6 -68 -55 -25 -34 -17 -33 -42 4 104 69 26 39 59 -1 9 10 28 44 36 11 2 -9 20 -20 -73 25 6 41 225 193 68 213 191 164 141 147 144 160 159 127 107 88 90
-42 -58 39 15 34 44 110 161 157 74 36 8 69 8 -17 -1 22 13 33 47 12 2 9 51 54 -7 35 118 177 133 159 91 172 154 169 169 173 184 177 144 135 129 116 101
3 38 56 60 111 54 229 133 247 226 86 10 -24 -34 -20 -13 3 24 17 9 28 -26 52 111 77 13 -5 7 142 -3 -9 59 173 157 161 157 206 192 179 191 172 160 131 130
16 -9 50 91 119 51 167 25 33 -5 -61 -4 -5 -40 -86 -39 -0 27 21 53 32 33 76 105 115 51 58 90 78 41 67 34 230 165 171 166 158 167 169 164 145 155 160 144
124 47 32 57 78 106 108 102 86 -9 -38 29 63 93 -14 -59 -22 8 18 34 58 98 98 84 115 90 83 46 155 144 73 20 154 142 118 127 146 150 169 146 152 175 211 211
42 115 19 19 61 22 62 87 167 77 11 22 25 37 37 82 97 60 48 63 96 33 75 59 76 156 139 54 51 -0 94 399 154 148 171 202 199 214 130 149 179 190 224 246
84 61 29 -4 31 42 96 81 180 262 91 56 57 53 104 57 22 60 47 131 173 210 208 164 120 222 139 110 56 79 61 172 385 168 210 247 200 187 223 243 176 198 197 210
78 88 80 41 47 39 57 25 80 296 161 157 146 63 129 31 -18 29 173 236 204 299 310 279 239 256 138 135 49 63 19 27 62 97 149 22 124 74 150 165 245 268 297 236
80 117 65 18 44 111 95 89 35 145 149 198 196 235 254 196 76 101 375 257 298 341 427 361 292 182 124 83 63 77 44 42 116 107 -102 72 -93 71 126 240 127 277 225 181
72 77 44 48 30 111 98 73 82 131 139 177 241 235 173 92 -48 96 229 231 365 594 501 438 377 230 246 145 169 141 46 97 139 110 108 63 -1 -71 -82 95 132 253 339 300
58 80 107 105 129 175 196 163 88 69 79 110 109 154 90 9 -51 35 275 190 244 468 490 395 333 235 257 223 214 205 63 55 62 87 73 -6 -11 -59 -4 -53 -20 30 -10 71
34 39 124 101 91 101 187 89 86 100 78 56 78 55 31 14 33 -24 95 160 209 263 381 363 236 247 276 197 161 110 79 84 34 -1 -12 -15 -13 -5 -15 -21 -35 -11 45 1
53 51 97 68 65 132 119 -0 -1 45 93 28 33 19 65 48 23 16 -17 -2 126 118 333 370 330 186 135 140 71 80 101 95 43 54 51 49 41 55 53 55 72 86 126 196
56 53 39 43 50 49 36 26 53 80 29 45 13 45 36 23 23 -0 -4 9 8 68 126 230 398 291 170 96 70 74 95 90 48 21 46 61 72 103 134 163 195 206 197 181
38 40 31 37 30 35 27 66 26 35 12 -17 -1 14 -2 5 -2 21 16 17 52 67 43 52 105 135 165 142 124 78 75 85 74 96 101 112 117 127 149 189 193 203 214 244
14 23 38 21 51 77 4 46 14 13 20 20 17 9 7 8 18 30 32 30 36 47 68 78 79 69 57 46 31 46 72 89 110 122 134 146 144 154 167 161 175 187 183 195
3 8 14 1 47 26 6 19 37 1 14 24 20 14 7 -11 3 27 37 36 43 47 52 67 71 58 66 69 66 74 94 110 118 123 134 134 128 130 134 145 151 181 189 205
5 16 4 11 -12 14 25 -11 -6 20 10 22 17 21 18 -22 -16 45 34 30 32 40 45 41 34 37 46 68 73 79 89 92 104 111 126 135 141 156 147 158 156 165 192 205
4 13 12 -12 8 18 -17 -1 -1 37 2 -0 11 19 26 30 21 25 30 35 39 44 48 59 66 72 73 72 65 68 92 104 112 111 117 126 134 136 150 160 170 179 180 198
26 2 25 21 47 17 -8 -10 -10 50 1 -6 -2 11 29 17 9 11 23 32 28 29 41 40 65 87 108 101 84 90 99 104 95 98 113 122 132 144 155 177 180 200 213 223
82 84 76 61 72 79 -9 10 26 -12 -8 -11 -20 -30 -46 -14 25 25 20 26 42 49 43 43 43 69 107 134 104 119 135 100 85 88 91 93 113 139 138 140 147 156 161 162
100 67 57 49 44 -11 -15 -29 -12 -7 -9 -12 -18 -23 -25 -28 -38 -49 -30 41 39 39 47 40 37 55 88 103 104 108 114 114 87 80 81 82 81 82 83 98 116 129 128 133
73 50 67 71 51 35 7 -6 -9 -11 -17 -16 -20 -19 -14 -15 -16 -19 -31 -35 -13 52 68 57 59 66 57 53 71 85 104 107 103 103 98 109 92 90 93 98 96 100 117 124
39 61 72 49 46 37 35 22 16 10 5 -0 -5 -8 -6 -3 -6 -4 -4 -5 -7 1 38 59 75 78 79 80 84 81 76 62 56 96 69 78 97 103 136 145 138 147 175 174
68 46 51 25 64 49 72 85 54 52 36 8 7 3 1 9 17 18 16 -6 -22 -8 27 66 71 81 85 86 92 93 100 108 101 82 66 58 63 66 87 85 77 82 90 108

GFSCGP_con_3kmhel_120.txt.gz
Helicity
-39 -10 24 -45 -45 2 8 -20 -23 18 7 25 8 -95 -72 34 68 -17 54 33 100 60 81 69 9 -4 40 -60 -138 -153 28 255 343 430 273 365 361 301 243 227 131 171 220 200
-19 4 -2 -50 -59 -35 -8 8 5 24 26 5 -38 -144 -71 -27 13 19 14 60 54 64 68 101 20 23 47 -68 -93 -103 47 138 156 376 358 352 329 289 243 240 195 258 236 196
6 -24 -45 -17 5 21 48 120 105 91 94 19 22 -18 128 75 8 46 27 22 60 92 85 68 32 45 52 -2 -45 19 83 99 250 236 313 296 242 235 237 216 207 218 186 182
-21 4 7 18 13 53 109 143 111 111 83 42 -60 -160 -26 11 9 -1 40 10 32 38 42 27 1 44 56 73 6 35 45 58 236 211 229 200 222 213 199 209 197 199 193 170
9 12 42 -3 43 5 174 50 57 50 69 -4 24 10 34 -11 12 16 22 -18 33 34 30 40 35 61 115 117 27 1 107 136 330 224 165 177 224 198 196 220 196 203 204 158
51 30 30 43 34 42 93 93 83 38 32 64 125 127 58 -31 -55 28 -5 14 19 62 42 53 87 74 77 105 78 31 158 65 45 55 149 197 212 234 292 260 301 277 268 260
75 35 70 17 42 19 34 69 107 13 31 107 53 113 66 5 -107 -38 -50 54 84 74 44 44 6 54 95 150 93 97 61 87 49 55 71 180 201 209 226 260 269 295 293 275
14 53 69 46 30 64 72 163 134 76 -6 16 40 32 62 109 43 -20 -5 54 68 54 4 34 56 39 96 108 135 175 158 175 238 170 28 187 266 225 207 232 251 255 296 279
65 70 24 104 54 25 33 112 125 125 68 29 53 124 165 52 104 176 85 33 56 78 42 85 92 76 116 102 55 83 94 319 177 221 184 232 212 272 296 270 240 220 213 217
56 82 74 30 71 119 87 65 175 161 85 196 230 226 96 139 103 230 138 74 140 194 169 172 119 75 106 62 47 34 105 91 58 144 79 183 82 57 139 179 287 248 239 209
89 86 69 74 91 138 119 164 110 189 195 116 171 152 148 150 275 155 196 212 221 294 336 302 128 127 109 100 87 -20 82 27 84 71 177 129 119 95 149 128 122 201 238 204
73 69 119 107 110 189 210 193 121 123 137 152 209 137 161 184 100 112 91 325 350 321 431 403 206 250 199 141 94 137 67 43 155 150 112 108 -4 -74 -12 118 120 143 169 192
53 51 81 90 125 135 187 87 61 80 79 83 166 140 93 101 89 243 158 236 396 583 532 585 509 407 345 270 228 143 95 87 44 119 42 50 79 5 -77 -105 -70 18 98 178
87 126 100 130 96 121 113 83 83 51 10 30 60 71 83 90 61 150 204 144 169 243 589 413 518 466 322 213 236 195 180 129 98 44 -12 -22 -46 -12 -5 35 46 51 28 23
55 75 57 64 33 27 110 98 95 50 18 49 3 57 71 73 43 37 45 121 105 230 404 425 321 286 213 208 162 133 117 87 72 61 44 23 37 60 47 37 36 85 99 78
84 42 48 60 67 15 68 135 46 52 69 -2 12 16 -34 41 46 50 60 81 107 125 198 268 301 258 296 196 93 67 88 97 35 29 39 36 52 66 79 80 99 115 124 142
32 47 56 78 103 67 29 67 19 30 57 32 38 11 -28 26 30 57 54 63 77 115 117 111 91 75 30 43 77 76 49 61 61 52 45 50 66 87 96 123 139 150 171 194
30 39 33 59 69 46 14 17 32 8 48 6 -18 -17 -20 -57 -15 16 43 44 51 58 65 92 67 71 86 56 9 -2 52 62 46 45 63 70 80 102 115 140 151 143 166 173
-3 13 18 17 24 8 13 1 -0 16 29 26 -4 -14 30 59 -28 32 12 -12 -12 -8 5 20 27 14 45 72 62 60 62 67 92 111 106 94 79 89 103 115 134 143 153 160
14 24 -2 -7 2 20 36 17 12 40 -11 -32 -15 -5 -5 17 -29 -27 -13 -5 8 14 11 18 31 51 82 67 60 79 89 94 101 85 84 96 100 105 105 103 109 109 115 135
42 22 46 16 22 -4 -8 2 22 3 -29 3 12 -4 8 -3 -26 -22 -7 -8 -0 10 17 18 48 78 96 71 59 59 65 80 62 72 91 98 109 118 115 123 119 118 126 146
116 158 154 115 122 107 -20 -1 23 15 -3 -18 -6 -4 -10 -2 20 18 18 12 12 16 16 24 38 57 81 96 81 91 122 101 69 58 61 76 90 100 106 113 121 126 131 145
114 94 119 116 131 20 1 -15 7 15 17 13 5 -3 -9 -9 -13 -15 -16 -2 32 48 36 25 35 46 62 74 76 93 106 106 97 97 93 84 70 71 70 87 98 110 104 114
63 62 93 102 94 90 64 36 34 15 21 13 11 11 9 22 14 9 2 -9 -21 -18 21 46 64 77 87 73 63 50 59 67 59 75 84 73 72 77 83 97 94 100 108 119
69 68 93 58 70 65 75 75 74 62 52 48 26 21 30 42 43 49 45 32 31 39 54 68 77 66 64 65 77 84 87 76 66 60 60 71 59 72 78 76 67 84 101 129
74 61 63 56 99 51 63 87 90 78 69 54 56 54 41 45 73 85 91 75 69 69 70 88 96 96 91 98 94 90 82 73 77 84 81 77 79 76 84 86 89 65 54 67